[[{"header":{"parameterUnit":"m.s-1","parameterCategory":1,"la1":31.0,"la2":29.5877,"lo1":-88.7671,"lo2":-86.6584,"dx":0.0162,"dy":0.0185,"nx":115,"ny":88,"refTime":"2022-11-19T06:00:00:Z","depth":0,"parameterNumber":2,"parameterNumberName":"U-component_of_WINDS"},"data":[0.0,0.0,0.0,0.0,0.0,0.0,0.0,0.0,0.0,0.0,0.0,0.0,0.0,0.0,0.0,0.0,0.0,0.0,0.0,0.0,0.0,0.0,0.0,0.0,0.0,0.0,0.0,0.0,0.0,0.0,0.0,0.0,0.0,0.0,0.0,0.0,0.0,0.0,0.0,0.0,0.0,0.0,0.0,0.0,0.0,0.0,0.0,0.0,0.0,0.0,0.0,0.0,0.0,0.0,0.0,0.0,0.0,0.0,0.0,0.0,0.0,0.0,0.0,0.0,0.0,0.0,0.0,0.0,0.0,0.0,0.0,0.0,0.0,0.0,0.0,0.0,0.0,0.0,0.0,0.0,0.0,0.0,0.0,0.0,0.0,0.0,0.0,0.0,0.0,0.0,0.0,0.0,0.0,0.0,0.0,0.0,0.0,0.0,0.0,0.0,0.0,0.0,0.0,0.0,0.0,0.0,0.0,0.0,0.0,0.0,0.0,0.0,0.0,0.0,0.0,0.0,0.0,0.0,0.0,0.0,0.0,0.0,0.0,0.0,0.0,0.0,0.0,0.0,0.0,0.0,0.0,0.0,0.0,0.0,0.0,0.0,0.0,0.0,0.0,0.0,0.0,0.0,0.0,0.0,0.0,0.0,0.0,0.0,0.0,0.0,0.0,0.0,0.0,0.0,0.0,0.0,0.0,0.0,0.0,0.0,0.0,0.0,0.0,0.0,0.0,0.0,0.0,0.0,0.0,0.0,0.0,0.0,0.0,0.0,0.0,0.0,0.0,0.0,0.0,0.0,0.0,0.0,0.0,0.0,0.0,0.0,0.0,0.0,0.0,0.0,0.0,0.0,0.0,0.0,0.0,0.0,0.0,0.0,0.0,0.0,0.0,0.0,0.0,0.0,0.0,0.0,0.0,0.0,0.0,0.0,0.0,0.0,0.0,0.0,0.0,0.0,0.0,0.0,0.0,0.0,0.0,0.0,0.0,0.0,0.0,0.0,0.0,0.0,0.0,0.0,0.0,0.0,0.0,0.0,0.0,0.0,0.0,0.0,0.0,0.0,0.0,0.0,0.0,0.0,0.0,0.0,0.0,0.0,0.0,0.0,0.0,0.0,0.0,0.0,0.0,0.0,0.0,0.0,0.0,0.0,0.0,0.0,0.0,0.0,0.0,0.0,0.0,0.0,0.0,0.0,0.0,0.0,0.0,0.0,0.0,0.0,0.0,0.0,0.0,0.0,0.0,0.0,0.0,0.0,0.0,0.0,0.0,0.0,0.0,0.0,0.0,0.0,0.0,0.0,0.0,0.0,0.0,0.0,0.0,0.0,0.0,0.0,0.0,0.0,0.0,0.0,0.0,0.0,0.0,0.0,0.0,0.0,0.0,0.0,0.0,0.0,0.0,0.0,0.0,0.0,0.0,0.0,0.0,0.0,0.0,0.0,0.0,0.0,0.0,0.0,0.0,0.0,0.0,0.0,0.0,0.0,0.0,0.0,0.0,0.0,0.0,0.0,0.0,0.0,0.0,0.0,0.0,0.0,0.0,0.0,0.0,0.0,0.0,0.0,0.0,0.0,0.0,0.0,0.0,0.0,0.0,0.0,0.0,0.0,0.0,0.0,0.0,0.0,0.0,0.0,0.0,0.0,0.0,0.0,0.0,0.0,0.0,0.0,0.0,0.0,0.0,0.0,0.0,0.0,0.0,0.0,0.0,0.0,0.0,0.0,0.0,0.0,0.0,0.0,0.0,0.0,0.0,0.0,0.0,0.0,0.0,0.0,0.0,0.0,0.0,0.0,0.0,0.0,0.0,0.0,0.0,0.0,0.0,0.0,0.0,0.0,0.0,0.0,0.0,0.0,0.0,0.0,0.0,0.0,0.0,0.0,0.0,0.0,0.0,0.0,0.0,0.0,0.0,0.0,0.0,0.0,0.0,0.0,0.0,0.0,0.0,0.0,0.0,0.0,0.0,0.0,0.0,0.0,0.0,0.0,0.0,0.0,0.0,0.0,0.0,0.0,0.0,0.0,0.0,0.0,0.0,0.0,0.0,0.0,0.0,0.0,0.0,0.0,0.0,0.0,0.0,0.0,0.0,0.0,0.0,0.0,0.0,0.0,0.0,0.0,0.0,0.0,0.0,0.0,0.0,0.0,0.0,0.0,0.0,0.0,0.0,0.0,0.0,0.0,0.0,0.0,0.0,0.0,0.0,0.0,0.0,0.0,0.0,0.0,0.0,0.0,0.0,0.0,0.0,0.0,0.0,0.0,0.0,0.0,0.0,0.0,0.0,0.0,0.0,0.0,0.0,0.0,0.0,0.0,0.0,0.0,0.0,0.0,0.0,0.0,0.0,0.0,0.0,0.0,0.0,0.0,0.0,0.0,0.0,0.0,0.0,0.0,0.0,0.0,0.0,0.0,0.0,0.0,0.0,0.0,0.0,0.0,0.0,0.0,0.0,0.0,0.0,0.0,0.0,0.0,0.0,0.0,0.0,0.0,0.0,0.0,0.0,0.0,0.0,0.0,0.0,0.0,0.0,0.0,0.0,0.0,0.0,0.0,0.0,0.0,0.0,0.0,0.0,0.0,0.0,0.0,0.0,0.0,0.0,0.0,0.0,0.0,0.0,0.0,0.0,0.0,0.0,0.0,0.0,0.0,0.0,0.0,0.0,0.0,0.0,0.0,0.0,0.0,0.0,0.0,0.0,0.0,0.0,0.0,0.0,0.0,0.0,0.0,0.0,0.0,0.0,0.0,0.0,0.0,0.0,0.0,0.0,0.0,0.0,0.0,0.0,0.0,0.0,0.0,0.0,0.0,0.0,0.0,0.0,0.0,0.0,0.0,0.0,0.0,0.0,0.0,0.0,0.0,0.0,0.0,0.0,0.0,0.0,0.0,0.0,0.0,0.0,0.0,0.0,0.0,0.0,0.0,0.0,0.0,0.0,0.0,0.0,0.0,0.0,0.0,0.0,0.0,0.0,0.0,0.0,0.0,0.0,0.0,0.0,0.0,0.0,0.0,0.0,0.0,0.0,0.0,0.0,0.0,0.0,0.0,0.0,0.0,0.0,0.0,0.0,0.0,0.0,0.0,0.0,0.0,0.0,0.0,0.0,0.0,0.0,0.0,0.0,0.0,0.0,0.0,0.0,0.0,0.0,0.0,0.0,0.0,0.0,0.0,0.0,0.0,0.0,0.0,0.0,0.0,0.0,0.0,0.0,0.0,0.0,0.0,0.0,0.0,0.0,0.0,0.0,0.0,0.0,0.0,0.0,0.0,0.0,0.0,0.0,0.0,0.0,0.0,0.0,0.0,0.0,0.0,0.0,0.0,0.0,0.0,0.0,0.0,0.0,0.0,0.0,0.0,0.0,0.0,0.0,0.0,0.0,0.0,0.0,0.0,0.0,0.0,0.0,0.0,0.0,0.0,0.0,0.0,0.0,0.0,0.0,0.0,0.0,0.0,0.0,0.0,0.0,0.0,0.0,0.0,0.0,0.0,0.0,0.0,0.0,0.0,0.0,0.0,0.0,0.0,0.0,0.0,0.0,0.0,0.0,0.0,0.0,0.0,0.0,0.0,0.0,0.0,0.0,0.0,0.0,0.0,0.0,0.0,0.0,0.0,0.0,0.0,0.0,0.0,0.0,0.0,0.0,0.0,0.0,0.0,0.0,0.0,0.0,0.0,0.0,0.0,0.0,0.0,0.0,0.0,0.0,0.0,0.0,0.0,0.0,0.0,0.0,0.0,0.0,0.0,0.0,0.0,0.0,0.0,0.0,0.0,0.0,0.0,0.0,0.0,0.0,0.0,0.0,0.0,0.0,0.0,0.0,0.0,0.0,0.0,0.0,0.0,0.0,0.0,0.0,0.0,0.0,0.0,0.0,0.0,0.0,0.0,0.0,0.0,0.0,0.0,0.0,0.0,0.0,0.0,0.0,0.0,0.0,0.0,0.0,0.0,0.0,0.0,0.0,0.0,0.0,0.0,0.0,0.0,0.0,0.0,0.0,0.0,0.0,0.0,0.0,0.0,0.0,0.0,0.0,0.0,0.0,0.0,0.0,0.0,0.0,0.0,0.0,0.0,0.0,0.0,0.0,0.0,0.0,0.0,0.0,0.0,0.0,0.0,0.0,0.0,0.0,0.0,0.0,0.0,0.0,0.0,0.0,0.0,0.0,0.0,0.0,0.0,0.0,0.0,0.0,0.0,0.0,0.0,0.0,0.0,0.0,0.0,0.0,0.0,0.0,0.0,0.0,0.0,2.2313,0.0,0.0,0.0,2.2313,0.0,0.0,0.0,0.0,0.0,0.0,0.0,0.0,0.0,0.0,0.0,0.0,0.0,0.0,0.0,0.0,0.0,0.0,0.0,0.0,0.0,0.0,0.0,0.0,0.0,0.0,0.0,0.0,0.0,0.0,0.0,0.0,0.0,0.0,0.0,0.0,0.0,0.0,0.0,0.0,0.0,0.0,0.0,0.0,0.0,0.0,0.0,0.0,0.0,0.0,0.0,0.0,0.0,0.0,0.0,0.0,0.0,0.0,0.0,0.0,0.0,0.0,0.0,0.0,0.0,0.0,0.0,0.0,0.0,0.0,0.0,0.0,0.0,0.0,0.0,0.0,0.0,0.0,0.0,0.0,0.0,0.0,0.0,0.0,0.0,0.0,0.0,0.0,0.0,0.0,0.0,0.0,0.0,0.0,0.0,0.0,0.0,0.0,0.0,0.0,0.0,0.0,0.0,0.0,0.0,0.0,0.0,0.0,0.0,0.0,2.2902,2.2895,2.3274,2.3316,2.2902,0.0,0.0,0.0,0.0,0.0,0.0,0.0,0.0,0.0,0.0,0.0,0.0,0.0,0.0,0.0,0.0,0.0,0.0,0.0,0.0,0.0,0.0,0.0,0.0,0.0,0.0,0.0,0.0,0.0,0.0,0.0,0.0,0.0,0.0,0.0,0.0,0.0,0.0,0.0,0.0,0.0,0.0,0.0,0.0,0.0,0.0,0.0,0.0,0.0,0.0,0.0,0.0,0.0,0.0,0.0,0.0,0.0,0.0,0.0,0.0,0.0,0.0,0.0,0.0,0.0,0.0,0.0,0.0,0.0,0.0,0.0,0.0,0.0,0.0,0.0,0.0,0.0,0.0,0.0,0.0,0.0,0.0,0.0,0.0,0.0,0.0,0.0,0.0,0.0,0.0,0.0,0.0,0.0,0.0,0.0,0.0,0.0,0.0,0.0,0.0,0.0,0.0,0.0,0.0,0.0,0.0,0.0,0.0,0.0,0.0,0.0,0.0,2.4203,2.4169,2.3417,0.0,0.0,0.0,0.0,0.0,0.0,0.0,0.0,0.0,0.0,0.0,0.0,0.0,0.0,0.0,0.0,0.0,0.0,0.0,0.0,0.0,0.0,0.0,0.0,0.0,0.0,0.0,0.0,0.0,0.0,0.0,0.0,0.0,0.0,0.0,0.0,0.0,0.0,0.0,0.0,0.0,0.0,0.0,0.0,0.0,0.0,0.0,0.0,0.0,0.0,0.0,0.0,0.0,0.0,0.0,0.0,0.0,0.0,0.0,0.0,0.0,0.0,0.0,0.0,0.0,0.0,0.0,0.0,0.0,0.0,0.0,0.0,0.0,0.0,0.0,0.0,0.0,0.0,0.0,0.0,0.0,0.0,0.0,0.0,0.0,0.0,0.0,0.0,0.0,0.0,0.0,0.0,0.0,0.0,0.0,0.0,0.0,0.0,0.0,0.0,0.0,0.0,0.0,0.0,0.0,0.0,0.0,0.0,0.0,0.0,2.3722,2.438,2.4474,0.0,2.3451,0.0,0.0,0.0,0.0,0.0,0.0,0.0,0.0,0.0,0.0,0.0,0.0,0.0,0.0,0.0,0.0,0.0,0.0,0.0,0.0,0.0,0.0,0.0,0.0,0.0,0.0,0.0,0.0,0.0,0.0,0.0,0.0,0.0,0.0,0.0,0.0,0.0,0.0,0.0,0.0,0.0,0.0,0.0,0.0,0.0,0.0,0.0,0.0,0.0,0.0,0.0,0.0,0.0,0.0,0.0,0.0,0.0,0.0,0.0,0.0,0.0,0.0,0.0,0.0,0.0,0.0,0.0,0.0,0.0,0.0,0.0,0.0,0.0,0.0,0.0,0.0,0.0,0.0,0.0,0.0,0.0,0.0,0.0,0.0,0.0,0.0,0.0,0.0,0.0,0.0,0.0,0.0,0.0,0.0,0.0,0.0,0.0,0.0,0.0,0.0,0.0,0.0,0.0,0.0,0.0,0.0,0.0,0.0,0.0,0.0,2.4864,2.5143,2.5143,2.4797,0.0,0.0,0.0,0.0,0.0,0.0,0.0,0.0,0.0,0.0,0.0,0.0,0.0,0.0,0.0,0.0,0.0,0.0,0.0,0.0,0.0,0.0,0.0,0.0,0.0,0.0,0.0,0.0,0.0,0.0,0.0,0.0,0.0,0.0,0.0,0.0,0.0,0.0,0.0,0.0,0.0,0.0,0.0,0.0,0.0,0.0,0.0,0.0,0.0,0.0,0.0,0.0,0.0,0.0,0.0,0.0,0.0,0.0,0.0,0.0,0.0,0.0,0.0,0.0,0.0,0.0,0.0,0.0,0.0,0.0,0.0,0.0,0.0,0.0,0.0,0.0,0.0,0.0,0.0,0.0,0.0,0.0,0.0,0.0,0.0,0.0,0.0,0.0,0.0,0.0,0.0,0.0,0.0,0.0,0.0,0.0,0.0,0.0,0.0,0.0,0.0,0.0,0.0,0.0,0.0,0.0,0.0,0.0,0.0,0.0,2.4966,2.5702,2.5879,2.5905,2.5473,2.4549,0.0,0.0,0.0,0.0,0.0,0.0,0.0,0.0,0.0,0.0,0.0,0.0,0.0,0.0,0.0,0.0,0.0,0.0,0.0,0.0,0.0,0.0,0.0,0.0,0.0,0.0,0.0,0.0,0.0,0.0,0.0,0.0,0.0,0.0,0.0,0.0,0.0,0.0,0.0,0.0,0.0,0.0,0.0,0.0,0.0,0.0,0.0,0.0,0.0,0.0,0.0,0.0,0.0,0.0,0.0,0.0,0.0,0.0,0.0,0.0,0.0,0.0,0.0,0.0,0.0,0.0,0.0,0.0,0.0,0.0,0.0,0.0,0.0,0.0,0.0,0.0,0.0,0.0,0.0,0.0,0.0,0.0,0.0,0.0,0.0,0.0,0.0,0.0,0.0,0.0,0.0,0.0,0.0,0.0,0.0,0.0,0.0,0.0,0.0,0.0,0.0,0.0,0.0,0.0,0.0,0.0,0.0,0.0,2.4448,2.5236,2.5981,2.6666,2.6657,2.5997,0.0,0.0,0.0,0.0,0.0,0.0,0.0,0.0,0.0,0.0,0.0,0.0,0.0,0.0,0.0,0.0,0.0,0.0,0.0,0.0,0.0,0.0,0.0,0.0,0.0,0.0,0.0,0.0,0.0,0.0,0.0,0.0,0.0,0.0,0.0,0.0,0.0,0.0,0.0,0.0,0.0,0.0,0.0,0.0,0.0,0.0,0.0,0.0,0.0,0.0,0.0,0.0,0.0,0.0,0.0,0.0,0.0,0.0,0.0,0.0,0.0,0.0,0.0,0.0,0.0,0.0,0.0,0.0,0.0,0.0,0.0,0.0,0.0,0.0,0.0,0.0,0.0,0.0,0.0,0.0,0.0,0.0,0.0,0.0,0.0,0.0,0.0,0.0,0.0,0.0,0.0,0.0,0.0,0.0,0.0,0.0,0.0,0.0,0.0,0.0,0.0,0.0,0.0,0.0,0.0,0.0,0.0,0.0,0.0,2.5236,2.7334,2.861,2.8856,2.8425,2.7232,0.0,0.0,0.0,0.0,0.0,0.0,0.0,0.0,0.0,0.0,0.0,0.0,0.0,0.0,0.0,0.0,0.0,0.0,0.0,0.0,0.0,0.0,0.0,0.0,0.0,0.0,0.0,0.0,0.0,0.0,0.0,0.0,0.0,0.0,0.0,0.0,0.0,0.0,0.0,0.0,0.0,0.0,0.0,0.0,0.0,0.0,0.0,0.0,0.0,0.0,0.0,0.0,0.0,0.0,0.0,0.0,0.0,0.0,0.0,0.0,0.0,0.0,0.0,0.0,0.0,0.0,0.0,0.0,0.0,0.0,0.0,0.0,0.0,0.0,0.0,0.0,0.0,0.0,0.0,0.0,0.0,0.0,0.0,0.0,0.0,0.0,0.0,0.0,0.0,0.0,0.0,0.0,0.0,0.0,0.0,0.0,0.0,0.0,0.0,0.0,0.0,0.0,0.0,0.0,0.0,0.0,0.0,0.0,0.0,2.7402,3.0108,3.1529,3.1485,3.0828,2.9127,0.0,0.0,0.0,0.0,0.0,0.0,0.0,0.0,0.0,0.0,0.0,0.0,0.0,0.0,0.0,0.0,0.0,0.0,0.0,0.0,0.0,0.0,0.0,0.0,0.0,0.0,0.0,0.0,0.0,0.0,0.0,0.0,0.0,0.0,0.0,0.0,0.0,0.0,0.0,0.0,0.0,0.0,0.0,0.0,0.0,0.0,0.0,0.0,0.0,0.0,0.0,0.0,0.0,0.0,0.0,0.0,0.0,0.0,0.0,0.0,0.0,0.0,0.0,0.0,0.0,0.0,0.0,0.0,0.0,0.0,0.0,0.0,0.0,0.0,0.0,0.0,0.0,0.0,0.0,0.0,0.0,0.0,0.0,0.0,0.0,0.0,0.0,0.0,0.0,0.0,0.0,0.0,0.0,0.0,0.0,0.0,0.0,0.0,0.0,0.0,0.0,0.0,0.0,0.0,0.0,0.0,0.0,0.0,2.6835,3.1099,3.3457,3.472,3.4539,3.3886,3.1722,0.0,0.0,0.0,0.0,0.0,0.0,0.0,0.0,0.0,0.0,0.0,0.0,0.0,0.0,0.0,0.0,0.0,0.0,0.0,0.0,0.0,0.0,0.0,0.0,0.0,0.0,0.0,0.0,0.0,0.0,0.0,0.0,0.0,0.0,0.0,0.0,0.0,0.0,0.0,0.0,0.0,0.0,0.0,0.0,0.0,0.0,0.0,0.0,0.0,0.0,0.0,0.0,0.0,0.0,0.0,0.0,0.0,0.0,0.0,0.0,0.0,0.0,0.0,0.0,0.0,0.0,0.0,0.0,0.0,0.0,0.0,0.0,0.0,0.0,0.0,0.0,0.0,0.0,0.0,0.0,0.0,0.0,0.0,0.0,0.0,0.0,0.0,0.0,0.0,0.0,0.0,0.0,0.0,0.0,0.0,0.0,0.0,0.0,0.0,0.0,0.0,0.0,0.0,0.0,0.0,0.0,0.0,0.0,0.0,3.5024,3.8205,3.9897,3.9829,3.8205,3.525,0.0,0.0,0.0,0.0,0.0,0.0,0.0,0.0,0.0,0.0,0.0,0.0,0.0,0.0,0.0,0.0,0.0,0.0,0.0,0.0,0.0,0.0,0.0,0.0,0.0,0.0,0.0,0.0,0.0,0.0,0.0,0.0,0.0,0.0,0.0,0.0,0.0,0.0,0.0,0.0,0.0,0.0,0.0,0.0,0.0,0.0,0.0,0.0,0.0,0.0,0.0,0.0,0.0,0.0,0.0,0.0,0.0,0.0,0.0,0.0,0.0,0.0,0.0,0.0,0.0,0.0,0.0,0.0,0.0,0.0,0.0,0.0,0.0,0.0,0.0,0.0,0.0,0.0,0.0,0.0,0.0,0.0,0.0,0.0,0.0,0.0,0.0,0.0,0.0,0.0,0.0,0.0,0.0,0.0,0.0,0.0,0.0,0.0,0.0,0.0,0.0,0.0,0.0,0.0,0.0,0.0,0.0,0.0,0.0,4.0796,4.334,4.4691,4.4676,4.2517,3.8897,3.3728,0.0,0.0,0.0,0.0,0.0,0.0,0.0,0.0,0.0,0.0,0.0,0.0,0.0,0.0,0.0,0.0,0.0,0.0,0.0,0.0,0.0,0.0,0.0,0.0,0.0,0.0,0.0,0.0,0.0,0.0,0.0,0.0,0.0,0.0,0.0,0.0,0.0,0.0,0.0,0.0,0.0,0.0,0.0,0.0,0.0,0.0,0.0,0.0,0.0,0.0,0.0,0.0,0.0,0.0,0.0,0.0,0.0,0.0,0.0,0.0,0.0,0.0,0.0,0.0,0.0,0.0,0.0,0.0,0.0,0.0,0.0,0.0,0.0,0.0,0.0,0.0,0.0,0.0,0.0,0.0,0.0,0.0,0.0,0.0,0.0,0.0,0.0,0.0,0.0,0.0,0.0,0.0,0.0,0.0,0.0,0.0,0.0,0.0,0.0,0.0,0.0,0.0,0.0,0.0,0.0,0.0,0.0,0.0,4.7753,4.8725,4.9094,4.8942,4.666,4.2415,0.0,0.0,0.0,0.0,0.0,0.0,0.0,0.0,0.0,0.0,0.0,0.0,0.0,0.0,0.0,0.0,0.0,0.0,0.0,0.0,0.0,0.0,0.0,0.0,0.0,0.0,0.0,0.0,0.0,0.0,0.0,0.0,0.0,0.0,0.0,0.0,0.0,0.0,0.0,0.0,0.0,0.0,0.0,0.0,0.0,0.0,0.0,0.0,0.0,0.0,0.0,0.0,0.0,0.0,0.0,0.0,0.0,0.0,0.0,0.0,0.0,0.0,0.0,0.0,0.0,0.0,0.0,0.0,0.0,0.0,0.0,0.0,0.0,0.0,0.0,0.0,0.0,0.0,0.0,0.0,0.0,0.0,0.0,0.0,0.0,0.0,0.0,0.0,0.0,0.0,0.0,0.0,0.0,0.0,0.0,0.0,0.0,0.0,0.0,0.0,0.0,0.0,0.0,0.0,0.0,0.0,0.0,0.0,0.0,5.0293,5.3312,5.4136,5.2603,4.9404,4.4576,0.0,0.0,0.0,0.0,0.0,0.0,0.0,0.0,0.0,0.0,0.0,0.0,0.0,0.0,0.0,0.0,0.0,0.0,0.0,0.0,0.0,0.0,0.0,0.0,0.0,0.0,0.0,0.0,0.0,0.0,0.0,0.0,0.0,0.0,0.0,0.0,0.0,0.0,0.0,0.0,0.0,0.0,0.0,0.0,0.0,0.0,0.0,0.0,0.0,0.0,0.0,0.0,0.0,0.0,0.0,0.0,0.0,0.0,0.0,0.0,0.0,0.0,0.0,0.0,0.0,0.0,0.0,0.0,0.0,0.0,0.0,0.0,0.0,0.0,0.0,0.0,0.0,0.0,0.0,0.0,0.0,0.0,0.0,0.0,0.0,0.0,0.0,0.0,0.0,0.0,0.0,0.0,0.0,0.0,0.0,0.0,0.0,0.0,0.0,0.0,0.0,0.0,0.0,0.0,0.0,0.0,0.0,0.0,4.8087,5.2804,5.6407,5.7257,5.5192,5.1644,4.6535,0.0,0.0,0.0,0.0,0.0,0.0,0.0,0.0,0.0,0.0,0.0,0.0,0.0,0.0,0.0,0.0,0.0,0.0,0.0,0.0,0.0,0.0,0.0,0.0,0.0,0.0,0.0,0.0,0.0,0.0,0.0,0.0,0.0,0.0,0.0,0.0,0.0,0.0,0.0,0.0,0.0,0.0,0.0,0.0,0.0,0.0,0.0,0.0,0.0,0.0,0.0,0.0,0.0,0.0,0.0,0.0,0.0,0.0,0.0,0.0,0.0,0.0,0.0,0.0,0.0,0.0,0.0,0.0,0.0,0.0,0.0,0.0,0.0,0.0,0.0,0.0,0.0,0.0,0.0,0.0,0.0,0.0,0.0,0.0,0.0,0.0,0.0,0.0,0.0,0.0,0.0,0.0,0.0,0.0,0.0,0.0,0.0,0.0,0.0,0.0,0.0,0.0,0.0,0.0,0.0,0.0,0.0,0.0,5.1293,5.4815,5.825,5.8933,5.6732,5.3295,4.8094,0.0,0.0,0.0,0.0,0.0,0.0,0.0,0.0,0.0,0.0,0.0,0.0,0.0,0.0,0.0,0.0,0.0,0.0,0.0,0.0,0.0,0.0,0.0,0.0,0.0,0.0,0.0,0.0,0.0,0.0,0.0,0.0,0.0,0.0,0.0,0.0,0.0,0.0,0.0,0.0,0.0,0.0,0.0,0.0,0.0,0.0,0.0,0.0,0.0,0.0,0.0,0.0,0.0,0.0,0.0,0.0,0.0,0.0,0.0,0.0,0.0,0.0,0.0,0.0,0.0,0.0,0.0,0.0,0.0,0.0,0.0,0.0,0.0,0.0,0.0,0.0,0.0,0.0,0.0,0.0,0.0,0.0,0.0,0.0,0.0,0.0,0.0,0.0,0.0,0.0,0.0,0.0,0.0,0.0,0.0,0.0,0.0,0.0,0.0,0.0,0.0,0.0,0.0,0.0,0.0,0.0,0.0,0.0,5.1904,5.5359,5.8403,5.8966,5.6732,5.3223,4.7916,0.0,0.0,0.0,0.0,0.0,0.0,0.0,0.0,0.0,0.0,0.0,0.0,0.0,0.0,0.0,0.0,0.0,0.0,0.0,0.0,0.0,0.0,0.0,0.0,0.0,0.0,0.0,0.0,0.0,0.0,0.0,0.0,0.0,0.0,0.0,0.0,0.0,0.0,0.0,0.0,0.0,0.0,0.0,0.0,0.0,0.0,0.0,0.0,2.4395,0.0,0.0,0.0,0.0,0.0,0.0,0.0,0.0,0.0,0.0,0.0,0.0,0.0,0.0,0.0,0.0,0.0,0.0,0.0,0.0,0.0,0.0,0.0,0.0,0.0,0.0,0.0,0.0,0.0,0.0,0.0,0.0,0.0,0.0,0.0,0.0,0.0,0.0,0.0,0.0,0.0,0.0,0.0,0.0,0.0,0.0,0.0,0.0,0.0,0.0,0.0,0.0,0.0,0.0,0.0,0.0,0.0,0.0,0.0,5.3497,5.6581,5.9198,5.9463,5.7229,5.3717,4.8547,0.0,0.0,0.0,0.0,0.0,0.0,0.0,0.0,0.0,0.0,0.0,0.0,0.0,0.0,0.0,0.0,0.0,0.0,0.0,0.0,0.0,0.0,0.0,0.0,0.0,0.0,0.0,0.0,0.0,0.0,0.0,0.0,0.0,0.0,0.0,0.0,0.0,0.0,0.0,0.0,0.0,0.0,0.0,0.0,0.0,0.0,0.0,0.0,0.0,0.0,0.0,0.0,0.0,0.0,0.0,0.0,0.0,0.0,0.0,0.0,0.0,0.0,0.0,0.0,0.0,0.0,0.0,0.0,0.0,0.0,0.0,0.0,0.0,0.0,0.0,0.0,0.0,0.0,0.0,0.0,0.0,0.0,0.0,0.0,0.0,0.0,0.0,0.0,0.0,0.0,0.0,0.0,0.0,0.0,0.0,0.0,0.0,0.0,0.0,0.0,0.0,0.0,0.0,0.0,0.0,0.0,0.0,5.0442,5.5007,5.7727,5.996,6.0059,5.7859,5.4413,4.9508,4.305,0.0,0.0,0.0,0.0,0.0,0.0,0.0,0.0,0.0,0.0,0.0,0.0,0.0,0.0,0.0,0.0,0.0,0.0,0.0,0.0,0.0,0.0,0.0,0.0,0.0,0.0,0.0,0.0,0.0,0.0,0.0,0.0,0.0,0.0,0.0,0.0,0.0,0.0,2.4668,2.6509,0.0,0.0,0.0,0.0,0.0,0.0,0.0,0.0,2.7003,0.0,0.0,0.0,0.0,0.0,0.0,0.0,0.0,0.0,0.0,0.0,0.0,0.0,0.0,0.0,0.0,0.0,0.0,0.0,0.0,0.0,0.0,0.0,0.0,0.0,0.0,0.0,0.0,0.0,0.0,0.0,0.0,0.0,0.0,0.0,0.0,0.0,0.0,0.0,0.0,0.0,0.0,0.0,0.0,0.0,0.0,0.0,0.0,0.0,0.0,0.0,0.0,0.0,0.0,0.0,0.0,4.4879,5.054,5.4844,5.776,5.996,6.0059,5.7806,5.4825,5.0452,4.4504,0.0,0.0,0.0,0.0,0.0,0.0,0.0,0.0,0.0,0.0,0.0,0.0,0.0,0.0,0.0,0.0,0.0,0.0,0.0,0.0,0.0,0.0,0.0,0.0,0.0,0.0,0.0,0.0,0.0,0.0,0.0,0.0,0.0,0.0,0.0,0.0,0.0,0.0,0.0,2.8042,2.8941,0.0,0.0,0.0,0.0,0.0,0.0,0.0,0.0,2.865,0.0,0.0,0.0,0.0,0.0,0.0,0.0,0.0,0.0,0.0,0.0,0.0,0.0,0.0,0.0,0.0,0.0,0.0,0.0,0.0,0.0,0.0,0.0,0.0,0.0,0.0,0.0,0.0,0.0,0.0,0.0,0.0,0.0,0.0,0.0,0.0,0.0,0.0,0.0,0.0,0.0,0.0,0.0,0.0,0.0,0.0,0.0,0.0,0.0,0.0,0.0,0.0,0.0,0.0,0.0,4.6735,5.19,5.5965,5.8833,6.0357,6.0225,5.8369,5.5123,5.085,0.0,0.0,0.0,0.0,0.0,0.0,0.0,0.0,0.0,0.0,0.0,0.0,0.0,0.0,0.0,0.0,0.0,0.0,0.0,0.0,0.0,0.0,0.0,0.0,0.0,0.0,0.0,0.0,0.0,0.0,0.0,0.0,0.0,0.0,0.0,0.0,0.0,0.0,0.0,0.0,2.962,3.0659,3.1227,0.0,0.0,0.0,0.0,0.0,0.0,3.118,3.1045,0.0,0.0,0.0,0.0,0.0,0.0,0.0,0.0,0.0,0.0,0.0,0.0,0.0,0.0,0.0,0.0,0.0,0.0,0.0,0.0,0.0,0.0,0.0,0.0,0.0,0.0,0.0,0.0,0.0,0.0,0.0,0.0,0.0,0.0,0.0,0.0,0.0,0.0,0.0,0.0,0.0,0.0,0.0,0.0,0.0,0.0,0.0,0.0,0.0,0.0,0.0,0.0,0.0,0.0,0.0,4.8691,5.3241,5.6966,5.9799,6.0597,6.0266,5.8779,5.5322,5.1058,0.0,0.0,0.0,0.0,0.0,0.0,0.0,0.0,0.0,0.0,0.0,0.0,0.0,0.0,0.0,0.0,0.0,0.0,0.0,0.0,0.0,0.0,0.0,0.0,0.0,0.0,0.0,0.0,0.0,0.0,0.0,0.0,0.0,0.0,0.0,0.0,0.0,0.0,0.0,0.0,0.0,3.2328,3.2976,3.3201,0.0,0.0,0.0,0.0,3.3154,3.3633,0.0,0.0,0.0,0.0,0.0,0.0,0.0,0.0,0.0,0.0,0.0,0.0,0.0,0.0,0.0,0.0,0.0,0.0,0.0,0.0,0.0,0.0,0.0,0.0,0.0,0.0,0.0,0.0,0.0,0.0,0.0,0.0,0.0,0.0,0.0,0.0,0.0,0.0,0.0,0.0,0.0,0.0,0.0,0.0,0.0,0.0,0.0,0.0,0.0,0.0,0.0,0.0,0.0,0.0,0.0,0.0,4.9992,5.3588,5.6718,5.9519,6.0208,5.9774,5.8298,5.5391,5.1233,0.0,0.0,0.0,0.0,0.0,0.0,0.0,0.0,0.0,0.0,0.0,0.0,0.0,0.0,0.0,0.0,0.0,0.0,0.0,0.0,0.0,0.0,0.0,0.0,0.0,0.0,0.0,0.0,0.0,0.0,0.0,0.0,0.0,0.0,0.0,0.0,0.0,0.0,0.0,0.0,0.0,3.3667,3.4235,3.5296,3.5805,0.0,0.0,3.5859,3.5023,3.5601,0.0,0.0,0.0,0.0,0.0,0.0,0.0,0.0,0.0,0.0,0.0,0.0,0.0,0.0,0.0,0.0,0.0,0.0,0.0,0.0,0.0,0.0,0.0,0.0,0.0,0.0,0.0,0.0,0.0,0.0,0.0,0.0,0.0,0.0,0.0,0.0,0.0,0.0,0.0,0.0,0.0,0.0,0.0,0.0,0.0,0.0,0.0,0.0,0.0,0.0,0.0,0.0,0.0,0.0,0.0,4.3953,5.0635,5.4077,5.7124,5.9936,6.0278,5.969,5.8195,5.5398,5.1438,0.0,0.0,0.0,0.0,0.0,0.0,0.0,0.0,0.0,0.0,0.0,0.0,0.0,0.0,0.0,0.0,0.0,0.0,0.0,0.0,0.0,0.0,0.0,0.0,0.0,0.0,0.0,0.0,0.0,0.0,0.0,0.0,0.0,0.0,0.0,0.0,0.0,0.0,0.0,0.0,0.0,0.0,3.654,3.7554,0.0,0.0,0.0,3.8234,3.7387,0.0,0.0,0.0,0.0,0.0,0.0,0.0,0.0,0.0,0.0,0.0,0.0,0.0,0.0,0.0,0.0,0.0,0.0,0.0,0.0,0.0,0.0,0.0,0.0,0.0,0.0,0.0,0.0,0.0,0.0,0.0,0.0,0.0,0.0,0.0,0.0,0.0,0.0,0.0,0.0,0.0,0.0,0.0,0.0,0.0,0.0,0.0,0.0,0.0,0.0,0.0,0.0,0.0,0.0,0.0,0.0,0.0,5.1062,5.4436,5.7436,6.0163,6.0228,5.9545,5.8214,5.53,0.0,0.0,0.0,0.0,0.0,0.0,0.0,0.0,0.0,0.0,0.0,0.0,0.0,0.0,0.0,0.0,0.0,0.0,0.0,0.0,0.0,0.0,0.0,0.0,0.0,0.0,0.0,2.1483,0.0,0.0,0.0,0.0,0.0,0.0,0.0,0.0,0.0,0.0,0.0,0.0,0.0,0.0,3.6602,3.8513,3.9473,3.9996,0.0,0.0,4.0604,3.9717,3.961,3.8927,0.0,0.0,0.0,0.0,0.0,0.0,0.0,0.0,0.0,0.0,0.0,0.0,0.0,0.0,0.0,0.0,0.0,0.0,0.0,0.0,0.0,0.0,0.0,0.0,0.0,0.0,0.0,0.0,0.0,0.0,0.0,0.0,0.0,0.0,0.0,0.0,0.0,0.0,0.0,0.0,0.0,0.0,0.0,0.0,0.0,0.0,0.0,0.0,0.0,0.0,0.0,0.0,0.0,0.0,0.0,5.1206,5.4499,5.7377,5.9905,5.9859,5.9246,5.8177,5.5037,5.1415,0.0,0.0,0.0,0.0,0.0,0.0,0.0,0.0,0.0,0.0,0.0,0.0,0.0,0.0,0.0,0.0,0.0,0.0,0.0,0.0,0.0,0.0,0.0,0.0,0.0,0.0,0.0,0.0,0.0,0.0,0.0,0.0,0.0,0.0,0.0,0.0,0.0,0.0,0.0,0.0,0.0,3.7688,3.9647,4.0829,4.1745,0.0,4.2779,4.2777,4.193,4.1773,4.1073,3.8928,0.0,0.0,0.0,0.0,0.0,0.0,0.0,0.0,0.0,0.0,0.0,0.0,0.0,0.0,0.0,0.0,0.0,0.0,0.0,0.0,0.0,0.0,0.0,0.0,0.0,0.0,0.0,0.0,0.0,0.0,0.0,0.0,0.0,0.0,0.0,0.0,0.0,0.0,0.0,0.0,0.0,0.0,0.0,0.0,0.0,0.0,0.0,0.0,0.0,0.0,0.0,0.0,0.0,4.4901,5.0914,5.4523,5.7385,5.9416,5.9665,5.9286,5.8228,5.5528,5.245,0.0,0.0,0.0,0.0,0.0,0.0,0.0,0.0,0.0,0.0,0.0,0.0,0.0,0.0,0.0,0.0,0.0,0.0,0.0,0.0,0.0,0.0,0.0,0.0,0.0,0.0,0.0,0.0,2.5729,2.6329,2.6149,0.0,0.0,0.0,0.0,0.0,0.0,0.0,0.0,0.0,0.0,3.9413,4.1361,4.2587,0.0,0.0,4.3321,4.3085,4.2567,4.1703,4.0724,3.9515,3.7526,0.0,0.0,0.0,0.0,0.0,0.0,0.0,0.0,0.0,0.0,0.0,0.0,0.0,0.0,0.0,0.0,0.0,0.0,0.0,0.0,0.0,0.0,0.0,0.0,0.0,0.0,0.0,0.0,0.0,0.0,0.0,0.0,0.0,0.0,0.0,0.0,0.0,0.0,0.0,0.0,0.0,0.0,0.0,0.0,0.0,0.0,0.0,0.0,0.0,0.0,0.0,0.0,4.5186,5.0996,5.4537,5.7327,5.9321,5.9554,5.9269,5.84,5.6046,5.3432,0.0,0.0,0.0,0.0,0.0,0.0,0.0,0.0,0.0,0.0,0.0,0.0,0.0,0.0,0.0,0.0,0.0,0.0,0.0,0.0,0.0,0.0,0.0,0.0,0.0,0.0,0.0,0.0,2.6904,2.714,2.6287,0.0,0.0,0.0,0.0,0.0,0.0,0.0,0.0,0.0,0.0,4.1037,4.2986,4.4022,4.4564,4.446,4.3946,4.3432,4.3104,4.1892,4.078,4.0191,0.0,0.0,0.0,0.0,0.0,0.0,0.0,0.0,0.0,0.0,0.0,0.0,0.0,0.0,0.0,0.0,0.0,0.0,0.0,0.0,0.0,0.0,0.0,0.0,0.0,0.0,0.0,0.0,0.0,0.0,2.5153,0.0,0.0,0.0,0.0,0.0,0.0,0.0,0.0,0.0,0.0,0.0,0.0,0.0,0.0,0.0,0.0,0.0,0.0,0.0,0.0,0.0,0.0,4.5189,5.1767,5.462,5.7219,5.9588,5.9487,5.923,5.8823,5.6505,5.4223,5.2146,0.0,0.0,0.0,0.0,0.0,0.0,0.0,0.0,0.0,0.0,0.0,0.0,0.0,0.0,0.0,0.0,0.0,0.0,0.0,0.0,0.0,0.0,0.0,0.0,0.0,0.0,2.8364,2.8547,2.8034,0.0,0.0,0.0,0.0,0.0,0.0,0.0,0.0,0.0,0.0,3.9973,4.2484,4.4214,4.5103,4.5539,4.5619,4.4949,4.4246,4.3642,4.2609,4.1659,0.0,0.0,0.0,0.0,0.0,0.0,0.0,0.0,0.0,0.0,0.0,0.0,0.0,0.0,0.0,0.0,0.0,0.0,0.0,0.0,0.0,0.0,0.0,0.0,0.0,0.0,0.0,3.1407,3.0888,0.0,0.0,0.0,0.0,0.0,0.0,0.0,0.0,0.0,0.0,0.0,4.2796,4.2634,0.0,0.0,0.0,0.0,0.0,0.0,0.0,0.0,0.0,0.0,0.0,0.0,4.7448,5.1954,5.538,5.7783,5.9096,5.9352,5.9304,5.8902,5.7495,5.5013,5.1448,0.0,0.0,0.0,0.0,0.0,0.0,0.0,0.0,0.0,0.0,0.0,0.0,0.0,0.0,0.0,0.0,0.0,0.0,0.0,0.0,0.0,0.0,0.0,0.0,0.0,2.8959,0.0,0.0,0.0,0.0,0.0,0.0,0.0,0.0,0.0,0.0,0.0,3.7106,3.9774,4.1831,4.3499,4.4575,4.514,4.5403,0.0,0.0,0.0,0.0,0.0,0.0,0.0,0.0,0.0,0.0,0.0,0.0,0.0,0.0,3.5257,3.3164,3.2626,3.2534,3.2514,0.0,0.0,0.0,0.0,0.0,0.0,0.0,0.0,0.0,0.0,0.0,0.0,0.0,0.0,3.5801,0.0,3.4053,0.0,0.0,0.0,0.0,0.0,0.0,0.0,0.0,4.4207,4.5837,4.7423,4.7272,4.7395,0.0,4.7074,4.4924,0.0,0.0,0.0,0.0,0.0,0.0,0.0,0.0,4.9242,5.2927,5.6149,5.8329,5.9406,5.9864,5.9961,5.967,5.8369,5.5812,5.183,4.8933,4.5534,0.0,0.0,0.0,0.0,0.0,0.0,0.0,0.0,0.0,0.0,0.0,0.0,0.0,0.0,0.0,0.0,0.0,0.0,0.0,0.0,0.0,0.0,0.0,3.1274,0.0,0.0,0.0,0.0,0.0,0.0,0.0,0.0,0.0,3.5032,3.7095,3.937,4.1609,4.3267,4.4431,4.4946,0.0,0.0,0.0,0.0,0.0,0.0,0.0,4.1824,4.1827,4.1,4.0458,4.0718,4.0489,4.0159,3.9956,0.0,0.0,3.6499,3.5843,3.5785,3.599,3.6315,3.6684,3.7039,3.7571,3.8256,0.0,0.0,0.0,0.0,0.0,0.0,0.0,0.0,4.0498,4.0227,0.0,3.9059,0.0,0.0,0.0,0.0,0.0,4.1322,0.0,0.0,4.8461,5.0559,5.2147,5.2002,5.245,5.3214,5.2459,5.1768,5.0764,4.4333,0.0,0.0,0.0,0.0,0.0,0.0,5.0579,5.4613,5.6852,5.8775,6.0437,6.0884,6.1076,6.1014,5.9189,5.6645,5.3498,5.1409,4.8544,4.4655,4.1365,0.0,0.0,0.0,0.0,0.0,0.0,0.0,0.0,0.0,0.0,0.0,0.0,0.0,0.0,0.0,0.0,0.0,0.0,0.0,0.0,3.3547,0.0,0.0,0.0,0.0,0.0,0.0,0.0,0.0,0.0,0.0,3.6987,3.9434,4.1612,4.2573,0.0,0.0,0.0,0.0,4.5395,4.481,4.4018,4.3276,4.268,4.2365,4.2384,4.2923,0.0,0.0,4.191,4.2287,4.256,4.2366,4.274,4.2398,4.0185,3.9524,3.9424,3.9879,4.023,4.0551,4.0625,4.0979,4.1582,4.6057,0.0,0.0,0.0,0.0,4.3036,4.4082,4.4929,4.4769,4.46,4.4315,4.3469,0.0,0.0,0.0,0.0,0.0,0.0,4.7463,4.9272,5.1233,5.2779,5.3935,5.4292,5.4865,5.5494,5.4854,5.4534,5.4413,5.169,4.852,4.5133,0.0,0.0,0.0,0.0,5.3659,5.6378,5.8152,5.9657,6.0916,6.1042,6.1076,6.1076,5.9638,5.8141,5.6735,5.4346,5.1768,4.9019,4.5412,0.0,0.0,0.0,0.0,0.0,0.0,0.0,0.0,0.0,0.0,0.0,0.0,0.0,0.0,0.0,0.0,0.0,0.0,0.0,3.5954,3.6527,3.6691,0.0,0.0,0.0,0.0,0.0,0.0,0.0,0.0,0.0,4.1085,4.1764,4.2785,0.0,0.0,4.5608,4.608,4.5958,4.5677,4.5326,4.5049,0.0,4.3887,4.3727,4.3665,4.3594,4.4093,4.4619,4.4936,4.5083,4.5208,4.5125,4.5246,4.5225,4.4911,4.3252,4.2066,4.2141,4.2512,4.2986,4.3388,4.3862,4.4443,5.108,4.8459,4.6932,4.6107,4.5957,4.7018,4.7906,4.8656,4.8619,4.8431,4.8136,4.763,4.6634,4.5361,4.5234,0.0,0.0,0.0,5.0953,5.2528,5.3877,5.5181,5.6363,5.6758,5.7423,5.8294,5.7903,5.7729,5.7691,5.7031,5.4986,5.1751,0.0,0.0,5.1499,5.3659,5.5724,5.7653,5.918,6.0391,6.1463,6.1762,6.1762,6.1493,6.0475,5.9404,5.8369,5.6314,5.4135,5.1881,4.8804,4.5521,0.0,0.0,0.0,0.0,0.0,0.0,0.0,0.0,0.0,0.0,0.0,2.6629,2.7923,0.0,0.0,0.0,3.4876,3.7357,3.9508,3.9565,0.0,0.0,0.0,0.0,0.0,0.0,0.0,4.0476,4.1824,4.3028,4.4019,4.4199,4.4512,4.5183,4.5709,4.6086,4.6313,0.0,4.6151,4.6003,4.5886,4.5668,4.5164,4.5085,4.5073,4.5125,4.5849,4.6527,4.6853,4.6954,4.6928,4.6954,4.6954,4.7054,4.735,4.605,4.492,4.4945,4.5196,4.5547,4.5844,4.62,4.6602,5.5098,5.4849,5.2154,5.0559,4.9978,5.1003,5.1545,5.1645,5.2017,5.1864,5.1319,5.1463,5.0792,4.9596,4.976,0.0,5.1462,5.2886,5.4291,5.5687,5.6439,5.7633,5.9159,5.9219,5.9937,6.1164,6.1194,6.0976,6.062,6.059,5.9791,5.8148,5.5457,5.4326,5.4795,5.5902,5.7168,5.8629,5.9958,6.1114,6.218,6.2778,6.2808,6.2181,6.1465,6.0369,5.8899,5.7452,5.5722,5.3608,5.1645,4.8881,4.5167,0.0,0.0,0.0,0.0,0.0,0.0,0.0,0.0,0.0,0.0,0.0,0.0,0.0,0.0,0.0,3.9554,0.0,4.279,4.2551,0.0,0.0,0.0,4.0703,4.0751,4.1411,4.2029,4.2463,0.0,0.0,4.591,4.6544,4.6515,4.5541,4.624,4.6772,4.6557,4.6773,4.6868,4.6995,4.6758,4.6577,4.6657,4.6632,4.6803,4.7274,4.7751,4.8102,4.8234,4.8234,4.8209,4.8234,4.8184,4.8209,4.8209,4.8153,4.8127,4.8046,4.8002,4.7977,4.7996,4.8065,4.829,5.6586,5.6526,5.5817,5.4775,5.3628,5.3663,5.4292,5.5173,5.4649,5.4605,5.493,5.4611,5.4141,5.352,5.3567,5.3749,5.4073,5.572,5.6687,5.7101,5.8567,5.9453,5.9904,6.0386,6.1074,6.1822,6.1852,6.179,6.1725,6.1725,6.1355,6.0609,5.9747,5.8338,5.6478,5.7919,5.9127,6.0015,6.1147,6.2087,6.2838,6.3018,6.3018,6.2868,6.1476,6.0532,6.0149,5.8151,5.652,5.5313,5.344,5.1042,4.8074,4.5566,0.0,0.0,0.0,0.0,0.0,0.0,0.0,0.0,0.0,3.2714,3.4313,0.0,3.8238,0.0,4.2697,4.4653,4.5161,4.5319,0.0,0.0,4.4744,4.471,4.4711,4.4931,4.5289,4.5826,4.6434,4.6918,4.7172,4.8024,4.8471,4.7977,4.7628,4.7668,4.8364,4.837,4.846,4.8781,4.8793,4.8812,4.8761,4.8812,4.8962,4.954,4.9741,4.9967,5.0393,5.0502,5.0469,5.0469,5.0469,5.0502,5.0444,5.0272,5.0024,4.9974,4.9596,4.9243,4.9392,4.9725,4.9975,5.889,5.889,5.8725,5.8178,5.7337,5.6161,5.6071,5.6706,5.6248,5.6406,5.706,5.7071,5.699,5.6787,5.6761,5.6912,5.7273,5.8226,5.8834,5.9138,6.0082,6.0685,6.1014,6.1672,6.2245,6.2728,6.3025,6.3087,6.2941,6.2941,6.2701,6.216,6.1749,6.0615,5.889,5.9714,6.0546,6.1235,6.1945,6.2518,6.2846,6.2731,6.2643,6.2613,6.1193,6.0341,6.0198,5.8467,5.6925,5.5717,5.464,5.2868,5.031,4.8366,4.5954,0.0,0.0,0.0,0.0,0.0,0.0,0.0,0.0,0.0,0.0,0.0,4.2415,4.4632,4.6234,4.7352,4.7863,4.7951,4.7745,4.7184,4.7243,4.727,4.7169,4.7619,4.7948,4.8034,4.8645,4.9013,4.8901,4.9595,5.0093,4.9924,4.9524,4.9368,4.9671,4.9819,5.0024,5.0293,5.0343,5.0343,5.0343,5.0343,5.0444,5.072,5.0795,5.0921,5.1222,5.1306,5.1239,5.1072,5.1014,5.1047,5.1103,5.0983,5.0913,5.1308,5.1173,5.0695,5.0106,5.0221,5.0392,6.1083,6.1055,6.089,6.0777,6.0627,5.8587,5.7647,5.7497,5.7524,5.7909,5.845,5.9045,5.9287,5.923,5.9202,5.9558,6.0096,6.0275,6.0663,6.1203,6.1382,6.177,6.2366,6.2933,6.3355,6.3595,6.4218,6.4364,6.4002,6.409,6.3796,6.3117,6.2617,6.2028,6.1526,6.1455,6.168,6.2097,6.2376,6.2527,6.2527,6.2234,6.2116,6.2057,6.0819,5.9999,5.9682,5.8425,5.7059,5.5647,5.5533,5.4458,5.2082,5.1033,4.9382,0.0,4.476,0.0,0.0,0.0,0.0,0.0,0.0,0.0,0.0,4.4342,4.6778,4.9358,4.9663,4.9967,5.0573,5.0326,4.993,4.9382,4.9285,4.914,4.8795,4.9683,5.0107,4.9539,5.0362,5.0839,5.0527,5.1071,5.1507,5.1473,5.1632,5.1557,5.1122,5.1272,5.1498,5.1657,5.1699,5.1825,5.1833,5.1783,5.1808,5.1783,5.1825,5.1699,5.1757,5.1732,5.1547,5.1243,5.1216,5.1179,5.1206,5.1201,5.1485,5.2294,5.2356,5.194,5.0921,5.0602,5.0602,6.1111,6.117,6.1614,6.1821,6.1791,6.1319,6.0549,5.9572,5.9824,5.9997,6.0116,6.0265,6.0154,5.9899,5.9899,5.9958,6.0135,6.1258,6.1819,6.1938,6.2972,6.3534,6.3652,6.377,6.3858,6.3945,6.4565,6.4595,6.4002,6.4532,6.4474,6.3825,6.3707,6.3589,6.3442,0.0,0.0,0.0,6.2175,6.2204,6.2175,6.2145,6.2116,6.2087,6.0588,0.0,5.9653,5.8227,5.704,5.6258,5.6229,0.0,0.0,0.0,0.0,0.0,0.0,0.0,0.0,0.0,0.0,0.0,4.9022,4.8485,4.7145,4.8852,5.0455,5.1454,5.1765,5.2064,5.2435,5.2188,5.1755,5.1211,5.1231,5.1103,5.0557,5.1053,5.1354,5.096,5.1095,5.1188,5.128,5.1975,5.2569,5.2653,5.3381,5.3893,5.3768,5.3055,5.2955,5.3768,5.3818,5.3919,5.3969,5.3893,5.3733,5.3969,5.3969,5.3778,5.3447,5.3402,5.3311,5.2847,5.2875,5.285,5.2891,5.2665,5.245,5.2694,5.255,5.2345,5.2281,5.228,5.2257,6.2558,0.0,6.2761,6.2848,0.0,6.2638,6.2198,6.1555,6.1408,6.1494,6.179,6.2144,6.2204,6.2028,6.2028,6.2028,6.2057,6.2765,6.3029,6.3059,6.3707,6.4002,6.4002,6.4355,6.4381,6.4257,6.4905,6.5019,6.4539,6.4831,6.4831,6.451,6.4157,6.4011,6.3981,6.372,6.3375,6.3029,6.2909,6.2849,6.2849,6.2376,6.2111,6.2052,6.0705,0.0,0.0,0.0,0.0,0.0,0.0,0.0,0.0,0.0,0.0,5.3859,5.2538,5.1741,5.1741,5.1141,5.1395,5.2859,5.3811,5.3529,5.1693,5.2202,5.2883,5.3608,5.3549,5.3516,5.3738,5.3482,5.3072,5.2581,5.2825,5.2825,5.2439,5.2826,5.3119,5.2973,5.2939,5.2939,5.2939,5.3391,5.3708,5.3758,5.422,5.4723,5.4898,5.426,5.4009,5.4522,5.4597,5.4597,5.4561,5.442,5.4338,5.4277,5.4135,5.3921,5.3742,5.3706,5.3562,5.3202,5.3094,5.3107,5.3218,5.3084,5.301,5.3191,5.3176,5.3066,5.3239,5.2913,5.2514,6.3996,6.3996,6.3895,6.3919,6.4005,6.3727,6.3661,6.3723,0.0,0.0,0.0,6.3705,6.388,6.3819,6.385,6.3819,6.3819,6.3937,6.3996,6.3996,6.4113,6.4231,6.4348,6.4908,6.5075,6.4971,6.5499,6.5603,6.5347,6.5315,6.5347,6.5286,6.4761,6.45,6.4471,6.4009,6.3998,6.4435,6.3867,6.351,6.348,6.2711,6.2267,6.2267,6.1135,6.0526,6.0526,5.9974,5.9335,5.8755,5.8726,5.8436,5.78,5.7081,5.6594,5.648,5.5309,5.4742,5.514,5.4375,5.454,5.608,5.6817,5.6672,5.5355,5.48,5.4764,5.5532,5.5022,5.4719,5.4853,5.4522,5.4103,5.3715,5.4034,5.4148,5.3919,5.4295,5.4496,5.4597,5.4496,5.4597,5.4496,5.4622,5.4748,5.4748,5.4873,5.5028,5.5393,5.5204,5.4863,5.4974,5.5049,5.4913,5.4781,5.4741,5.4414,5.4455,5.4215,5.3947,5.3875,5.3863,5.3692,5.3497,5.3266,5.3422,5.3501,5.3595,5.363,5.4015,5.4087,5.4111,5.4015,5.3365,5.2777,6.4018,6.4016,6.4597,6.5089,6.558,6.5519,6.5838,6.619,6.4239,6.3459,6.3547,6.3604,6.351,6.3235,6.3235,6.3235,6.3264,6.3786,6.3987,6.4016,6.4571,6.5124,6.5615,6.5702,6.6051,6.6545,6.6662,6.6687,6.6654,6.6593,6.6622,6.6593,6.6535,6.6476,6.6476,6.6389,6.6425,6.6465,6.4278,6.3171,6.3171,6.3024,6.2964,6.2935,6.2238,6.1832,6.1803,6.1251,6.0724,6.0309,6.0279,6.01,5.9742,5.9537,5.9357,5.9113,5.8852,5.852,5.7961,5.7533,5.737,5.7563,5.7695,5.7449,5.6831,5.6387,5.6278,5.6596,5.6027,5.5793,5.5882,5.5347,5.4946,5.4863,5.4658,5.4532,5.4572,5.4622,5.4723,5.4723,5.4597,5.4647,5.4748,5.5049,5.5265,5.534,5.558,5.5997,5.6115,5.6124,5.5981,5.5968,5.5993,5.5822,5.558,5.5843,5.5732,5.5583,5.5741,5.5699,5.5397,5.5359,5.5245,5.5033,5.4826,5.4909,5.4952,5.5073,5.4977,5.5049,5.5049,5.5073,5.5049,5.4544,5.4039,6.5577,6.5606,6.5896,6.6186,6.6447,6.6447,6.6593,6.68,6.5854,6.5394,6.5394,6.5394,6.5301,6.5173,6.5141,6.5173,6.517,6.546,6.5577,6.5606,6.5867,6.6157,6.6418,6.6447,6.6593,6.6883,6.6883,6.6883,6.6883,6.6883,6.6883,6.6883,6.6883,6.6883,6.6883,6.6883,6.6883,6.6854,6.5751,6.5173,6.5141,6.4822,6.4619,6.4619,6.369,6.3045,6.2858,6.228,6.178,6.1351,6.1194,6.1007,6.0879,6.0536,6.0129,5.9811,5.9615,5.9294,5.8716,5.8493,5.8194,5.7754,5.7797,5.7912,5.7993,5.7134,5.66,5.6524,5.6234,5.6055,5.6012,5.5735,5.5705,5.6085,5.599,5.6043,5.6269,5.6068,5.5892,5.5867,5.5641,5.5465,5.5465,5.5691,5.5842,5.5892,5.6136,5.6352,5.6498,5.645,5.6427,5.6427,5.6389,5.6352,5.6189,5.6136,5.6118,5.5915,5.5933,5.5887,5.568,5.5704,5.5627,5.5448,5.5409,5.5385,5.5409,5.5385,5.5385,5.5385,5.5385,5.5385,5.5337,5.4977,5.4447,6.6883,6.6883,6.6883,6.697,6.7115,6.726,6.7318,6.7318,6.7318,6.7318,6.7289,6.7061,6.6883,6.6883,6.6883,6.6883,6.6883,6.6883,6.6883,6.6883,6.6883,6.6974,6.7148,6.7115,6.7173,6.7289,6.7318,6.7318,6.7318,6.7318,6.7318,6.7318,6.7318,6.7318,6.7351,6.7252,6.7219,6.7186,6.7153,6.6975,6.6784,6.6259,6.5994,6.581,6.491,6.4265,6.4009,6.3482,6.3,6.2619,6.2199,6.1907,6.1809,6.1285,6.0695,6.0234,5.996,5.9616,5.9107,5.8854,5.8526,5.7962,5.7985,5.8233,5.8543,5.7629,5.6925,5.6714,5.6756,5.6626,5.6471,5.6403,5.6586,5.7123,5.7211,5.7286,5.775,5.7361,5.701,5.6935,5.6545,5.6194,5.6219,5.6219,5.6207,5.6236,5.6352,5.6485,5.6636,5.6644,5.663,5.6665,5.6644,5.6538,5.651,5.634,5.6158,5.6091,5.5955,5.592,5.5905,5.5794,5.5794,5.5842,5.5818,5.5866,5.5794,5.5794,5.5842,5.5866,5.589,5.5794,5.565,5.5361,5.476,6.6912,6.6883,6.6941,6.7264,6.7812,6.8363,6.8562,6.8562,6.8591,6.862,6.8446,6.7405,6.6941,6.6883,6.6941,6.697,6.6941,6.6883,6.6941,6.6941,6.6883,6.7202,6.7787,6.7816,6.8102,6.8504,6.8562,6.8504,6.8504,6.8533,6.8591,6.862,6.862,6.8562,6.8557,6.8287,6.8146,6.8146,6.781,6.7236,6.6508,6.6392,6.6169,6.5803,6.5688,6.5631,6.5446,6.5207,6.4781,6.4437,6.361,6.3122,6.281,6.2392,6.1858,6.1158,6.1078,6.0702,5.9638,5.9194,5.8911,5.8877,5.8493,5.8372,5.8411,5.8061,5.7948,5.8095,5.8132,5.7908,5.7762,5.7649,5.7649,5.7788,5.7826,5.7851,5.7851,5.7361,5.701,5.6985,5.6508,5.6219,5.6182,5.6146,5.6199,5.6303,5.6436,5.656,5.6775,5.678,5.6809,5.687,5.677,5.648,5.6273,5.6488,5.6537,5.6297,5.6579,5.6684,5.6684,5.6732,5.6852,5.6564,5.6732,5.6708,5.6756,5.6876,5.6804,5.6636,5.6636,5.6684,5.626,5.5956,5.5524,6.8044,6.8015,6.8044,6.8189,6.845,6.8707,6.8794,6.8794,6.8794,6.8794,6.8736,6.8214,6.7982,6.8044,6.8044,6.8015,6.8044,6.8044,6.8015,6.8044,6.8044,6.8189,6.8421,6.845,6.8596,6.8794,6.8794,6.8794,6.876,6.862,6.8387,6.8187,6.8153,6.8153,6.8153,6.8016,6.7845,6.7604,6.7437,6.6939,6.6308,6.6566,6.6737,6.6538,6.602,6.5555,6.5315,6.4601,6.4027,6.3647,6.2739,6.2138,6.1996,6.1425,6.0786,6.0331,6.0076,5.9636,5.8934,5.8748,5.8588,5.8389,5.8202,5.8227,5.8555,5.8454,5.858,5.8895,5.8479,5.8026,5.7964,5.7901,5.8027,5.8303,5.8378,5.8378,5.834,5.7876,5.7449,5.7035,5.6287,5.5852,5.5816,5.5632,5.5708,5.6022,5.6221,5.643,5.6807,5.6921,5.6939,5.698,5.6888,5.6812,5.6646,5.6713,5.6818,5.6772,5.6837,5.7021,5.7021,5.7021,5.7021,5.7021,5.7021,5.7021,5.6973,5.7021,5.7021,5.6981,5.6981,5.6869,5.6375,5.6049,5.554,6.8794,6.8794,6.8794,6.8794,6.8794,6.8794,6.8794,6.8794,6.8794,6.8794,6.8794,6.8794,6.8794,6.8794,6.8794,6.8794,6.8794,6.8794,6.8794,6.8794,6.8794,6.8794,6.8794,6.8794,6.8794,6.8794,6.8794,6.876,6.8625,6.8319,6.7913,6.7575,6.7541,6.7472,6.7368,6.7299,6.7056,6.6644,6.6567,6.618,6.5621,6.5834,6.6152,6.637,6.5698,6.5124,6.4878,6.3935,6.33,6.3016,6.1905,6.1314,6.1278,6.0629,6.0113,5.9742,5.9357,5.902,5.8719,5.8681,5.8631,5.8366,5.8328,5.8504,5.883,5.893,5.9106,5.9332,5.878,5.8378,5.8328,5.8353,5.8504,5.888,5.893,5.8867,5.8704,5.8152,5.7462,5.6874,5.5992,5.5448,5.5399,5.5386,5.5575,5.5957,5.6202,5.6371,5.6884,5.6997,5.7021,5.7021,5.7021,5.6997,5.7021,5.6973,5.7021,5.7021,5.7021,5.7021,5.7021,5.7021,5.7021,5.7021,5.7021,5.6901,5.6782,5.6782,5.6742,5.6678,5.6598,5.6438,5.599,5.5642,5.5167,6.8794,6.8794,6.8794,6.8794,6.8794,6.8794,6.8794,6.8794,6.8794,6.8794,6.8794,6.8794,6.8794,6.8794,6.8794,6.8794,6.8794,6.8794,6.8794,6.8794,6.8794,6.8794,6.8794,6.8794,6.8794,6.876,6.876,6.8591,6.8279,6.7879,6.7541,6.7125,6.6993,6.6916,6.6567,6.6243,6.5862,6.5443,6.5157,6.4789,6.4346,6.3663,6.3919,6.4753,6.4545,6.4274,6.4192,6.3546,6.3078,6.3042,6.1913,6.1264,6.1226,6.0874,6.0431,6.0049,5.9691,5.946,5.9434,5.9409,5.9371,5.9382,5.9307,5.9408,5.9382,5.9382,5.9408,5.9483,5.9382,5.9307,5.9307,5.9232,5.9307,5.9382,5.9433,5.9168,5.8716,5.7898,5.7124,5.6514,5.5707,5.5225,5.5127,5.5597,5.5807,5.6091,5.6511,5.69,5.6949,5.7021,5.7021,5.7021,5.7021,5.7021,5.7021,5.7021,5.7021,5.7021,5.7021,5.6981,5.6981,5.7021,5.6981,5.6941,5.6821,5.6662,5.6526,5.6301,5.6141,5.5997,5.5836,5.5594,5.5067,5.5108,5.4575,6.8794,6.8794,6.8794,6.8794,6.8794,6.8794,6.8794,6.8794,6.8794,6.8794,6.8794,6.8794,6.8794,6.8794,6.8794,6.8794,6.8794,6.8794,6.8794,6.8794,6.8794,6.8794,6.8794,6.8794,6.8659,6.8489,6.8455,6.8045,6.7223,6.684,6.6286,6.572,6.5435,6.522,6.5113,6.4969,6.4609,6.3992,6.3809,6.3443,6.2815,6.222,6.2183,6.2566,6.2741,6.2741,6.2741,6.2257,6.1958,6.1958,6.1053,6.052,6.0482,6.0138,5.9894,5.974,5.9585,5.9508,5.9508,5.9508,5.9508,5.9508,5.9508,5.9508,5.9508,5.9508,5.9508,5.9508,5.9508,5.9508,5.9508,5.9508,5.9508,5.9508,5.9251,5.8896,5.837,5.774,5.715,5.6581,5.5982,5.5543,5.5328,5.5476,5.5723,5.6046,5.6339,5.666,5.6909,5.7021,5.7021,5.7021,5.7021,5.7021,5.7021,5.7021,5.7021,5.7021,5.6981,5.6782,5.6742,5.6622,5.6582,5.6238,5.6238,5.6077,5.5755,5.5392,5.527,5.5149,5.4963,5.4393,5.3966,5.3779,5.3236,6.8794,6.8794,6.8794,6.8794,6.8794,6.8794,6.8794,6.8794,6.8794,6.8794,6.8794,6.8794,6.8794,6.8794,6.8794,6.8726,6.8659,6.8726,6.8726,6.8625,6.8625,6.8557,6.846,6.8426,6.8324,6.8079,6.7839,6.7188,6.6286,6.5826,6.5185,6.4319,6.4028,6.3736,6.3553,6.3516,6.3148,6.263,6.2518,6.2183,6.1545,6.1129,6.0901,6.0939,6.1053,6.128,6.1469,6.1129,6.0901,6.0825,6.0253,5.9932,5.9894,5.9637,5.9508,5.9508,5.9508,5.9508,5.9508,5.9508,5.9508,5.9508,5.9508,5.9508,5.9508,5.9508,5.9508,5.9508,5.9367,5.9289,5.9276,5.9198,5.9159,5.9237,5.9056,5.8624,5.796,5.7489,5.691,5.6277,5.5939,5.5631,5.5511,5.5554,5.5818,5.6164,5.6308,5.662,5.6885,5.7021,5.7021,5.7021,5.7021,5.6901,5.6821,5.6702,5.6702,5.6702,5.6662,5.6542,5.6261,5.6141,5.594,5.5634,5.5368,5.5247,5.4963,5.4515,5.427,5.4107,5.3655,5.3056,5.2664,5.229,5.1723,6.8794,6.8794,6.8794,6.8794,6.8794,6.8794,6.8794,6.8794,6.8794,6.8794,6.8794,6.8794,6.876,6.876,6.8726,6.8591,6.8353,6.8523,6.8489,6.8313,6.8313,6.8079,6.7747,6.7747,6.7644,6.7472,6.691,6.6145,6.53,6.4897,6.4174,6.3259,6.3001,6.263,6.1921,6.1996,6.177,6.1431,6.1356,6.1129,6.0698,6.0355,6.0138,6.0099,5.983,5.9984,6.066,6.0355,6.0163,6.0125,5.9778,5.9547,5.956,5.9508,5.9508,5.9508,5.9508,5.9508,5.9508,5.9508,5.9508,5.9508,5.9508,5.9508,5.9508,5.9469,5.9469,5.9367,5.917,5.8975,5.8922,5.8723,5.8659,5.8809,5.8809,5.8352,5.7647,5.7062,5.6479,5.5844,5.5655,5.5496,5.5554,5.5914,5.6236,5.6356,5.662,5.6949,5.6997,5.7021,5.7021,5.6941,5.6861,5.6742,5.6542,5.6365,5.6342,5.6301,5.6261,5.6141,5.5634,5.5392,5.4946,5.4597,5.427,5.4084,5.3509,5.3056,5.2517,5.229,5.1892,5.1621,5.1096,5.0696,5.0316,6.8794,6.8794,6.8794,6.8794,6.8794,6.8794,6.8794,6.8794,6.8794,6.8794,6.8794,6.8794,6.8692,6.8518,6.8484,6.825,6.7879,6.7742,6.7742,6.7845,6.7879,6.761,6.7333,6.7264,6.6853,6.6152,6.5649,6.4861,6.3955,6.348,6.2752,6.1996,6.1582,6.1344,6.1117,6.1079,6.0889,6.052,6.0508,6.0253,5.9907,5.9778,5.9701,5.9663,5.956,5.9663,5.983,5.9778,5.9701,5.9701,5.956,5.9508,5.9508,5.9508,5.9508,5.9508,5.9508,5.9508,5.9508,5.9508,5.9508,5.9483,5.9483,5.9508,5.9469,5.9237,5.912,5.9131,5.9053,5.9024,5.9059,5.9275,5.9048,5.858,5.8183,5.7986,5.7643,5.7215,5.6842,5.6603,5.6516,5.6516,5.6516,5.6668,5.6668,5.6692,5.6861,5.7021,5.6981,5.6941,5.6861,5.6662,5.6582,5.6382,5.598,5.5513,5.523,5.5189,5.523,5.5189,5.4824,5.4311,5.3902,5.3431,5.3101,5.2667,5.2125,5.1688,5.1206,5.0719,5.0485,5.0018,4.9444,4.9185,4.9094,6.9519,6.949,6.949,6.9422,6.9285,6.9285,6.9216,6.9113,6.9113,6.9079,6.905,6.8819,6.863,6.8366,6.8028,6.7638,6.7229,6.6714,6.6539,6.6707,6.6784,6.6609,6.6258,6.6145,6.555,6.469,6.4319,6.3626,6.2481,6.2156,6.1658,6.0939,6.0597,6.0431,6.0278,6.024,6.0125,5.9907,5.9894,5.974,5.9585,5.9508,5.9508,5.9508,5.9508,5.9508,5.9508,5.9508,5.9508,5.9508,5.9508,5.9508,5.9508,5.9508,5.9508,5.9508,5.9508,5.9508,5.9508,5.9508,5.9508,5.9483,5.9367,5.9276,5.9198,5.8926,5.8741,5.896,5.8876,5.8891,5.9112,5.9195,5.9057,5.8521,5.8368,5.8119,5.7999,5.7759,5.7478,5.7341,5.7285,5.7173,5.7069,5.7021,5.7021,5.7021,5.7021,5.6901,5.6861,5.6742,5.6502,5.6221,5.5956,5.5634,5.5247,5.4719,5.4171,5.4048,5.4007,5.3925,5.3614,5.3097,5.26,5.1918,5.15,5.106,5.0549,5.0503,5.0177,4.9685,4.9386,4.9248,4.9066,4.8699,4.8581,7.061,7.0645,7.0645,7.0286,7.0006,6.9971,6.9802,6.9606,6.9542,6.9514,6.9364,6.8907,6.8609,6.8326,6.76,6.7024,6.6475,6.5688,6.5168,6.4997,6.4978,6.4906,6.4789,6.4428,6.3809,6.3148,6.3001,6.2369,6.133,6.128,6.0863,6.0201,6.0061,5.9907,5.9701,5.9521,5.9585,5.9585,5.9521,5.9521,5.9508,5.9508,5.9508,5.9508,5.9508,5.9508,5.9508,5.9508,5.9508,5.9508,5.9508,5.9508,5.9508,5.9508,5.9508,5.9508,5.9508,5.9508,5.9508,5.9431,5.9431,5.9392,5.9081,5.8887,5.8809,5.862,5.8541,5.887,5.8756,5.8718,5.9066,5.9104,5.8875,5.8786,5.8879,5.8806,5.8642,5.8512,5.8247,5.7935,5.7814,5.767,5.7237,5.7141,5.7117,5.6981,5.6941,5.6742,5.6542,5.6342,5.6101,5.5674,5.5189,5.4638,5.4148,5.318,5.2622,5.2456,5.2373,5.2145,5.2211,5.1751,5.1142,5.0464,5.0162,4.9616,4.9369,4.9466,4.9389,4.9084,4.8924,4.8924,4.8726,4.8344,4.8191,6.9875,6.9875,6.9875,6.984,6.9734,6.9734,6.9692,6.9621,6.9614,6.9359,6.9138,6.8968,6.8491,6.7961,6.7396,6.6757,6.5891,6.4897,6.4076,6.3496,6.2678,6.2937,6.3296,6.2852,6.2295,6.1872,6.1886,6.1292,6.0444,6.0546,6.0214,5.9676,5.9777,5.9674,5.9508,5.9533,5.9508,5.9508,5.9508,5.9508,5.9508,5.9508,5.9508,5.9508,5.9508,5.9508,5.9508,5.9508,5.9508,5.9508,5.9508,5.9508,5.9508,5.9508,5.9508,5.9508,5.9483,5.9483,5.9405,5.9237,5.9081,5.9043,5.8702,5.8443,5.8467,5.8417,5.8423,5.866,5.8822,5.9157,5.9374,5.9581,5.9732,5.9708,5.9278,5.8844,5.8721,5.8584,5.8536,5.8416,5.8392,5.8127,5.7766,5.755,5.7389,5.7085,5.6766,5.6462,5.6141,5.5577,5.5149,5.4661,5.4107,5.3532,5.283,5.1789,5.1076,5.0759,5.0506,5.0125,5.0251,5.025,4.9602,4.8946,4.9314,4.9073,4.8917,4.8929,4.8697,4.8673,4.8454,4.8424,4.8151,4.7808,4.7892,7.0285,7.0141,7.0141,6.9961,6.9636,6.9463,6.9309,6.9099,6.8953,6.8769,6.853,6.8206,6.7838,6.7368,6.6565,6.5921,6.5224,6.4137,6.3422,6.2959,6.2095,6.1848,6.2017,6.1752,6.1554,6.1236,6.1403,6.1184,6.0705,6.0562,6.0445,6.0314,6.0211,6.0211,6.0236,5.9935,5.9834,5.9809,5.9633,5.9508,5.9508,5.9508,5.9508,5.9508,5.9508,5.9508,5.9508,5.9508,5.9508,5.9508,5.9508,5.9508,5.9508,5.9508,5.9508,5.9508,5.9328,5.9251,5.9198,5.8887,5.8653,5.8649,5.8418,5.8393,5.8372,5.8442,5.8516,5.8862,5.9189,5.9467,5.9714,6.0045,6.0189,6.0093,5.9618,5.9257,5.9257,5.9305,5.9137,5.9017,5.8897,5.8728,5.8223,5.7983,5.7573,5.7125,5.646,5.5987,5.5473,5.4783,5.4089,5.3491,5.2769,5.2042,5.1543,5.0656,5.0057,4.9736,4.9469,4.8928,4.8972,4.9156,4.8838,4.8486,4.8603,4.8663,4.8618,4.8672,4.8748,4.8646,4.8216,4.8131,4.8092,4.793,4.8014,7.0959,7.0563,7.0563,7.0193,6.9466,6.9119,6.8679,6.8334,6.8024,6.7794,6.756,6.7078,6.6823,6.6682,6.5582,6.4789,6.4645,6.3531,6.2949,6.2495,6.1949,6.1475,6.1147,6.1428,6.1349,6.1153,6.1517,6.1435,6.1148,6.1104,6.1155,6.1014,6.1065,6.114,6.0914,6.0613,6.0437,6.0311,5.991,5.9709,5.9633,5.9583,5.9508,5.9508,5.9508,5.9508,5.9508,5.9508,5.9508,5.9508,5.9508,5.9508,5.9508,5.9508,5.9431,5.9378,5.9117,5.8997,5.8919,5.8728,5.8477,5.8496,5.8496,5.8451,5.8467,5.8612,5.8906,5.922,5.9443,5.9756,6.0045,6.0213,6.0213,6.0189,6.0141,6.0189,6.0213,6.0213,5.9979,5.957,5.9474,5.9209,5.8752,5.8166,5.7644,5.6871,5.6061,5.505,5.427,5.3367,5.2747,5.2248,5.1371,5.0422,5.0015,4.9557,4.9202,4.8864,4.8743,4.8468,4.8462,4.8537,4.841,4.8359,4.8565,4.8632,4.8555,4.8614,4.8764,4.8803,4.8561,4.8679,4.8796,4.86,4.8542,6.892,6.8541,6.8541,6.8465,6.8274,6.8198,6.7865,6.7453,6.7349,6.6873,6.6458,6.6234,6.5986,6.5686,6.4992,6.4534,6.4039,6.3122,6.2349,6.1587,6.1468,6.1313,6.1115,6.1331,6.1292,6.1223,6.1274,6.1295,6.1215,6.1316,6.119,6.124,6.1341,6.1215,6.1215,6.114,6.0989,6.0914,6.0437,6.0161,6.006,5.9784,5.9583,5.9558,5.9508,5.9508,5.9508,5.9508,5.9508,5.9508,5.9494,5.9481,5.9392,5.9223,5.9092,5.9075,5.9098,5.9044,5.9014,5.8965,5.8992,5.8903,5.8701,5.8562,5.8586,5.9003,5.9233,5.9474,5.9738,6.0045,6.0189,6.0213,6.0213,6.0213,6.0213,6.0213,6.0213,6.0213,6.0141,6.0069,5.9997,5.9786,5.9216,5.8341,5.7601,5.666,5.5445,5.4134,5.3059,5.2022,5.1457,5.1015,5.0291,4.9469,4.9353,4.903,4.8808,4.8588,4.8477,4.8384,4.8382,4.8342,4.839,4.8496,4.8594,4.86,4.8574,4.8698,4.8901,4.8874,4.8894,4.8894,4.8894,4.8894,4.8894,6.7646,6.7288,6.7094,6.69,6.6706,6.6472,6.6276,6.6015,6.5818,6.5503,6.5173,6.5093,6.4974,6.4761,6.4335,6.3929,6.3615,6.3017,6.2462,6.2059,6.1969,6.1969,6.1969,6.1918,6.1868,6.1667,6.1868,6.1943,6.1943,6.1918,6.2019,6.1969,6.1918,6.2019,6.1868,6.1692,6.1567,6.1466,6.1014,6.0713,6.0638,6.0462,6.0085,5.9859,5.9659,5.9508,5.9508,5.9314,5.9387,5.9459,5.9441,5.9292,5.922,5.9096,5.8985,5.9029,5.9091,5.916,5.9146,5.8985,5.8886,5.8935,5.8923,5.8986,5.9089,5.945,5.978,5.9852,6.0045,6.0213,6.0213,6.0213,6.0213,6.0213,6.0213,6.0213,6.0213,6.0213,6.0213,6.0213,6.0189,5.9901,5.9356,5.8397,5.7368,5.635,5.4569,5.3273,5.2056,5.1082,5.0356,4.9794,4.9191,4.8735,4.8703,4.8588,4.8537,4.8527,4.8672,4.8633,4.864,4.8594,4.8542,4.8659,4.8737,4.8796,4.8815,4.8894,4.8894,4.8894,4.8894,4.8894,4.8894,4.8894,4.8894,6.6575,6.6211,6.5858,6.5489,6.5199,6.4815,6.4655,6.4495,6.416,6.4119,6.3878,6.3878,6.3918,6.3863,6.3595,6.3392,6.3286,6.3082,6.2647,6.2647,6.2621,6.2606,6.2631,6.2621,6.2496,6.222,6.2496,6.2656,6.2681,6.2781,6.2621,6.2772,6.2772,6.2647,6.2647,6.2395,6.2119,6.2069,6.1592,6.1291,6.124,6.1165,6.0814,6.0462,6.0018,5.9754,5.9676,5.9427,5.9305,5.9648,5.9339,5.9069,5.9015,5.9059,5.91,5.9125,5.9187,5.9252,5.9243,5.9095,5.8986,5.8848,5.9233,5.9474,5.9618,5.9876,6.0069,6.0165,6.0213,6.0213,6.0213,6.0213,6.0213,6.0213,6.0213,6.0213,6.0213,6.0213,6.0213,6.0171,6.0045,5.9763,5.9067,5.8188,5.7098,5.5847,5.4018,5.2428,5.1252,5.0216,4.952,4.9118,4.8671,4.8668,4.8672,4.8667,4.8542,4.8588,4.8796,4.8815,4.8835,4.8796,4.8737,4.8815,4.8874,4.8894,4.8894,4.8894,4.8894,4.8894,4.8894,4.8894,4.8894,4.8894,4.8894,6.4894,6.4521,6.4441,6.436,6.432,6.42,6.3999,6.3716,6.3635,6.3352,6.3067,6.3026,6.3067,6.3026,6.2985,6.2945,6.2945,6.2822,6.2781,6.2781,6.2781,6.2781,6.2781,6.2822,6.2747,6.2747,6.2756,6.2781,6.2781,6.2781,6.2781,6.2781,6.2781,6.2781,6.2756,6.2681,6.2621,6.2521,6.2119,6.1868,6.1793,6.1426,6.1176,6.0895,6.0432,6.0199,6.0154,5.9884,5.9703,5.9736,5.9398,5.9203,5.9219,5.9236,5.922,5.9212,5.9355,5.9464,5.9447,5.9701,5.9876,5.9972,5.9972,6.0045,6.0069,6.0141,6.0213,6.0213,6.0213,6.0213,6.0213,6.0213,6.0213,6.0213,6.0213,6.0213,6.0213,6.0171,6.0129,6.0087,5.9835,5.9346,5.8545,5.7573,5.6298,5.4866,5.3126,5.1719,5.0543,4.9596,4.8799,4.8514,4.8348,4.8535,4.8751,4.8797,4.8776,4.8737,4.8855,4.8855,4.8874,4.8894,4.8894,4.8894,4.8894,4.8894,4.8894,4.8894,4.8894,4.8894,4.8894,4.8894,4.8894,4.8894,4.8894,6.3958,6.3757,6.3554,6.3433,6.3433,6.3433,6.3311,6.3148,6.3108,6.3026,6.2863,6.2781,6.2781,6.2781,6.2781,6.2781,6.2781,6.2781,6.2781,6.2781,6.2781,6.2781,6.2781,6.2781,6.2781,6.2781,6.2781,6.2781,6.2781,6.2781,6.2781,6.2781,6.2781,6.2781,6.2781,6.2781,6.2781,6.2747,6.2571,6.238,6.233,6.1692,6.1296,6.1101,6.0555,6.0206,6.0085,5.9722,5.9667,5.974,5.9527,5.9467,5.9636,5.9684,5.9612,5.945,5.9598,5.9828,5.9828,6.0075,6.0165,6.0189,6.0213,6.0213,6.0213,6.0213,6.0213,6.0213,6.0213,6.0213,6.0213,6.0213,6.0213,6.0213,6.0213,6.0213,6.0129,5.9961,5.9877,5.9768,5.9515,5.8922,5.796,5.6875,5.5461,5.3909,5.218,5.0993,4.9932,4.9217,4.8497,4.8435,4.8385,4.8614,4.8835,4.8874,4.8894,4.8894,4.8894,4.8894,4.8894,4.8894,4.8894,4.8894,4.8894,4.8894,4.8894,4.8894,4.8894,4.8894,4.8894,4.8894,4.8894,4.8894,4.8894,6.3352,6.3311,6.2945,6.2781,6.2781,6.2822,6.2822,6.2781,6.2822,6.2822,6.2781,6.2781,6.2781,6.2781,6.2781,6.2781,6.2781,6.2781,6.2781,6.2781,6.2781,6.2781,6.2781,6.2781,6.2781,6.2781,6.2781,6.2781,6.2781,6.2781,6.2781,6.2781,6.2781,6.2781,6.2781,6.2781,6.2781,6.2781,6.2781,6.2781,6.2493,6.1948,6.1414,6.1292,6.0465,6.0049,6.0082,5.978,5.9745,5.984,5.9819,5.978,6.0117,6.0213,6.0021,5.969,5.9979,6.0165,6.0213,6.0147,6.0213,6.0213,6.0213,6.0213,6.0213,6.0213,6.0213,6.0213,6.0213,6.0213,6.0213,6.0213,6.0213,6.0213,6.0213,6.0129,5.9961,5.9708,5.9261,5.9177,5.9092,5.8302,5.7142,5.5729,5.4279,5.3106,5.1425,5.0642,4.9658,4.925,4.8724,4.8601,4.8581,4.8737,4.8894,4.8874,4.8894,4.8894,4.8894,4.8894,4.8894,4.8894,4.8894,4.8894,4.8894,4.8894,4.8894,4.8894,4.8894,4.8894,4.8894,4.8894,4.8894,4.8894,4.8894,6.2863,6.2863,6.2822,6.2781,6.2781,6.2781,6.2781,6.2781,6.2781,6.2781,6.2781,6.2781,6.2781,6.2781,6.2781,6.2781,6.2781,6.2781,6.2781,6.2781,6.2781,6.2781,6.2781,6.2781,6.2781,6.2781,6.2781,6.2781,6.2781,6.2781,6.2781,6.2781,6.2781,6.2781,6.2781,6.2781,6.2781,6.2781,6.2781,6.2618,6.2306,6.2067,6.1755,6.1375,6.0888,6.0542,6.0452,6.0161,6.0074,6.0104,6.0135,6.0141,6.0213,6.0213,6.0213,6.0141,6.0189,6.0213,6.0213,6.0213,6.0213,6.0213,6.0213,6.0213,6.0213,6.0213,6.0213,6.0213,6.0213,6.0129,6.0129,6.0171,6.0171,6.0087,6.0003,5.9792,5.9624,5.9049,5.8667,5.7897,5.753,5.6882,5.5926,5.452,5.3098,5.193,5.0889,5.0099,4.9511,4.9085,4.8862,4.8764,4.8718,4.8855,4.8894,4.8894,4.8894,4.8894,4.8894,4.8894,4.8894,4.8894,4.8894,4.8894,4.8894,4.8821,4.8729,4.8729,4.8848,4.8775,4.859,4.8729,4.8894,4.8848,4.8663,6.2781,6.2781,6.2781,6.2781,6.2781,6.2781,6.2781,6.2781,6.2781,6.2781,6.2781,6.2781,6.2781,6.2781,6.2781,6.2781,6.2781,6.2781,6.2781,6.2781,6.2781,6.2781,6.2781,6.2781,6.2781,6.2781,6.2781,6.2781,6.2781,6.2781,6.2781,6.2781,6.2781,6.2781,6.2781,6.2781,6.2781,6.2741,6.2577,6.2372,6.2125,6.1713,6.1299,6.1091,6.0674,6.0507,6.0423,6.0339,6.0213,6.0213,6.0213,6.0213,6.0213,6.0213,6.0213,6.0213,6.0213,6.0213,6.0213,6.0213,6.0213,6.0213,6.0213,6.0213,6.0213,6.0213,6.0213,6.0213,6.0213,6.0087,5.9877,5.9835,5.9624,5.9539,5.9497,5.9092,5.8752,5.8368,5.7811,5.6862,5.5926,5.5225,5.452,5.341,5.2246,5.1388,5.0454,4.9748,4.9315,4.9019,4.8881,4.8855,4.8855,4.8894,4.8894,4.8894,4.8894,4.8894,4.8894,4.8894,4.8894,4.8894,4.8801,4.8821,4.8867,4.8729,4.8544,4.8451,4.8451,4.8358,4.8219,4.8266,4.8266,4.808,4.7941,6.2781,6.2781,6.2781,6.2781,6.2781,6.2781,6.2781,6.2781,6.2781,6.2781,6.2781,6.2781,6.2781,6.2781,6.2781,6.2781,6.2781,6.2781,6.2781,6.2781,6.2781,6.2781,6.2781,6.2781,6.2781,6.2781,6.2781,6.2781,6.2781,6.2781,6.2781,6.2781,6.2781,6.2781,6.2781,6.2781,6.2781,6.2577,6.2208,6.1961,6.1713,6.1174,6.0841,6.059,6.0381,6.0213,6.0213,6.0213,6.0213,6.0213,6.0213,6.0213,6.0213,6.0213,6.0213,6.0213,6.0213,6.0213,6.0213,6.0213,6.0213,6.0213,6.0213,6.0213,6.0213,6.0213,6.0087,6.0003,6.0003,5.975,5.9454,5.9327,5.9115,5.886,5.869,5.8197,5.7702,5.7228,5.6449,5.5269,5.4343,5.3544,5.2829,5.2111,5.1363,5.0727,4.9997,4.9374,4.9098,4.8959,4.8913,4.8894,4.8894,4.8894,4.8894,4.8894,4.8894,4.8801,4.8801,4.8729,4.8636,4.859,4.8497,4.8544,4.8636,4.8358,4.7941,4.7987,4.8034,4.7941,4.7801,4.7634,4.7495,4.7355,4.7355,6.2781,6.2781,6.2781,6.2781,6.2781,6.2781,6.2781,6.2781,6.2781,6.2781,6.2781,6.2781,6.2781,6.2781,6.2781,6.2781,6.2781,6.2781,6.2781,6.2781,6.2781,6.2781,6.2781,6.2781,6.2781,6.2781,6.2781,6.2781,6.2781,6.2781,6.2781,6.2781,6.2781,6.2781,6.27,6.2618,6.2454,6.2208,6.1796,6.1382,6.1133,6.0799,6.0632,6.0339,6.0255,6.0213,6.0213,6.0213,6.0213,6.0213,6.0213,6.0213,6.0213,6.0213,6.0213,6.0213,6.0213,6.0213,6.0213,6.0213,6.0213,6.0213,6.0213,6.0171,6.0087,6.0171,6.0003,5.96,5.9473,5.9219,5.8946,5.8775,5.8282,5.7854,5.7401,5.6926,5.6449,5.6057,5.5181,5.3767,5.2829,5.2201,5.159,5.0955,5.0727,5.0134,4.9722,4.9052,4.9052,4.8894,4.8894,4.8894,4.8894,4.8894,4.8894,4.8848,4.8663,4.859,4.8544,4.8358,4.8173,4.8127,4.808,4.7941,4.7894,4.7662,4.7476,4.7522,4.7569,4.7476,4.7336,4.7075,4.7028,4.6981,4.7075,6.2781,6.2781,6.2781,6.2781,6.2781,6.2781,6.2781,6.2781,6.2781,6.2781,6.2781,6.2781,6.2781,6.2781,6.2781,6.2781,6.2781,6.2781,6.2781,6.2781,6.2781,6.2781,6.2781,6.2781,6.2781,6.2781,6.2781,6.2781,6.2781,6.2781,6.2618,6.2577,6.2618,6.2577,6.2495,6.2167,6.1919,6.1713,6.134,6.0966,6.0841,6.0548,6.0339,6.0255,6.0213,6.0213,6.0213,6.0213,6.0213,6.0213,6.0213,6.0213,6.0213,6.0213,6.0213,6.0213,6.0213,6.0213,6.0213,6.0213,6.0213,6.0213,6.0171,6.0087,5.9853,5.9768,5.9539,5.92,5.8752,5.8368,5.8006,5.7424,5.6796,5.6449,5.6057,5.5576,5.5005,5.4543,5.3856,5.2471,5.1795,5.1207,5.0545,4.9905,4.9787,4.9604,4.9216,4.8894,4.8894,4.8894,4.8894,4.8801,4.8801,4.8775,4.8775,4.8636,4.8405,4.8312,4.8219,4.7987,4.7774,4.7681,4.7634,4.7448,4.7261,4.7149,4.7102,4.7102,4.7056,4.6962,4.6728,4.64,4.6466,4.6606,4.6653,6.2781,6.2781,6.2781,6.2781,6.2781,6.2781,6.2781,6.2781,6.2781,6.2781,6.2781,6.2781,6.2781,6.2781,6.2781,6.2781,6.2781,6.2781,6.2781,6.2781,6.2781,6.2781,6.2781,6.2781,6.2781,6.2781,6.2781,6.2781,6.2781,6.27,6.2454,6.2331,6.229,6.2167,6.1961,6.1548,6.1299,6.1174,6.0883,6.0632,6.0548,6.0381,6.0213,6.0213,6.0213,6.0213,6.0213,6.0213,6.0213,6.0213,6.0213,6.0213,6.0213,6.0213,6.0213,6.0213,6.0213,6.0213,6.0213,6.0213,6.0213,6.0213,6.0003,5.9835,5.9558,5.9261,5.8794,5.8349,5.7854,5.7271,5.6775,5.6144,5.5401,5.5005,5.4697,5.421,5.3321,5.274,5.2066,5.1182,5.0727,5.0317,4.9905,4.9354,4.9354,4.9262,4.9124,4.8894,4.8894,4.8894,4.8894,4.8801,4.8682,4.8682,4.8636,4.8266,4.7894,4.7894,4.7755,4.7476,4.7289,4.7215,4.7028,4.6747,4.6635,4.6682,4.6635,4.6541,4.6494,4.64,4.6213,4.6072,4.6072,4.6231,4.6137,6.2781,6.2781,6.2781,6.2781,6.2781,6.2781,6.2781,6.2781,6.2781,6.2781,6.2781,6.2781,6.2781,6.2781,6.2781,6.2781,6.2781,6.2781,6.2781,6.2781,6.2781,6.2781,6.2781,6.2781,6.2781,6.2781,6.2781,6.2781,6.2741,6.2454,6.2249,6.1919,6.1672,6.1506,6.144,6.1049,6.0841,6.0757,6.0423,6.0297,6.0255,6.0213,6.0213,6.0213,6.0213,6.0213,6.0213,6.0213,6.0213,6.0213,6.0213,6.0213,6.0213,6.0213,6.0171,6.0129,6.0129,6.0129,6.0153,6.0171,6.0003,5.9919,5.9581,5.9261,5.9177,5.8643,5.7831,5.7251,5.6492,5.5839,5.5357,5.4785,5.3989,5.3455,5.3143,5.274,5.1885,5.1297,5.0773,5.0408,4.9971,4.9512,4.917,4.894,4.8986,4.894,4.8894,4.8894,4.8848,4.8729,4.8682,4.8544,4.8405,4.8219,4.808,4.7662,4.7448,4.7401,4.7261,4.6916,4.6728,4.6682,4.6447,4.6119,4.6166,4.6306,4.6119,4.593,4.6025,4.6119,4.6025,4.593,4.5883,4.5883,4.5883,6.2781,6.2781,6.2781,6.2781,6.2781,6.2781,6.2781,6.2781,6.2781,6.2781,6.2781,6.2781,6.2781,6.2781,6.2781,6.2781,6.2781,6.2781,6.2781,6.2781,6.2781,6.2781,6.2781,6.2781,6.2781,6.2781,6.2781,6.2618,6.2397,6.2167,6.1713,6.134,6.1008,6.0841,6.0883,6.0632,6.0423,6.0381,6.0255,6.0213,6.0213,6.0213,6.0213,6.0213,6.0213,6.0213,6.0213,6.0213,6.0213,6.0213,6.0213,6.0171,6.0171,6.0171,6.0045,5.9835,5.975,5.9581,5.9285,5.9073,5.8988,5.8964,5.8794,5.8411,5.8068,5.7228,5.6579,5.5839,5.4873,5.4255,5.3856,5.2785,5.2021,5.1795,5.1479,5.1227,5.0636,5.0317,4.9925,4.9768,4.94,4.9216,4.894,4.8894,4.8894,4.8821,4.8821,4.8801,4.8801,4.8451,4.8266,4.8127,4.7987,4.7755,4.7476,4.7149,4.6916,4.6869,4.6635,4.6259,4.6166,4.6213,4.6119,4.5978,4.593,4.5883,4.5883,4.5883,4.5883,4.5883,4.5883,4.5883,4.5883,4.5883,4.5883,6.2781,6.2781,6.2781,6.2781,6.2781,6.2781,6.2781,6.2781,6.2781,6.2781,6.2781,6.2781,6.2781,6.2781,6.2781,6.2781,6.2781,6.2781,6.2781,6.2781,6.2781,6.2781,6.2781,6.2781,6.2781,6.2781,6.2618,6.2413,6.2208,6.1878,6.134,6.0716,6.0339,6.0423,6.0465,6.0339,6.0255,6.0255,6.0213,6.0213,6.0213,6.0213,6.0213,6.0213,6.0213,6.0213,6.0213,6.0213,6.0213,6.0213,6.0171,6.0087,6.0045,5.9919,5.9708,5.9412,5.9049,5.8709,5.8154,5.7639,5.751,5.7381,5.7401,5.7228,5.6666,5.5751,5.5071,5.4255,5.3232,5.2695,5.2246,5.1136,5.0773,5.059,5.0362,5.0108,4.9833,4.9512,4.94,4.9262,4.917,4.8986,4.8894,4.8894,4.8894,4.8821,4.8729,4.8682,4.859,4.8266,4.7914,4.7708,4.7476,4.7243,4.6962,4.6635,4.6447,4.64,4.6166,4.5883,4.593,4.6025,4.593,4.5883,4.5883,4.5883,4.5883,4.5883,4.5883,4.5883,4.5883,4.5883,4.5883,4.5883,4.5883,6.2781,6.2781,6.2781,6.2781,6.2781,6.2781,6.2781,6.2781,6.2781,6.2781,6.2781,6.2781,6.2781,6.2781,6.2781,6.2781,6.2781,6.2781,6.2781,6.2781,6.2781,6.2781,6.2741,6.27,6.2577,6.2536,6.2372,6.2084,6.2043,6.134,6.0674,6.0339,6.0255,6.0255,6.0255,6.0255,6.0213,6.0213,6.0213,6.0213,6.0213,6.0213,6.0213,6.0213,6.0213,6.0213,6.0213,6.0213,6.0171,6.0129,6.0129,5.9877,5.9666,5.9473,5.9158,5.869,5.8174,5.7444,5.6752,5.6188,5.5751,5.5576,5.5488,5.5707,5.5401,5.4343,5.3544,5.2829,5.193,5.1433,5.0864,5.0454,5.0042,4.9859,4.9696,4.942,4.9124,4.8986,4.8986,4.894,4.894,4.8894,4.8894,4.8894,4.8801,4.859,4.8405,4.808,4.7987,4.7848,4.7522,4.7289,4.7009,4.6682,4.64,4.6259,4.6166,4.6166,4.6072,4.5883,4.5883,4.5883,4.5883,4.5883,4.5883,4.5883,4.5883,4.5883,4.5883,4.5883,4.5883,4.5883,4.5883,4.5883,4.5883,6.2781,6.2781,6.2781,6.2781,6.2781,6.2781,6.2781,6.2781,6.2781,6.2781,6.2781,6.2781,6.2781,6.2781,6.2781,6.2781,6.2781,6.2781,6.2781,6.2781,6.2741,6.2577,6.2454,6.2372,6.2167,6.1961,6.1754,6.1589,6.1216,6.059,6.0381,6.0213,6.0213,6.0213,6.0213,6.0213,6.0213,6.0213,6.0213,6.0213,6.0213,6.0213,6.0213,6.0213,6.0213,6.0213,6.0129,6.0129,6.0045,5.975,5.9708,5.9497,5.9031,5.8667,5.8154,5.6882,5.6362,5.5795,5.5181,5.4476,5.3944,5.3589,5.3187,5.3232,5.3232,5.2919,5.2041,5.1454,5.0843,5.0317,5.0088,4.9722,4.9492,4.9374,4.9236,4.9144,4.8894,4.8894,4.8894,4.8894,4.8894,4.8801,4.8801,4.8801,4.8682,4.8405,4.808,4.7708,4.7429,4.7336,4.7102,4.6869,4.6635,4.6306,4.6166,4.6025,4.5978,4.593,4.5883,4.5883,4.5883,4.5883,4.5883,4.5883,4.5883,4.5883,4.5883,4.5883,4.5883,4.5883,4.5883,4.5883,4.5883,4.5883,4.5883,6.2781,6.2781,6.2781,6.2781,6.2781,6.2781,6.2781,6.2781,6.2781,6.2781,6.2781,6.2781,6.2781,6.2781,6.2781,6.2781,6.2781,6.2781,6.2781,6.2781,6.2659,6.2454,6.2274,6.2002,6.182,6.1506,6.1299,6.1108,6.0733,6.0423,6.0213,6.0213,6.0213,6.0213,6.0213,6.0213,6.0213,6.0213,6.0213,6.0213,6.0213,6.0213,6.0213,6.0213,6.0213,6.0129,5.9961,5.9961,5.9666,5.9243,5.9134,5.8709,5.8134,5.751,5.6339,5.5181,5.4697,5.4122,5.35,5.2785,5.2471,5.2111,5.1363,5.1297,5.1297,5.1182,5.0818,5.0408,4.9813,4.9328,4.9216,4.9078,4.8986,4.8894,4.8894,4.8894,4.8894,4.8894,4.8894,4.8894,4.8801,4.8709,4.8663,4.8636,4.8405,4.7941,4.7569,4.7196,4.6962,4.6916,4.6682,4.64,4.6213,4.5978,4.5883,4.5883,4.5883,4.5883,4.5883,4.5883,4.5883,4.5883,4.5883,4.5883,4.5883,4.5883,4.5883,4.5883,4.5883,4.5883,4.5883,4.5883,4.5883,4.5883,4.5883,6.2781,6.2781,6.2781,6.2781,6.2781,6.2781,6.2781,6.2781,6.2781,6.2781,6.2781,6.2781,6.2781,6.2781,6.2781,6.2781,6.2781,6.2781,6.2781,6.2741,6.2454,6.2233,6.1985,6.1672,6.134,6.1216,6.1008,6.0691,6.0632,6.0381,6.0213,6.0213,6.0213,6.0213,6.0213,6.0213,6.0213,6.0213,6.0213,6.0213,6.0213,6.0213,6.0213,6.0171,6.0087,5.9961,5.9624,5.937,5.92,5.8733,5.8154,5.7682,5.6622,5.5882,5.452,5.3589,5.3098,5.2605,5.2021,5.1363,5.1136,5.0884,5.0519,5.0134,5.0042,5.018,5.0042,4.9787,4.9282,4.9098,4.8986,4.8986,4.894,4.8894,4.8894,4.8894,4.8894,4.8848,4.8821,4.8775,4.859,4.8451,4.8173,4.808,4.7894,4.7382,4.7102,4.6775,4.656,4.6513,4.6343,4.6061,4.5996,4.5883,4.5883,4.5883,4.5883,4.5883,4.5883,4.5883,4.5883,4.5883,4.5883,4.5883,4.5883,4.5883,4.5883,4.5883,4.5883,4.5883,4.5883,4.5883,4.5883,4.5883,4.5883,6.2781,6.2781,6.2781,6.2781,6.2781,6.2781,6.2781,6.2781,6.2781,6.2781,6.2781,6.2781,6.2781,6.2781,6.2781,6.2781,6.2781,6.2781,6.2781,6.2618,6.2331,6.1919,6.163,6.1216,6.0841,6.0548,6.0381,6.0381,6.0381,6.0255,6.0213,6.0213,6.0213,6.0213,6.0129,6.0129,6.0129,6.0045,6.0045,6.0045,6.0045,6.0171,6.0213,6.0087,5.9895,5.96,5.9177,5.8709,5.8282,5.7748,5.6882,5.5795,5.4255,5.39,5.2964,5.1885,5.1569,5.1207,5.0773,5.0271,5.0088,4.9879,4.9604,4.9328,4.9236,4.9466,4.9466,4.919,4.9006,4.8959,4.8894,4.8894,4.8894,4.8894,4.8894,4.8894,4.8848,4.8775,4.8682,4.8497,4.8312,4.8034,4.7708,4.7429,4.7243,4.7009,4.6822,4.656,4.6333,4.6229,4.6313,4.6106,4.5949,4.5883,4.5883,4.5883,4.5883,4.5883,4.5883,4.5883,4.5883,4.5883,4.5883,4.5883,4.5883,4.5883,4.5883,4.5883,4.5883,4.5883,4.5883,4.5883,4.5883,4.5883,4.5883,6.2781,6.2781,6.2781,6.2781,6.2781,6.2781,6.2781,6.2781,6.2781,6.2781,6.2781,6.2781,6.2781,6.2781,6.2781,6.2781,6.2781,6.2781,6.2659,6.2454,6.2084,6.163,6.1174,6.0757,6.0507,6.0213,6.0213,6.0213,6.0171,6.0213,6.0213,6.0171,6.0171,6.0087,5.9961,5.9877,5.9792,5.9581,5.9581,5.9581,5.9666,5.9877,6.0003,5.9877,5.9473,5.9092,5.8282,5.7725,5.7012,5.6254,5.5357,5.3967,5.2785,5.2291,5.1614,5.0818,5.0362,5.018,4.9787,4.9512,4.9308,4.9236,4.9144,4.9006,4.9006,4.919,4.919,4.8959,4.8959,4.8894,4.8894,4.8894,4.8894,4.8894,4.8867,4.8821,4.8636,4.8405,4.8173,4.7894,4.7774,4.7569,4.7243,4.7009,4.6775,4.6521,4.6362,4.6566,4.63,4.6213,4.6213,4.6177,4.6122,4.5957,4.5883,4.5883,4.5883,4.5883,4.5883,4.5883,4.5883,4.5883,4.5883,4.5883,4.5883,4.5883,4.5883,4.5883,4.5883,4.5883,4.5883,4.5883,4.5883,4.5883,4.5883,6.2781,6.2781,6.2781,6.2781,6.2781,6.2781,6.2781,6.2781,6.2781,6.2781,6.2781,6.2781,6.2781,6.2781,6.2781,6.2741,6.27,6.2618,6.2454,6.2043,6.1606,6.1274,6.0883,6.0465,6.0297,6.0171,6.0087,6.0045,6.0003,5.9919,5.9835,6.0003,5.9919,5.9835,5.9539,5.937,5.9243,5.8946,5.8818,5.8733,5.9031,5.9497,5.9497,5.9261,5.8794,5.8111,5.7208,5.6231,5.5532,5.4697,5.3767,5.2381,5.1433,5.0955,5.0454,4.9813,4.963,4.942,4.9144,4.9032,4.894,4.8894,4.8894,4.8894,4.8913,4.8913,4.8913,4.8913,4.8894,4.8894,4.8894,4.8894,4.8894,4.8801,4.8775,4.8636,4.8358,4.8034,4.7728,4.7401,4.7215,4.7028,4.6841,4.6606,4.6446,4.6172,4.6177,4.6397,4.6562,4.6635,4.6672,4.658,4.647,4.6287,4.5993,4.5957,4.5975,4.5883,4.5883,4.5883,4.5883,4.5883,4.5883,4.5883,4.5883,4.5883,4.5883,4.5883,4.5883,4.5883,4.5883,4.5883,4.5883,4.5883,4.5883,6.2781,6.2781,6.2781,6.2781,6.2781,6.2781,6.2781,6.2781,6.2781,6.2781,6.2741,6.2781,6.2781,6.2781,6.2781,6.27,6.2413,6.2331,6.2002,6.1589,6.1216,6.0966,6.0716,6.0381,6.0255,6.0087,5.9877,5.9642,5.9581,5.9285,5.9097,5.9115,5.9073,5.8988,5.8946,5.8775,5.8453,5.8111,5.7897,5.7788,5.7854,5.824,5.8624,5.824,5.753,5.6882,5.6013,5.4587,5.3944,5.3232,5.2291,5.1071,5.0362,4.9951,4.9584,4.9354,4.9124,4.9032,4.8894,4.8894,4.8894,4.8894,4.8894,4.8894,4.8894,4.8894,4.8894,4.8894,4.8894,4.8894,4.8894,4.8894,4.8848,4.8682,4.859,4.8312,4.8034,4.7662,4.7308,4.7047,4.6784,4.655,4.6352,4.6284,4.6432,4.6305,4.6489,4.669,4.6965,4.7057,4.713,4.6984,4.6855,4.6415,4.6048,4.6085,4.6085,4.5975,4.592,4.5957,4.5957,4.5902,4.5883,4.5883,4.5883,4.5883,4.5883,4.5883,4.5883,4.5883,4.5883,4.5883,4.5883,4.5883,4.5883]},{"header":{"parameterUnit":"m.s-1","parameterCategory":1,"la1":31.0,"la2":29.5877,"lo1":-88.7671,"lo2":-86.6584,"dx":0.0162,"dy":0.0185,"nx":115,"ny":88,"refTime":"2022-11-19T06:00:00:Z","depth":0,"parameterNumber":3,"parameterNumberName":"V-component_of_WINDS"},"data":[0.0,0.0,0.0,0.0,0.0,0.0,0.0,0.0,0.0,0.0,0.0,0.0,0.0,0.0,0.0,0.0,0.0,0.0,0.0,0.0,0.0,0.0,0.0,0.0,0.0,0.0,0.0,0.0,0.0,0.0,0.0,0.0,0.0,0.0,0.0,0.0,0.0,0.0,0.0,0.0,0.0,0.0,0.0,0.0,0.0,0.0,0.0,0.0,0.0,0.0,0.0,0.0,0.0,0.0,0.0,0.0,0.0,0.0,0.0,0.0,0.0,0.0,0.0,0.0,0.0,0.0,0.0,0.0,0.0,0.0,0.0,0.0,0.0,0.0,0.0,0.0,0.0,0.0,0.0,0.0,0.0,0.0,0.0,0.0,0.0,0.0,0.0,0.0,0.0,0.0,0.0,0.0,0.0,0.0,0.0,0.0,0.0,0.0,0.0,0.0,0.0,0.0,0.0,0.0,0.0,0.0,0.0,0.0,0.0,0.0,0.0,0.0,0.0,0.0,0.0,0.0,0.0,0.0,0.0,0.0,0.0,0.0,0.0,0.0,0.0,0.0,0.0,0.0,0.0,0.0,0.0,0.0,0.0,0.0,0.0,0.0,0.0,0.0,0.0,0.0,0.0,0.0,0.0,0.0,0.0,0.0,0.0,0.0,0.0,0.0,0.0,0.0,0.0,0.0,0.0,0.0,0.0,0.0,0.0,0.0,0.0,0.0,0.0,0.0,0.0,0.0,0.0,0.0,0.0,0.0,0.0,0.0,0.0,0.0,0.0,0.0,0.0,0.0,0.0,0.0,0.0,0.0,0.0,0.0,0.0,0.0,0.0,0.0,0.0,0.0,0.0,0.0,0.0,0.0,0.0,0.0,0.0,0.0,0.0,0.0,0.0,0.0,0.0,0.0,0.0,0.0,0.0,0.0,0.0,0.0,0.0,0.0,0.0,0.0,0.0,0.0,0.0,0.0,0.0,0.0,0.0,0.0,0.0,0.0,0.0,0.0,0.0,0.0,0.0,0.0,0.0,0.0,0.0,0.0,0.0,0.0,0.0,0.0,0.0,0.0,0.0,0.0,0.0,0.0,0.0,0.0,0.0,0.0,0.0,0.0,0.0,0.0,0.0,0.0,0.0,0.0,0.0,0.0,0.0,0.0,0.0,0.0,0.0,0.0,0.0,0.0,0.0,0.0,0.0,0.0,0.0,0.0,0.0,0.0,0.0,0.0,0.0,0.0,0.0,0.0,0.0,0.0,0.0,0.0,0.0,0.0,0.0,0.0,0.0,0.0,0.0,0.0,0.0,0.0,0.0,0.0,0.0,0.0,0.0,0.0,0.0,0.0,0.0,0.0,0.0,0.0,0.0,0.0,0.0,0.0,0.0,0.0,0.0,0.0,0.0,0.0,0.0,0.0,0.0,0.0,0.0,0.0,0.0,0.0,0.0,0.0,0.0,0.0,0.0,0.0,0.0,0.0,0.0,0.0,0.0,0.0,0.0,0.0,0.0,0.0,0.0,0.0,0.0,0.0,0.0,0.0,0.0,0.0,0.0,0.0,0.0,0.0,0.0,0.0,0.0,0.0,0.0,0.0,0.0,0.0,0.0,0.0,0.0,0.0,0.0,0.0,0.0,0.0,0.0,0.0,0.0,0.0,0.0,0.0,0.0,0.0,0.0,0.0,0.0,0.0,0.0,0.0,0.0,0.0,0.0,0.0,0.0,0.0,0.0,0.0,0.0,0.0,0.0,0.0,0.0,0.0,0.0,0.0,0.0,0.0,0.0,0.0,0.0,0.0,0.0,0.0,0.0,0.0,0.0,0.0,0.0,0.0,0.0,0.0,0.0,0.0,0.0,0.0,0.0,0.0,0.0,0.0,0.0,0.0,0.0,0.0,0.0,0.0,0.0,0.0,0.0,0.0,0.0,0.0,0.0,0.0,0.0,0.0,0.0,0.0,0.0,0.0,0.0,0.0,0.0,0.0,0.0,0.0,0.0,0.0,0.0,0.0,0.0,0.0,0.0,0.0,0.0,0.0,0.0,0.0,0.0,0.0,0.0,0.0,0.0,0.0,0.0,0.0,0.0,0.0,0.0,0.0,0.0,0.0,0.0,0.0,0.0,0.0,0.0,0.0,0.0,0.0,0.0,0.0,0.0,0.0,0.0,0.0,0.0,0.0,0.0,0.0,0.0,0.0,0.0,0.0,0.0,0.0,0.0,0.0,0.0,0.0,0.0,0.0,0.0,0.0,0.0,0.0,0.0,0.0,0.0,0.0,0.0,0.0,0.0,0.0,0.0,0.0,0.0,0.0,0.0,0.0,0.0,0.0,0.0,0.0,0.0,0.0,0.0,0.0,0.0,0.0,0.0,0.0,0.0,0.0,0.0,0.0,0.0,0.0,0.0,0.0,0.0,0.0,0.0,0.0,0.0,0.0,0.0,0.0,0.0,0.0,0.0,0.0,0.0,0.0,0.0,0.0,0.0,0.0,0.0,0.0,0.0,0.0,0.0,0.0,0.0,0.0,0.0,0.0,0.0,0.0,0.0,0.0,0.0,0.0,0.0,0.0,0.0,0.0,0.0,0.0,0.0,0.0,0.0,0.0,0.0,0.0,0.0,0.0,0.0,0.0,0.0,0.0,0.0,0.0,0.0,0.0,0.0,0.0,0.0,0.0,0.0,0.0,0.0,0.0,0.0,0.0,0.0,0.0,0.0,0.0,0.0,0.0,0.0,0.0,0.0,0.0,0.0,0.0,0.0,0.0,0.0,0.0,0.0,0.0,0.0,0.0,0.0,0.0,0.0,0.0,0.0,0.0,0.0,0.0,0.0,0.0,0.0,0.0,0.0,0.0,0.0,0.0,0.0,0.0,0.0,0.0,0.0,0.0,0.0,0.0,0.0,0.0,0.0,0.0,0.0,0.0,0.0,0.0,0.0,0.0,0.0,0.0,0.0,0.0,0.0,0.0,0.0,0.0,0.0,0.0,0.0,0.0,0.0,0.0,0.0,0.0,0.0,0.0,0.0,0.0,0.0,0.0,0.0,0.0,0.0,0.0,0.0,0.0,0.0,0.0,0.0,0.0,0.0,0.0,0.0,0.0,0.0,0.0,0.0,0.0,0.0,0.0,0.0,0.0,0.0,0.0,0.0,0.0,0.0,0.0,0.0,0.0,0.0,0.0,0.0,0.0,0.0,0.0,0.0,0.0,0.0,0.0,0.0,0.0,0.0,0.0,0.0,0.0,0.0,0.0,0.0,0.0,0.0,0.0,0.0,0.0,0.0,0.0,0.0,0.0,0.0,0.0,0.0,0.0,0.0,0.0,0.0,0.0,0.0,0.0,0.0,0.0,0.0,0.0,0.0,0.0,0.0,0.0,0.0,0.0,0.0,0.0,0.0,0.0,0.0,0.0,0.0,0.0,0.0,0.0,0.0,0.0,0.0,0.0,0.0,0.0,0.0,0.0,0.0,0.0,0.0,0.0,0.0,0.0,0.0,0.0,0.0,0.0,0.0,0.0,0.0,0.0,0.0,0.0,0.0,0.0,0.0,0.0,0.0,0.0,0.0,0.0,0.0,0.0,0.0,0.0,0.0,0.0,0.0,0.0,0.0,0.0,0.0,0.0,0.0,0.0,0.0,0.0,0.0,0.0,0.0,0.0,0.0,0.0,0.0,0.0,0.0,0.0,0.0,0.0,0.0,0.0,0.0,0.0,0.0,0.0,0.0,0.0,0.0,0.0,0.0,0.0,0.0,0.0,0.0,0.0,0.0,0.0,0.0,0.0,0.0,0.0,0.0,0.0,0.0,0.0,0.0,0.0,0.0,0.0,0.0,0.0,0.0,0.0,0.0,0.0,0.0,0.0,0.0,0.0,0.0,0.0,0.0,0.0,0.0,0.0,0.0,0.0,0.0,0.0,0.0,0.0,0.0,0.0,0.0,0.0,0.0,0.0,0.0,0.0,0.0,0.0,0.0,0.0,0.0,0.0,0.0,0.0,0.0,0.0,0.0,0.0,0.0,0.0,0.0,0.0,0.0,0.0,0.0,0.0,0.0,0.0,0.0,0.0,0.0,0.0,0.0,0.0,0.0,0.0,0.0,0.0,0.0,0.0,0.0,0.0,0.0,0.0,0.0,0.0,0.0,0.0,0.0,0.0,0.0,0.0,0.0,0.0,0.0,0.0,0.0,0.0,0.0,0.0,0.0,0.0,0.0,0.0,0.0,0.0,0.0,0.0,0.0,0.0,0.0,0.0,0.0,0.0,0.0,0.0,1.2915,0.0,0.0,0.0,1.2915,0.0,0.0,0.0,0.0,0.0,0.0,0.0,0.0,0.0,0.0,0.0,0.0,0.0,0.0,0.0,0.0,0.0,0.0,0.0,0.0,0.0,0.0,0.0,0.0,0.0,0.0,0.0,0.0,0.0,0.0,0.0,0.0,0.0,0.0,0.0,0.0,0.0,0.0,0.0,0.0,0.0,0.0,0.0,0.0,0.0,0.0,0.0,0.0,0.0,0.0,0.0,0.0,0.0,0.0,0.0,0.0,0.0,0.0,0.0,0.0,0.0,0.0,0.0,0.0,0.0,0.0,0.0,0.0,0.0,0.0,0.0,0.0,0.0,0.0,0.0,0.0,0.0,0.0,0.0,0.0,0.0,0.0,0.0,0.0,0.0,0.0,0.0,0.0,0.0,0.0,0.0,0.0,0.0,0.0,0.0,0.0,0.0,0.0,0.0,0.0,0.0,0.0,0.0,0.0,0.0,0.0,0.0,0.0,0.0,0.0,1.3223,1.3235,1.3437,1.3444,1.3223,0.0,0.0,0.0,0.0,0.0,0.0,0.0,0.0,0.0,0.0,0.0,0.0,0.0,0.0,0.0,0.0,0.0,0.0,0.0,0.0,0.0,0.0,0.0,0.0,0.0,0.0,0.0,0.0,0.0,0.0,0.0,0.0,0.0,0.0,0.0,0.0,0.0,0.0,0.0,0.0,0.0,0.0,0.0,0.0,0.0,0.0,0.0,0.0,0.0,0.0,0.0,0.0,0.0,0.0,0.0,0.0,0.0,0.0,0.0,0.0,0.0,0.0,0.0,0.0,0.0,0.0,0.0,0.0,0.0,0.0,0.0,0.0,0.0,0.0,0.0,0.0,0.0,0.0,0.0,0.0,0.0,0.0,0.0,0.0,0.0,0.0,0.0,0.0,0.0,0.0,0.0,0.0,0.0,0.0,0.0,0.0,0.0,0.0,0.0,0.0,0.0,0.0,0.0,0.0,0.0,0.0,0.0,0.0,0.0,0.0,0.0,0.0,1.3938,1.3919,1.3503,0.0,0.0,0.0,0.0,0.0,0.0,0.0,0.0,0.0,0.0,0.0,0.0,0.0,0.0,0.0,0.0,0.0,0.0,0.0,0.0,0.0,0.0,0.0,0.0,0.0,0.0,0.0,0.0,0.0,0.0,0.0,0.0,0.0,0.0,0.0,0.0,0.0,0.0,0.0,0.0,0.0,0.0,0.0,0.0,0.0,0.0,0.0,0.0,0.0,0.0,0.0,0.0,0.0,0.0,0.0,0.0,0.0,0.0,0.0,0.0,0.0,0.0,0.0,0.0,0.0,0.0,0.0,0.0,0.0,0.0,0.0,0.0,0.0,0.0,0.0,0.0,0.0,0.0,0.0,0.0,0.0,0.0,0.0,0.0,0.0,0.0,0.0,0.0,0.0,0.0,0.0,0.0,0.0,0.0,0.0,0.0,0.0,0.0,0.0,0.0,0.0,0.0,0.0,0.0,0.0,0.0,0.0,0.0,0.0,0.0,1.3678,1.4023,1.4094,0.0,1.3522,0.0,0.0,0.0,0.0,0.0,0.0,0.0,0.0,0.0,0.0,0.0,0.0,0.0,0.0,0.0,0.0,0.0,0.0,0.0,0.0,0.0,0.0,0.0,0.0,0.0,0.0,0.0,0.0,0.0,0.0,0.0,0.0,0.0,0.0,0.0,0.0,0.0,0.0,0.0,0.0,0.0,0.0,0.0,0.0,0.0,0.0,0.0,0.0,0.0,0.0,0.0,0.0,0.0,0.0,0.0,0.0,0.0,0.0,0.0,0.0,0.0,0.0,0.0,0.0,0.0,0.0,0.0,0.0,0.0,0.0,0.0,0.0,0.0,0.0,0.0,0.0,0.0,0.0,0.0,0.0,0.0,0.0,0.0,0.0,0.0,0.0,0.0,0.0,0.0,0.0,0.0,0.0,0.0,0.0,0.0,0.0,0.0,0.0,0.0,0.0,0.0,0.0,0.0,0.0,0.0,0.0,0.0,0.0,0.0,0.0,1.4355,1.4498,1.4498,1.4316,0.0,0.0,0.0,0.0,0.0,0.0,0.0,0.0,0.0,0.0,0.0,0.0,0.0,0.0,0.0,0.0,0.0,0.0,0.0,0.0,0.0,0.0,0.0,0.0,0.0,0.0,0.0,0.0,0.0,0.0,0.0,0.0,0.0,0.0,0.0,0.0,0.0,0.0,0.0,0.0,0.0,0.0,0.0,0.0,0.0,0.0,0.0,0.0,0.0,0.0,0.0,0.0,0.0,0.0,0.0,0.0,0.0,0.0,0.0,0.0,0.0,0.0,0.0,0.0,0.0,0.0,0.0,0.0,0.0,0.0,0.0,0.0,0.0,0.0,0.0,0.0,0.0,0.0,0.0,0.0,0.0,0.0,0.0,0.0,0.0,0.0,0.0,0.0,0.0,0.0,0.0,0.0,0.0,0.0,0.0,0.0,0.0,0.0,0.0,0.0,0.0,0.0,0.0,0.0,0.0,0.0,0.0,0.0,0.0,0.0,1.4414,1.4858,1.4941,1.4975,1.4707,1.412,0.0,0.0,0.0,0.0,0.0,0.0,0.0,0.0,0.0,0.0,0.0,0.0,0.0,0.0,0.0,0.0,0.0,0.0,0.0,0.0,0.0,0.0,0.0,0.0,0.0,0.0,0.0,0.0,0.0,0.0,0.0,0.0,0.0,0.0,0.0,0.0,0.0,0.0,0.0,0.0,0.0,0.0,0.0,0.0,0.0,0.0,0.0,0.0,0.0,0.0,0.0,0.0,0.0,0.0,0.0,0.0,0.0,0.0,0.0,0.0,0.0,0.0,0.0,0.0,0.0,0.0,0.0,0.0,0.0,0.0,0.0,0.0,0.0,0.0,0.0,0.0,0.0,0.0,0.0,0.0,0.0,0.0,0.0,0.0,0.0,0.0,0.0,0.0,0.0,0.0,0.0,0.0,0.0,0.0,0.0,0.0,0.0,0.0,0.0,0.0,0.0,0.0,0.0,0.0,0.0,0.0,0.0,0.0,1.4062,1.457,1.5,1.5376,1.5391,1.4972,0.0,0.0,0.0,0.0,0.0,0.0,0.0,0.0,0.0,0.0,0.0,0.0,0.0,0.0,0.0,0.0,0.0,0.0,0.0,0.0,0.0,0.0,0.0,0.0,0.0,0.0,0.0,0.0,0.0,0.0,0.0,0.0,0.0,0.0,0.0,0.0,0.0,0.0,0.0,0.0,0.0,0.0,0.0,0.0,0.0,0.0,0.0,0.0,0.0,0.0,0.0,0.0,0.0,0.0,0.0,0.0,0.0,0.0,0.0,0.0,0.0,0.0,0.0,0.0,0.0,0.0,0.0,0.0,0.0,0.0,0.0,0.0,0.0,0.0,0.0,0.0,0.0,0.0,0.0,0.0,0.0,0.0,0.0,0.0,0.0,0.0,0.0,0.0,0.0,0.0,0.0,0.0,0.0,0.0,0.0,0.0,0.0,0.0,0.0,0.0,0.0,0.0,0.0,0.0,0.0,0.0,0.0,0.0,0.0,1.457,1.5781,1.6539,1.666,1.6391,1.5723,0.0,0.0,0.0,0.0,0.0,0.0,0.0,0.0,0.0,0.0,0.0,0.0,0.0,0.0,0.0,0.0,0.0,0.0,0.0,0.0,0.0,0.0,0.0,0.0,0.0,0.0,0.0,0.0,0.0,0.0,0.0,0.0,0.0,0.0,0.0,0.0,0.0,0.0,0.0,0.0,0.0,0.0,0.0,0.0,0.0,0.0,0.0,0.0,0.0,0.0,0.0,0.0,0.0,0.0,0.0,0.0,0.0,0.0,0.0,0.0,0.0,0.0,0.0,0.0,0.0,0.0,0.0,0.0,0.0,0.0,0.0,0.0,0.0,0.0,0.0,0.0,0.0,0.0,0.0,0.0,0.0,0.0,0.0,0.0,0.0,0.0,0.0,0.0,0.0,0.0,0.0,0.0,0.0,0.0,0.0,0.0,0.0,0.0,0.0,0.0,0.0,0.0,0.0,0.0,0.0,0.0,0.0,0.0,0.0,1.582,1.7383,1.8203,1.8201,1.7776,1.6816,0.0,0.0,0.0,0.0,0.0,0.0,0.0,0.0,0.0,0.0,0.0,0.0,0.0,0.0,0.0,0.0,0.0,0.0,0.0,0.0,0.0,0.0,0.0,0.0,0.0,0.0,0.0,0.0,0.0,0.0,0.0,0.0,0.0,0.0,0.0,0.0,0.0,0.0,0.0,0.0,0.0,0.0,0.0,0.0,0.0,0.0,0.0,0.0,0.0,0.0,0.0,0.0,0.0,0.0,0.0,0.0,0.0,0.0,0.0,0.0,0.0,0.0,0.0,0.0,0.0,0.0,0.0,0.0,0.0,0.0,0.0,0.0,0.0,0.0,0.0,0.0,0.0,0.0,0.0,0.0,0.0,0.0,0.0,0.0,0.0,0.0,0.0,0.0,0.0,0.0,0.0,0.0,0.0,0.0,0.0,0.0,0.0,0.0,0.0,0.0,0.0,0.0,0.0,0.0,0.0,0.0,0.0,0.0,1.5474,1.7932,1.9316,2.002,1.9941,1.9589,1.8338,0.0,0.0,0.0,0.0,0.0,0.0,0.0,0.0,0.0,0.0,0.0,0.0,0.0,0.0,0.0,0.0,0.0,0.0,0.0,0.0,0.0,0.0,0.0,0.0,0.0,0.0,0.0,0.0,0.0,0.0,0.0,0.0,0.0,0.0,0.0,0.0,0.0,0.0,0.0,0.0,0.0,0.0,0.0,0.0,0.0,0.0,0.0,0.0,0.0,0.0,0.0,0.0,0.0,0.0,0.0,0.0,0.0,0.0,0.0,0.0,0.0,0.0,0.0,0.0,0.0,0.0,0.0,0.0,0.0,0.0,0.0,0.0,0.0,0.0,0.0,0.0,0.0,0.0,0.0,0.0,0.0,0.0,0.0,0.0,0.0,0.0,0.0,0.0,0.0,0.0,0.0,0.0,0.0,0.0,0.0,0.0,0.0,0.0,0.0,0.0,0.0,0.0,0.0,0.0,0.0,0.0,0.0,0.0,0.0,2.0196,2.203,2.3006,2.2967,2.203,2.0352,0.0,0.0,0.0,0.0,0.0,0.0,0.0,0.0,0.0,0.0,0.0,0.0,0.0,0.0,0.0,0.0,0.0,0.0,0.0,0.0,0.0,0.0,0.0,0.0,0.0,0.0,0.0,0.0,0.0,0.0,0.0,0.0,0.0,0.0,0.0,0.0,0.0,0.0,0.0,0.0,0.0,0.0,0.0,0.0,0.0,0.0,0.0,0.0,0.0,0.0,0.0,0.0,0.0,0.0,0.0,0.0,0.0,0.0,0.0,0.0,0.0,0.0,0.0,0.0,0.0,0.0,0.0,0.0,0.0,0.0,0.0,0.0,0.0,0.0,0.0,0.0,0.0,0.0,0.0,0.0,0.0,0.0,0.0,0.0,0.0,0.0,0.0,0.0,0.0,0.0,0.0,0.0,0.0,0.0,0.0,0.0,0.0,0.0,0.0,0.0,0.0,0.0,0.0,0.0,0.0,0.0,0.0,0.0,0.0,2.3791,2.5244,2.603,2.6054,2.4795,2.2627,1.9473,0.0,0.0,0.0,0.0,0.0,0.0,0.0,0.0,0.0,0.0,0.0,0.0,0.0,0.0,0.0,0.0,0.0,0.0,0.0,0.0,0.0,0.0,0.0,0.0,0.0,0.0,0.0,0.0,0.0,0.0,0.0,0.0,0.0,0.0,0.0,0.0,0.0,0.0,0.0,0.0,0.0,0.0,0.0,0.0,0.0,0.0,0.0,0.0,0.0,0.0,0.0,0.0,0.0,0.0,0.0,0.0,0.0,0.0,0.0,0.0,0.0,0.0,0.0,0.0,0.0,0.0,0.0,0.0,0.0,0.0,0.0,0.0,0.0,0.0,0.0,0.0,0.0,0.0,0.0,0.0,0.0,0.0,0.0,0.0,0.0,0.0,0.0,0.0,0.0,0.0,0.0,0.0,0.0,0.0,0.0,0.0,0.0,0.0,0.0,0.0,0.0,0.0,0.0,0.0,0.0,0.0,0.0,0.0,2.8375,2.888,2.9099,2.8973,2.7691,2.5046,0.0,0.0,0.0,0.0,0.0,0.0,0.0,0.0,0.0,0.0,0.0,0.0,0.0,0.0,0.0,0.0,0.0,0.0,0.0,0.0,0.0,0.0,0.0,0.0,0.0,0.0,0.0,0.0,0.0,0.0,0.0,0.0,0.0,0.0,0.0,0.0,0.0,0.0,0.0,0.0,0.0,0.0,0.0,0.0,0.0,0.0,0.0,0.0,0.0,0.0,0.0,0.0,0.0,0.0,0.0,0.0,0.0,0.0,0.0,0.0,0.0,0.0,0.0,0.0,0.0,0.0,0.0,0.0,0.0,0.0,0.0,0.0,0.0,0.0,0.0,0.0,0.0,0.0,0.0,0.0,0.0,0.0,0.0,0.0,0.0,0.0,0.0,0.0,0.0,0.0,0.0,0.0,0.0,0.0,0.0,0.0,0.0,0.0,0.0,0.0,0.0,0.0,0.0,0.0,0.0,0.0,0.0,0.0,0.0,3.0669,3.247,3.277,3.1529,2.9648,2.6685,0.0,0.0,0.0,0.0,0.0,0.0,0.0,0.0,0.0,0.0,0.0,0.0,0.0,0.0,0.0,0.0,0.0,0.0,0.0,0.0,0.0,0.0,0.0,0.0,0.0,0.0,0.0,0.0,0.0,0.0,0.0,0.0,0.0,0.0,0.0,0.0,0.0,0.0,0.0,0.0,0.0,0.0,0.0,0.0,0.0,0.0,0.0,0.0,0.0,0.0,0.0,0.0,0.0,0.0,0.0,0.0,0.0,0.0,0.0,0.0,0.0,0.0,0.0,0.0,0.0,0.0,0.0,0.0,0.0,0.0,0.0,0.0,0.0,0.0,0.0,0.0,0.0,0.0,0.0,0.0,0.0,0.0,0.0,0.0,0.0,0.0,0.0,0.0,0.0,0.0,0.0,0.0,0.0,0.0,0.0,0.0,0.0,0.0,0.0,0.0,0.0,0.0,0.0,0.0,0.0,0.0,0.0,0.0,2.9108,3.2477,3.4821,3.5302,3.3739,3.1454,2.8203,0.0,0.0,0.0,0.0,0.0,0.0,0.0,0.0,0.0,0.0,0.0,0.0,0.0,0.0,0.0,0.0,0.0,0.0,0.0,0.0,0.0,0.0,0.0,0.0,0.0,0.0,0.0,0.0,0.0,0.0,0.0,0.0,0.0,0.0,0.0,0.0,0.0,0.0,0.0,0.0,0.0,0.0,0.0,0.0,0.0,0.0,0.0,0.0,0.0,0.0,0.0,0.0,0.0,0.0,0.0,0.0,0.0,0.0,0.0,0.0,0.0,0.0,0.0,0.0,0.0,0.0,0.0,0.0,0.0,0.0,0.0,0.0,0.0,0.0,0.0,0.0,0.0,0.0,0.0,0.0,0.0,0.0,0.0,0.0,0.0,0.0,0.0,0.0,0.0,0.0,0.0,0.0,0.0,0.0,0.0,0.0,0.0,0.0,0.0,0.0,0.0,0.0,0.0,0.0,0.0,0.0,0.0,0.0,3.1279,3.3755,3.6222,3.6825,3.5407,3.302,2.9472,0.0,0.0,0.0,0.0,0.0,0.0,0.0,0.0,0.0,0.0,0.0,0.0,0.0,0.0,0.0,0.0,0.0,0.0,0.0,0.0,0.0,0.0,0.0,0.0,0.0,0.0,0.0,0.0,0.0,0.0,0.0,0.0,0.0,0.0,0.0,0.0,0.0,0.0,0.0,0.0,0.0,0.0,0.0,0.0,0.0,0.0,0.0,0.0,0.0,0.0,0.0,0.0,0.0,0.0,0.0,0.0,0.0,0.0,0.0,0.0,0.0,0.0,0.0,0.0,0.0,0.0,0.0,0.0,0.0,0.0,0.0,0.0,0.0,0.0,0.0,0.0,0.0,0.0,0.0,0.0,0.0,0.0,0.0,0.0,0.0,0.0,0.0,0.0,0.0,0.0,0.0,0.0,0.0,0.0,0.0,0.0,0.0,0.0,0.0,0.0,0.0,0.0,0.0,0.0,0.0,0.0,0.0,0.0,3.2002,3.4509,3.6494,3.6846,3.5407,3.3136,2.976,0.0,0.0,0.0,0.0,0.0,0.0,0.0,0.0,0.0,0.0,0.0,0.0,0.0,0.0,0.0,0.0,0.0,0.0,0.0,0.0,0.0,0.0,0.0,0.0,0.0,0.0,0.0,0.0,0.0,0.0,0.0,0.0,0.0,0.0,0.0,0.0,0.0,0.0,0.0,0.0,0.0,0.0,0.0,0.0,0.0,0.0,0.0,0.0,2.0515,0.0,0.0,0.0,0.0,0.0,0.0,0.0,0.0,0.0,0.0,0.0,0.0,0.0,0.0,0.0,0.0,0.0,0.0,0.0,0.0,0.0,0.0,0.0,0.0,0.0,0.0,0.0,0.0,0.0,0.0,0.0,0.0,0.0,0.0,0.0,0.0,0.0,0.0,0.0,0.0,0.0,0.0,0.0,0.0,0.0,0.0,0.0,0.0,0.0,0.0,0.0,0.0,0.0,0.0,0.0,0.0,0.0,0.0,0.0,3.3065,3.5355,3.6991,3.7156,3.5718,3.3525,3.0299,0.0,0.0,0.0,0.0,0.0,0.0,0.0,0.0,0.0,0.0,0.0,0.0,0.0,0.0,0.0,0.0,0.0,0.0,0.0,0.0,0.0,0.0,0.0,0.0,0.0,0.0,0.0,0.0,0.0,0.0,0.0,0.0,0.0,0.0,0.0,0.0,0.0,0.0,0.0,0.0,0.0,0.0,0.0,0.0,0.0,0.0,0.0,0.0,0.0,0.0,0.0,0.0,0.0,0.0,0.0,0.0,0.0,0.0,0.0,0.0,0.0,0.0,0.0,0.0,0.0,0.0,0.0,0.0,0.0,0.0,0.0,0.0,0.0,0.0,0.0,0.0,0.0,0.0,0.0,0.0,0.0,0.0,0.0,0.0,0.0,0.0,0.0,0.0,0.0,0.0,0.0,0.0,0.0,0.0,0.0,0.0,0.0,0.0,0.0,0.0,0.0,0.0,0.0,0.0,0.0,0.0,0.0,3.0949,3.4039,3.6028,3.7467,3.7529,3.6111,3.396,3.0899,2.6933,0.0,0.0,0.0,0.0,0.0,0.0,0.0,0.0,0.0,0.0,0.0,0.0,0.0,0.0,0.0,0.0,0.0,0.0,0.0,0.0,0.0,0.0,0.0,0.0,0.0,0.0,0.0,0.0,0.0,0.0,0.0,0.0,0.0,0.0,0.0,0.0,0.0,0.0,1.7414,1.9863,0.0,0.0,0.0,0.0,0.0,0.0,0.0,0.0,2.2633,0.0,0.0,0.0,0.0,0.0,0.0,0.0,0.0,0.0,0.0,0.0,0.0,0.0,0.0,0.0,0.0,0.0,0.0,0.0,0.0,0.0,0.0,0.0,0.0,0.0,0.0,0.0,0.0,0.0,0.0,0.0,0.0,0.0,0.0,0.0,0.0,0.0,0.0,0.0,0.0,0.0,0.0,0.0,0.0,0.0,0.0,0.0,0.0,0.0,0.0,0.0,0.0,0.0,0.0,0.0,0.0,2.7166,3.1237,3.4228,3.6048,3.7467,3.7529,3.6121,3.4258,3.1526,2.7776,0.0,0.0,0.0,0.0,0.0,0.0,0.0,0.0,0.0,0.0,0.0,0.0,0.0,0.0,0.0,0.0,0.0,0.0,0.0,0.0,0.0,0.0,0.0,0.0,0.0,0.0,0.0,0.0,0.0,0.0,0.0,0.0,0.0,0.0,0.0,0.0,0.0,0.0,0.0,2.1909,2.3228,0.0,0.0,0.0,0.0,0.0,0.0,0.0,0.0,2.4014,0.0,0.0,0.0,0.0,0.0,0.0,0.0,0.0,0.0,0.0,0.0,0.0,0.0,0.0,0.0,0.0,0.0,0.0,0.0,0.0,0.0,0.0,0.0,0.0,0.0,0.0,0.0,0.0,0.0,0.0,0.0,0.0,0.0,0.0,0.0,0.0,0.0,0.0,0.0,0.0,0.0,0.0,0.0,0.0,0.0,0.0,0.0,0.0,0.0,0.0,0.0,0.0,0.0,0.0,0.0,2.8325,3.2156,3.5013,3.6763,3.7715,3.7632,3.6473,3.4445,3.1774,0.0,0.0,0.0,0.0,0.0,0.0,0.0,0.0,0.0,0.0,0.0,0.0,0.0,0.0,0.0,0.0,0.0,0.0,0.0,0.0,0.0,0.0,0.0,0.0,0.0,0.0,0.0,0.0,0.0,0.0,0.0,0.0,0.0,0.0,0.0,0.0,0.0,0.0,0.0,0.0,2.3693,2.5078,2.5741,0.0,0.0,0.0,0.0,0.0,0.0,2.6163,2.6021,0.0,0.0,0.0,0.0,0.0,0.0,0.0,0.0,0.0,0.0,0.0,0.0,0.0,0.0,0.0,0.0,0.0,0.0,0.0,0.0,0.0,0.0,0.0,0.0,0.0,0.0,0.0,0.0,0.0,0.0,0.0,0.0,0.0,0.0,0.0,0.0,0.0,0.0,0.0,0.0,0.0,0.0,0.0,0.0,0.0,0.0,0.0,0.0,0.0,0.0,0.0,0.0,0.0,0.0,0.0,2.9619,3.3107,3.577,3.7503,3.8141,3.7933,3.6997,3.4863,3.2177,0.0,0.0,0.0,0.0,0.0,0.0,0.0,0.0,0.0,0.0,0.0,0.0,0.0,0.0,0.0,0.0,0.0,0.0,0.0,0.0,0.0,0.0,0.0,0.0,0.0,0.0,0.0,0.0,0.0,0.0,0.0,0.0,0.0,0.0,0.0,0.0,0.0,0.0,0.0,0.0,0.0,2.6738,2.7304,2.7705,0.0,0.0,0.0,0.0,2.7943,2.8284,0.0,0.0,0.0,0.0,0.0,0.0,0.0,0.0,0.0,0.0,0.0,0.0,0.0,0.0,0.0,0.0,0.0,0.0,0.0,0.0,0.0,0.0,0.0,0.0,0.0,0.0,0.0,0.0,0.0,0.0,0.0,0.0,0.0,0.0,0.0,0.0,0.0,0.0,0.0,0.0,0.0,0.0,0.0,0.0,0.0,0.0,0.0,0.0,0.0,0.0,0.0,0.0,0.0,0.0,0.0,0.0,3.071,3.373,3.609,3.7872,3.8681,3.8633,3.7678,3.5843,3.2994,0.0,0.0,0.0,0.0,0.0,0.0,0.0,0.0,0.0,0.0,0.0,0.0,0.0,0.0,0.0,0.0,0.0,0.0,0.0,0.0,0.0,0.0,0.0,0.0,0.0,0.0,0.0,0.0,0.0,0.0,0.0,0.0,0.0,0.0,0.0,0.0,0.0,0.0,0.0,0.0,0.0,2.7939,2.86,2.9584,3.0011,0.0,0.0,3.0189,2.9847,3.0072,0.0,0.0,0.0,0.0,0.0,0.0,0.0,0.0,0.0,0.0,0.0,0.0,0.0,0.0,0.0,0.0,0.0,0.0,0.0,0.0,0.0,0.0,0.0,0.0,0.0,0.0,0.0,0.0,0.0,0.0,0.0,0.0,0.0,0.0,0.0,0.0,0.0,0.0,0.0,0.0,0.0,0.0,0.0,0.0,0.0,0.0,0.0,0.0,0.0,0.0,0.0,0.0,0.0,0.0,0.0,2.7332,3.1602,3.4492,3.6832,3.8598,3.9005,3.8763,3.7837,3.5976,3.3324,0.0,0.0,0.0,0.0,0.0,0.0,0.0,0.0,0.0,0.0,0.0,0.0,0.0,0.0,0.0,0.0,0.0,0.0,0.0,0.0,0.0,0.0,0.0,0.0,0.0,0.0,0.0,0.0,0.0,0.0,0.0,0.0,0.0,0.0,0.0,0.0,0.0,0.0,0.0,0.0,0.0,0.0,3.0593,3.1512,0.0,0.0,0.0,3.2583,3.225,0.0,0.0,0.0,0.0,0.0,0.0,0.0,0.0,0.0,0.0,0.0,0.0,0.0,0.0,0.0,0.0,0.0,0.0,0.0,0.0,0.0,0.0,0.0,0.0,0.0,0.0,0.0,0.0,0.0,0.0,0.0,0.0,0.0,0.0,0.0,0.0,0.0,0.0,0.0,0.0,0.0,0.0,0.0,0.0,0.0,0.0,0.0,0.0,0.0,0.0,0.0,0.0,0.0,0.0,0.0,0.0,0.0,3.2608,3.552,3.7926,3.9821,4.0006,3.9693,3.8943,3.6906,0.0,0.0,0.0,0.0,0.0,0.0,0.0,0.0,0.0,0.0,0.0,0.0,0.0,0.0,0.0,0.0,0.0,0.0,0.0,0.0,0.0,0.0,0.0,0.0,0.0,0.0,0.0,1.5555,0.0,0.0,0.0,0.0,0.0,0.0,0.0,0.0,0.0,0.0,0.0,0.0,0.0,0.0,3.0883,3.2496,3.3417,3.4009,0.0,0.0,3.5219,3.4869,3.4813,3.4288,0.0,0.0,0.0,0.0,0.0,0.0,0.0,0.0,0.0,0.0,0.0,0.0,0.0,0.0,0.0,0.0,0.0,0.0,0.0,0.0,0.0,0.0,0.0,0.0,0.0,0.0,0.0,0.0,0.0,0.0,0.0,0.0,0.0,0.0,0.0,0.0,0.0,0.0,0.0,0.0,0.0,0.0,0.0,0.0,0.0,0.0,0.0,0.0,0.0,0.0,0.0,0.0,0.0,0.0,0.0,3.3892,3.6977,3.9619,4.18,4.2206,4.226,4.2074,3.9348,3.6421,0.0,0.0,0.0,0.0,0.0,0.0,0.0,0.0,0.0,0.0,0.0,0.0,0.0,0.0,0.0,0.0,0.0,0.0,0.0,0.0,0.0,0.0,0.0,0.0,0.0,0.0,0.0,0.0,0.0,0.0,0.0,0.0,0.0,0.0,0.0,0.0,0.0,0.0,0.0,0.0,0.0,3.226,3.3936,3.5258,3.6288,0.0,3.7598,3.8013,3.7671,3.7612,3.7105,3.5632,0.0,0.0,0.0,0.0,0.0,0.0,0.0,0.0,0.0,0.0,0.0,0.0,0.0,0.0,0.0,0.0,0.0,0.0,0.0,0.0,0.0,0.0,0.0,0.0,0.0,0.0,0.0,0.0,0.0,0.0,0.0,0.0,0.0,0.0,0.0,0.0,0.0,0.0,0.0,0.0,0.0,0.0,0.0,0.0,0.0,0.0,0.0,0.0,0.0,0.0,0.0,0.0,0.0,3.0251,3.4747,3.8045,4.0697,4.2626,4.3349,4.3272,4.2402,4.0668,3.8326,0.0,0.0,0.0,0.0,0.0,0.0,0.0,0.0,0.0,0.0,0.0,0.0,0.0,0.0,0.0,0.0,0.0,0.0,0.0,0.0,0.0,0.0,0.0,0.0,0.0,0.0,0.0,0.0,2.0489,2.099,2.0777,0.0,0.0,0.0,0.0,0.0,0.0,0.0,0.0,0.0,0.0,3.4148,3.5836,3.7225,0.0,0.0,3.9221,3.9653,3.9694,3.9188,3.8519,3.758,3.5533,0.0,0.0,0.0,0.0,0.0,0.0,0.0,0.0,0.0,0.0,0.0,0.0,0.0,0.0,0.0,0.0,0.0,0.0,0.0,0.0,0.0,0.0,0.0,0.0,0.0,0.0,0.0,0.0,0.0,0.0,0.0,0.0,0.0,0.0,0.0,0.0,0.0,0.0,0.0,0.0,0.0,0.0,0.0,0.0,0.0,0.0,0.0,0.0,0.0,0.0,0.0,0.0,3.1493,3.5999,3.9442,4.2178,4.4146,4.4877,4.4866,4.4008,4.2522,4.0539,0.0,0.0,0.0,0.0,0.0,0.0,0.0,0.0,0.0,0.0,0.0,0.0,0.0,0.0,0.0,0.0,0.0,0.0,0.0,0.0,0.0,0.0,0.0,0.0,0.0,0.0,0.0,0.0,2.208,2.2224,2.1477,0.0,0.0,0.0,0.0,0.0,0.0,0.0,0.0,0.0,0.0,3.6266,3.8072,3.9551,4.0524,4.0696,4.125,4.1622,4.1625,4.1078,4.0426,3.9799,0.0,0.0,0.0,0.0,0.0,0.0,0.0,0.0,0.0,0.0,0.0,0.0,0.0,0.0,0.0,0.0,0.0,0.0,0.0,0.0,0.0,0.0,0.0,0.0,0.0,0.0,0.0,0.0,0.0,0.0,1.5622,0.0,0.0,0.0,0.0,0.0,0.0,0.0,0.0,0.0,0.0,0.0,0.0,0.0,0.0,0.0,0.0,0.0,0.0,0.0,0.0,0.0,0.0,3.2569,3.787,4.13,4.4204,4.6503,4.6948,4.7272,4.7528,4.53,4.3276,4.1619,0.0,0.0,0.0,0.0,0.0,0.0,0.0,0.0,0.0,0.0,0.0,0.0,0.0,0.0,0.0,0.0,0.0,0.0,0.0,0.0,0.0,0.0,0.0,0.0,0.0,0.0,2.3747,2.3954,2.3471,0.0,0.0,0.0,0.0,0.0,0.0,0.0,0.0,0.0,0.0,3.5992,3.8632,4.0559,4.2244,4.3262,4.3291,4.3931,4.4198,4.3642,4.3454,4.3234,0.0,0.0,0.0,0.0,0.0,0.0,0.0,0.0,0.0,0.0,0.0,0.0,0.0,0.0,0.0,0.0,0.0,0.0,0.0,0.0,0.0,0.0,0.0,0.0,0.0,0.0,0.0,2.0986,2.0639,0.0,0.0,0.0,0.0,0.0,0.0,0.0,0.0,0.0,0.0,0.0,3.2066,3.2346,0.0,0.0,0.0,0.0,0.0,0.0,0.0,0.0,0.0,0.0,0.0,0.0,3.4711,3.9061,4.2687,4.545,4.7376,4.8116,4.8238,4.7804,4.6871,4.4847,4.1615,0.0,0.0,0.0,0.0,0.0,0.0,0.0,0.0,0.0,0.0,0.0,0.0,0.0,0.0,0.0,0.0,0.0,0.0,0.0,0.0,0.0,0.0,0.0,0.0,0.0,2.4192,0.0,0.0,0.0,0.0,0.0,0.0,0.0,0.0,0.0,0.0,0.0,3.3338,3.6327,3.888,4.1099,4.2858,4.407,4.4862,0.0,0.0,0.0,0.0,0.0,0.0,0.0,0.0,0.0,0.0,0.0,0.0,0.0,0.0,3.9373,3.6631,3.6275,3.6411,3.6428,0.0,0.0,0.0,0.0,0.0,0.0,0.0,0.0,0.0,0.0,0.0,0.0,0.0,0.0,2.5214,0.0,2.3624,0.0,0.0,0.0,0.0,0.0,0.0,0.0,0.0,3.3049,3.4974,3.6884,3.7141,3.7237,0.0,3.6696,3.4045,0.0,0.0,0.0,0.0,0.0,0.0,0.0,0.0,3.6687,4.075,4.4115,4.6709,4.8483,4.9403,4.9593,4.9024,4.833,4.6213,4.263,4.0248,3.7494,0.0,0.0,0.0,0.0,0.0,0.0,0.0,0.0,0.0,0.0,0.0,0.0,0.0,0.0,0.0,0.0,0.0,0.0,0.0,0.0,0.0,0.0,0.0,2.6417,0.0,0.0,0.0,0.0,0.0,0.0,0.0,0.0,0.0,3.1028,3.3584,3.6593,3.9572,4.1737,4.3567,4.5044,0.0,0.0,0.0,0.0,0.0,0.0,0.0,4.6706,4.707,4.6342,4.583,4.6277,4.6322,4.6402,4.6577,0.0,0.0,4.1665,4.1097,4.1302,4.1538,4.2238,4.2951,4.3367,4.3991,4.4742,0.0,0.0,0.0,0.0,0.0,0.0,0.0,0.0,2.939,2.9563,0.0,2.8248,0.0,0.0,0.0,0.0,0.0,2.9851,0.0,0.0,3.7777,4.0037,4.1806,4.211,4.2426,4.2661,4.2103,4.0902,3.8821,3.288,0.0,0.0,0.0,0.0,0.0,0.0,3.8548,4.2909,4.5679,4.8021,4.9876,5.0805,5.1306,5.1197,4.9665,4.7531,4.484,4.3137,4.0778,3.7512,3.4748,0.0,0.0,0.0,0.0,0.0,0.0,0.0,0.0,0.0,0.0,0.0,0.0,0.0,0.0,0.0,0.0,0.0,0.0,0.0,0.0,2.8747,0.0,0.0,0.0,0.0,0.0,0.0,0.0,0.0,0.0,0.0,3.468,3.7096,3.9965,4.2666,0.0,0.0,0.0,0.0,4.8787,4.8158,4.8726,4.9022,4.8401,4.8521,4.8919,4.9486,0.0,0.0,4.907,4.9621,5.0107,5.0322,5.0823,5.0193,4.6741,4.6073,4.6261,4.6899,4.7627,4.8327,4.8468,4.8783,4.9501,3.4943,0.0,0.0,0.0,0.0,3.1809,3.2955,3.378,3.4313,3.4533,3.439,3.3055,0.0,0.0,0.0,0.0,0.0,0.0,3.6256,3.8452,4.0571,4.2454,4.4067,4.4556,4.5027,4.5492,4.4918,4.4259,4.3476,4.0749,3.7189,3.2979,0.0,0.0,0.0,0.0,4.1782,4.4895,4.7301,4.9287,5.0888,5.1164,5.1306,5.1306,5.0042,4.8786,4.7606,4.5652,4.368,4.1728,3.8614,0.0,0.0,0.0,0.0,0.0,0.0,0.0,0.0,0.0,0.0,0.0,0.0,0.0,0.0,0.0,0.0,0.0,0.0,0.0,3.122,3.1752,3.186,0.0,0.0,0.0,0.0,0.0,0.0,0.0,0.0,0.0,4.2267,4.2038,4.2785,0.0,0.0,4.8589,5.0123,5.0763,5.1121,5.1119,5.1312,0.0,5.0821,5.0804,5.1012,5.1381,5.2085,5.2765,5.3316,5.3549,5.3699,5.3718,5.3922,5.3838,5.3286,5.1261,4.9911,5.0,5.0607,5.1229,5.1708,5.233,5.2965,4.0449,3.7268,3.5728,3.4942,3.4946,3.6323,3.7344,3.7971,3.8587,3.8697,3.8504,3.7507,3.6435,3.54,3.467,0.0,0.0,0.0,4.0168,4.2205,4.358,4.5135,4.6772,4.7153,4.7758,4.8482,4.8158,4.7694,4.7188,4.6389,4.3885,3.9844,0.0,0.0,3.9338,4.1782,4.4275,4.6739,4.8514,5.0115,5.1574,5.1825,5.1825,5.1599,5.0745,4.9956,4.9304,4.7621,4.6083,4.4752,4.2099,3.9267,0.0,0.0,0.0,0.0,0.0,0.0,0.0,0.0,0.0,0.0,0.0,2.2593,2.3664,0.0,0.0,0.0,3.0317,3.2761,3.5223,3.5159,0.0,0.0,0.0,0.0,0.0,0.0,0.0,4.0786,4.3074,4.5491,4.7985,4.7553,4.7421,4.8665,4.9828,5.1016,5.2176,0.0,5.315,5.333,5.343,5.3411,5.3173,5.3138,5.3302,5.3718,5.464,5.5448,5.5837,5.5957,5.5927,5.5957,5.5957,5.6077,5.6492,5.488,5.3533,5.3563,5.3862,5.4281,5.4695,5.5059,5.5538,4.4866,4.4615,4.1672,4.0037,3.9576,4.0797,4.137,4.1496,4.2216,4.228,4.1836,4.1534,4.081,3.9805,3.9536,0.0,4.1349,4.2445,4.4062,4.6058,4.668,4.7933,4.964,4.969,5.0293,5.1322,5.1348,5.0938,5.0083,5.0058,4.9124,4.7245,4.436,4.302,4.3245,4.4616,4.6345,4.8384,4.9535,5.0772,5.2117,5.2619,5.2644,5.2176,5.1632,5.0993,5.0249,4.9177,4.8013,4.6755,4.5142,4.2726,3.9436,0.0,0.0,0.0,0.0,0.0,0.0,0.0,0.0,0.0,0.0,0.0,0.0,0.0,0.0,0.0,3.4995,0.0,3.9339,3.8906,0.0,0.0,0.0,3.905,4.0177,4.1728,4.3475,4.5486,0.0,0.0,5.2063,5.3014,5.304,5.1815,5.2553,5.3334,5.3676,5.4522,5.5058,5.5206,5.5355,5.5508,5.5543,5.5513,5.5777,5.6402,5.6971,5.739,5.7483,5.7483,5.7453,5.7483,5.7423,5.7453,5.7453,5.745,5.742,5.7386,5.727,5.724,5.7326,5.7472,5.7742,4.7114,4.7064,4.6268,4.4953,4.333,4.3844,4.4556,4.533,4.535,4.5465,4.5685,4.4968,4.4186,4.3339,4.3281,4.3428,4.3836,4.5525,4.6625,4.7228,4.8764,4.9776,5.021,5.067,5.1247,5.1875,5.19,5.1791,5.1565,5.1565,5.0972,4.9851,4.9361,4.7877,4.5582,4.7217,4.8578,4.9527,5.0855,5.1924,5.2669,5.282,5.282,5.2694,5.2043,5.1585,5.1372,5.0162,4.924,4.8722,4.7124,4.5059,4.2579,4.0225,0.0,0.0,0.0,0.0,0.0,0.0,0.0,0.0,0.0,2.8219,2.9893,0.0,3.3534,0.0,3.8571,4.1006,4.2067,4.2585,0.0,0.0,4.4306,4.5004,4.6098,4.7348,4.8833,5.0672,5.1911,5.3206,5.4746,5.5919,5.6565,5.6422,5.5642,5.5504,5.6502,5.7011,5.7497,5.7942,5.8085,5.8171,5.8112,5.8171,5.8351,5.9039,5.9279,5.9548,6.0057,6.0119,6.0146,6.0146,6.0146,6.0119,6.0116,6.0311,6.0415,6.0355,5.9501,5.888,5.9519,6.0054,6.0557,4.9414,4.9414,4.9549,4.8925,4.7739,4.6709,4.6634,4.7214,4.7093,4.733,4.7826,4.757,4.724,4.6811,4.6842,4.6967,4.7265,4.8319,4.8932,4.9239,5.0303,5.0921,5.1197,5.1749,5.2404,5.3103,5.3296,5.3525,5.3697,5.3697,5.3316,5.2565,5.2506,5.1428,4.9414,4.9829,5.0356,5.0872,5.2093,5.2867,5.3145,5.3341,5.3384,5.3359,5.2495,5.2108,5.2214,5.1049,5.0142,4.962,4.8715,4.7239,4.5002,4.3073,4.0612,0.0,0.0,0.0,0.0,0.0,0.0,0.0,0.0,0.0,0.0,0.0,3.7774,4.0275,4.2691,4.4642,4.5919,4.6559,4.7382,4.8542,4.9082,4.9867,5.1138,5.2367,5.3544,5.4773,5.5899,5.682,5.7636,5.8584,5.9237,5.9431,5.8695,5.8316,5.8673,5.911,5.955,5.9937,5.9997,5.9997,5.9997,5.9997,6.0116,6.0446,6.0535,6.0685,6.1044,6.1076,6.1132,6.1271,6.1269,6.1445,6.1855,6.2054,6.2314,6.2798,6.2354,6.1634,6.1258,6.1467,6.1883,5.1539,5.1573,5.1948,5.2081,5.1895,4.9652,4.8586,4.846,4.8429,4.8699,4.9209,4.9654,4.9913,4.992,4.9952,5.0197,5.065,5.0801,5.1129,5.164,5.1791,5.2119,5.2563,5.3042,5.3693,5.4495,5.5029,5.5398,5.5697,5.5774,5.5518,5.4988,5.4492,5.3979,5.3484,5.243,5.2043,5.2337,5.3156,5.358,5.358,5.3861,5.3997,5.3945,5.2928,5.2502,5.2744,5.1747,5.0815,5.005,5.0002,4.9035,4.6946,4.5599,4.393,0.0,3.9427,0.0,0.0,0.0,0.0,0.0,0.0,0.0,0.0,4.0013,4.2677,4.5526,4.6974,4.8464,5.0133,5.0657,5.1592,5.3188,5.3491,5.4099,5.5456,5.6652,5.7578,5.8067,5.9162,5.9987,6.0149,6.0864,6.1315,6.1343,6.1465,6.1375,6.0924,6.1104,6.1373,6.1495,6.1613,6.1762,6.1704,6.1644,6.1674,6.1644,6.1762,6.1613,6.1819,6.1789,6.1841,6.2094,6.2268,6.25,6.3234,6.3439,6.3863,6.4866,6.5016,6.4499,6.3163,6.2768,6.2768,5.2831,5.2882,5.3443,5.3681,5.3596,5.3128,5.2345,5.1444,5.1151,5.1129,5.1231,5.1357,5.1547,5.1783,5.1783,5.1834,5.1988,5.2899,5.3385,5.3546,5.444,5.4926,5.5028,5.513,5.5267,5.5465,5.6002,5.6028,5.5697,5.6159,5.6047,5.5543,5.5441,5.5338,5.521,0.0,0.0,0.0,5.381,5.3895,5.3929,5.3963,5.3997,5.3971,5.3134,0.0,5.2777,5.197,5.1246,5.0655,5.0629,0.0,0.0,0.0,0.0,0.0,0.0,0.0,0.0,0.0,0.0,0.0,4.5315,4.4917,4.3201,4.5555,4.7671,4.8775,5.0648,5.2234,5.3241,5.4516,5.5622,5.6441,5.7211,5.7952,5.8739,5.9446,6.0062,6.0397,6.0691,6.0869,6.1046,6.1942,6.2718,6.275,6.3617,6.4157,6.4007,6.3228,6.3109,6.4007,6.4067,6.4187,6.4246,6.4157,6.4036,6.4246,6.4246,6.4304,6.4478,6.4566,6.4743,6.4971,6.515,6.5119,6.5388,6.562,6.5792,6.6097,6.6361,6.6324,6.5727,6.5578,6.5696,5.4441,0.0,5.498,5.5177,0.0,5.5357,5.5088,5.4459,5.3382,5.3104,5.3359,5.3606,5.3835,5.3979,5.3979,5.3979,5.4005,5.456,5.4851,5.4877,5.5441,5.5697,5.5697,5.6005,5.6213,5.6414,5.692,5.7145,5.7099,5.7358,5.7358,5.7073,5.6823,5.6694,5.6668,5.6374,5.5762,5.4851,5.5048,5.5117,5.5117,5.5004,5.4951,5.4899,5.4004,0.0,0.0,0.0,0.0,0.0,0.0,0.0,0.0,0.0,0.0,4.8708,4.7722,4.7205,4.7205,4.7223,4.7926,4.9562,5.1625,5.1523,4.8522,4.9973,5.146,5.2451,5.3842,5.5297,5.6814,5.7856,5.8813,5.9825,6.0702,6.1374,6.1806,6.24,6.2817,6.2991,6.302,6.302,6.302,6.3558,6.4006,6.4066,6.4545,6.5144,6.5353,6.4665,6.4366,6.4904,6.4994,6.4994,6.5024,6.5143,6.5262,6.5261,6.538,6.5556,6.5703,6.5732,6.5849,6.6141,6.6228,6.6318,6.6829,6.7035,6.7243,6.7548,6.7758,6.7844,6.7609,6.712,6.6688,5.6061,5.6061,5.653,5.6738,5.6876,5.7129,5.732,5.7251,0.0,0.0,0.0,5.5622,5.5837,5.5906,5.5872,5.5906,5.5906,5.6009,5.6061,5.6061,5.6164,5.6267,5.637,5.6798,5.7258,5.7671,5.8076,5.8489,5.8775,5.881,5.8775,5.8784,5.8375,5.814,5.8113,5.7634,5.712,5.6508,5.6443,5.6375,5.6409,5.6156,5.6066,5.6066,5.5046,5.4497,5.4497,5.4001,5.3484,5.3078,5.3051,5.2848,5.2444,5.2248,5.2201,5.2209,5.1633,5.1552,5.2155,5.2052,5.2669,5.4393,5.6817,5.6796,5.3456,5.3969,5.5003,5.6386,5.7101,5.8359,6.0256,6.0819,6.1557,6.2823,6.3475,6.3891,6.4187,6.4635,6.4874,6.4994,6.4874,6.4994,6.4874,6.5024,6.5174,6.5174,6.5323,6.5652,6.6162,6.5862,6.5383,6.5443,6.5532,6.5443,6.5503,6.5892,6.601,6.628,6.6578,6.6694,6.6753,6.6812,6.6899,6.7405,6.719,6.7614,6.8248,6.8521,6.8643,6.9135,6.9228,6.9259,6.9135,6.8304,6.7475,5.739,5.7451,5.7973,5.8478,5.8984,5.8993,5.9281,5.9532,5.7084,5.602,5.6098,5.621,5.6375,5.6625,5.6625,5.6625,5.6651,5.7181,5.7425,5.7451,5.7885,5.8381,5.8886,5.8964,5.9277,5.9721,5.9825,5.9914,5.995,5.996,5.9986,5.996,5.9908,5.9856,5.9856,5.9777,5.9679,5.9518,5.7686,5.6755,5.6755,5.6685,5.6693,5.6667,5.604,5.5674,5.5647,5.5151,5.4977,5.5143,5.5175,5.5313,5.5528,5.5519,5.5654,5.5913,5.5848,5.6082,5.6772,5.7095,5.781,5.9154,6.0599,6.0078,5.7079,5.8009,5.9305,6.0294,6.0876,6.1829,6.2955,6.353,6.398,6.4308,6.4636,6.4845,6.4964,6.5024,6.5144,6.5144,6.4994,6.5054,6.5174,6.5532,6.5862,6.5951,6.6311,6.7031,6.7696,6.7332,6.679,6.67,6.6729,6.6822,6.7125,6.7667,6.8061,6.8486,6.8911,6.9245,6.9488,6.9518,6.9608,7.0124,6.9939,7.0122,7.0336,7.049,7.0367,7.0459,7.0459,7.049,7.0459,6.9813,6.9166,5.9045,5.9072,5.9333,5.9594,5.983,5.983,5.996,6.0081,5.8971,5.843,5.843,5.843,5.8475,5.8618,5.8653,5.8618,5.8679,5.8941,5.9045,5.9072,5.9307,5.9568,5.9803,5.983,5.996,6.0222,6.0222,6.0222,6.0222,6.0222,6.0222,6.0222,6.0222,6.0222,6.0222,6.0222,6.0222,6.0195,5.9202,5.8618,5.8653,5.8366,5.8183,5.8183,5.7346,5.6953,5.7159,5.6633,5.6487,5.6837,5.7064,5.7264,5.7457,5.7761,5.8129,5.8456,5.8711,5.9036,5.9555,6.0374,6.1257,6.2205,6.3281,6.3547,6.2463,6.1875,6.1835,6.2433,6.2798,6.3428,6.4505,6.4898,6.5438,6.6397,6.6579,6.6789,6.7059,6.6819,6.661,6.658,6.6311,6.6101,6.6101,6.637,6.655,6.661,6.7272,6.8209,6.9151,6.8938,6.8603,6.8603,6.8634,6.8665,6.8849,6.9245,6.961,6.9824,7.016,7.0496,7.0709,7.0739,7.08,7.0891,7.0921,7.089,7.0921,7.089,7.089,7.089,7.089,7.089,7.0828,7.0367,6.969,6.0222,6.0222,6.0222,6.03,6.0431,6.0561,6.0614,6.0614,6.0614,6.0614,6.0588,6.0316,6.0222,6.0222,6.0222,6.0222,6.0222,6.0222,6.0222,6.0222,6.0222,6.0237,6.0394,6.0431,6.0483,6.0588,6.0614,6.0614,6.0614,6.0614,6.0614,6.0614,6.0614,6.0614,6.0577,6.0687,6.0724,6.076,6.0797,6.0702,6.0331,5.9922,5.9748,5.9777,5.9025,5.8631,5.8911,5.8618,5.862,5.897,5.9413,5.9718,5.9819,6.0356,6.0894,6.1295,6.1618,6.2005,6.249,6.3529,6.4361,6.4869,6.5685,6.6403,6.6755,6.5425,6.4484,6.467,6.4789,6.5213,6.612,6.6332,6.6842,6.8076,6.8257,6.8347,6.8824,6.8437,6.8017,6.7928,6.7388,6.6969,6.6999,6.6999,6.7059,6.7392,6.8209,6.9212,7.0096,7.0341,7.0402,7.0524,7.0341,6.9974,7.0097,7.0434,7.0679,7.0832,7.1138,7.1414,7.1475,7.1413,7.1413,7.1475,7.1444,7.1506,7.1413,7.1413,7.1475,7.1506,7.1536,7.1413,7.1229,7.0859,7.009,6.0248,6.0222,6.0274,6.0499,6.1058,6.1555,6.1801,6.1801,6.1827,6.1853,6.1697,6.0692,6.0274,6.0222,6.0274,6.03,6.0274,6.0222,6.0274,6.0274,6.0222,6.0509,6.0969,6.0995,6.1319,6.1749,6.1801,6.1749,6.1749,6.1775,6.1827,6.1853,6.1853,6.1801,6.1865,6.2163,6.2376,6.2376,6.2683,6.2153,6.081,6.0704,6.0832,6.1228,6.1122,6.1068,6.1096,6.1407,6.1744,6.2158,6.2783,6.3329,6.3638,6.4047,6.4618,6.5227,6.5355,6.5811,6.6672,6.7275,6.7471,6.7656,6.7885,6.8195,6.8315,6.8357,6.83,6.8021,6.7989,6.8026,6.861,6.8552,6.8552,6.8793,6.8914,6.8944,6.8944,6.8437,6.8017,6.7987,6.7419,6.6999,6.7029,6.706,6.7422,6.8301,6.9151,7.0158,7.1137,7.1382,7.1659,7.2058,7.129,7.0372,7.0587,7.1015,7.1476,7.1814,7.2337,7.2552,7.2552,7.2614,7.2768,7.2398,7.2614,7.2583,7.2645,7.2798,7.2706,7.2491,7.2491,7.2552,7.209,7.1782,7.1228,6.1267,6.1241,6.1267,6.1398,6.1633,6.1932,6.201,6.201,6.201,6.201,6.1958,6.1487,6.1278,6.1267,6.1267,6.1241,6.1267,6.1267,6.1241,6.1267,6.1267,6.1398,6.1607,6.1633,6.1764,6.201,6.201,6.201,6.2048,6.2261,6.2459,6.2619,6.2656,6.2656,6.2656,6.2805,6.299,6.3249,6.3369,6.3385,6.3199,6.2756,6.2574,6.2729,6.2651,6.2687,6.2936,6.3,6.3194,6.3577,6.4473,6.5052,6.5188,6.5726,6.6264,6.6784,6.7014,6.7406,6.802,6.8181,6.837,6.8591,6.875,6.8933,6.9321,6.9509,6.9658,6.9801,6.9232,6.8847,6.9002,6.9004,6.9153,6.9482,6.9572,6.9572,6.9604,6.8974,6.8465,6.8047,6.7603,6.7304,6.7335,6.7487,6.8183,6.9336,7.0129,7.0862,7.2059,7.2366,7.2551,7.2767,7.2243,7.1905,7.1936,7.2182,7.2398,7.2583,7.2829,7.2983,7.2983,7.2983,7.2983,7.2983,7.2983,7.2983,7.2922,7.2983,7.2983,7.3014,7.3014,7.2953,7.2891,7.2551,7.2055,6.201,6.201,6.201,6.201,6.201,6.201,6.201,6.201,6.201,6.201,6.201,6.201,6.201,6.201,6.201,6.201,6.201,6.201,6.201,6.201,6.201,6.201,6.201,6.201,6.201,6.201,6.201,6.2048,6.2198,6.2534,6.2916,6.3222,6.3259,6.3332,6.3443,6.3516,6.3773,6.4147,6.4283,6.4681,6.5193,6.4978,6.4654,6.4374,6.428,6.4418,6.4666,6.4777,6.4908,6.5184,6.624,6.684,6.6873,6.7409,6.787,6.8197,6.8584,6.8875,6.9131,6.9163,6.9257,6.9481,6.9512,6.9722,7.0111,7.0231,7.044,7.0709,7.0051,6.9572,6.9512,6.9542,6.9722,7.0171,7.0231,7.0233,6.9961,6.9456,6.8861,6.8233,6.7848,6.7638,6.7729,6.8243,6.9245,7.019,7.0893,7.1507,7.2644,7.2952,7.2983,7.2983,7.2983,7.2952,7.2983,7.2922,7.2983,7.2983,7.2983,7.2983,7.2983,7.2983,7.2983,7.2983,7.2983,7.3076,7.3169,7.3169,7.32,7.32,7.3262,7.3385,7.363,7.3256,7.3126,6.201,6.201,6.201,6.201,6.201,6.201,6.201,6.201,6.201,6.201,6.201,6.201,6.201,6.201,6.201,6.201,6.201,6.201,6.201,6.201,6.201,6.201,6.201,6.201,6.201,6.2048,6.2048,6.2235,6.2635,6.2953,6.3259,6.37,6.3782,6.3919,6.4283,6.4672,6.5005,6.5372,6.5656,6.6074,6.656,6.716,6.6916,6.6109,6.6258,6.6413,6.6546,6.711,6.7496,6.753,6.8461,6.9094,6.9128,6.949,6.9825,7.0153,7.0509,7.0704,7.0674,7.0645,7.0677,7.0769,7.0679,7.0799,7.0769,7.0769,7.0799,7.0889,7.0769,7.0679,7.0679,7.059,7.0679,7.0769,7.0829,7.0592,7.0053,6.9769,6.9143,6.8633,6.8334,6.8273,6.8152,6.9428,7.0159,7.0832,7.1844,7.2829,7.2891,7.2983,7.2983,7.2983,7.2983,7.2983,7.2983,7.2983,7.2983,7.2983,7.2983,7.3014,7.3014,7.2983,7.3014,7.3045,7.3138,7.3262,7.3417,7.3539,7.3662,7.3723,7.3845,7.4027,7.4419,7.4389,7.4346,6.201,6.201,6.201,6.201,6.201,6.201,6.201,6.201,6.201,6.201,6.201,6.201,6.201,6.201,6.201,6.201,6.201,6.201,6.201,6.201,6.201,6.201,6.201,6.201,6.216,6.2347,6.2385,6.2831,6.3653,6.4055,6.4573,6.5149,6.5435,6.5649,6.5755,6.5897,6.6251,6.6847,6.7021,6.7368,6.7953,6.8499,6.8533,6.813,6.8022,6.8022,6.8022,6.8465,6.8736,6.8736,6.9541,7.0005,7.0038,7.0334,7.0593,7.0724,7.0854,7.0919,7.0919,7.0919,7.0919,7.0919,7.0919,7.0919,7.0919,7.0919,7.0919,7.0919,7.0919,7.0919,7.0919,7.0919,7.0919,7.0919,7.1083,7.0972,7.0494,7.0356,7.0182,6.9638,6.9519,6.9671,6.9792,7.0372,7.0923,7.1414,7.2029,7.2521,7.2922,7.2983,7.2983,7.2983,7.2983,7.2983,7.2983,7.2983,7.2983,7.2983,7.3014,7.3169,7.32,7.3293,7.3324,7.3539,7.3539,7.3662,7.3906,7.4178,7.4269,7.4359,7.4448,7.4866,7.5222,7.5308,7.5502,6.201,6.201,6.201,6.201,6.201,6.201,6.201,6.201,6.201,6.201,6.201,6.201,6.201,6.201,6.201,6.2085,6.216,6.2085,6.2085,6.2198,6.2198,6.2273,6.2321,6.2358,6.247,6.2794,6.3054,6.369,6.4573,6.5041,6.5684,6.6532,6.6812,6.7091,6.7264,6.7299,6.7644,6.8124,6.8227,6.8533,6.9106,6.9474,6.9674,6.9641,6.9541,6.9341,6.9174,6.9474,6.9674,6.9741,7.0236,7.0561,7.0593,7.0759,7.0919,7.0919,7.0919,7.0919,7.0919,7.0919,7.0919,7.0919,7.0919,7.0919,7.0919,7.0919,7.0919,7.0919,7.0986,7.1051,7.1113,7.1178,7.121,7.1145,7.1244,7.1196,7.0781,7.0913,7.0829,7.0434,7.0404,7.0647,7.0891,7.1105,7.1444,7.1967,7.2152,7.2552,7.2891,7.2983,7.2983,7.2983,7.2983,7.3076,7.3138,7.3231,7.3231,7.3231,7.3262,7.3355,7.357,7.3662,7.3815,7.3997,7.4147,7.4238,7.4448,7.4776,7.4954,7.5073,7.5396,7.5771,7.6092,7.6349,7.6593,6.201,6.201,6.201,6.201,6.201,6.201,6.201,6.201,6.201,6.201,6.201,6.201,6.2048,6.2048,6.2085,6.2235,6.2497,6.231,6.2347,6.2598,6.2598,6.2794,6.3037,6.3037,6.3148,6.3332,6.3982,6.4717,6.5514,6.5968,6.6672,6.7541,6.7782,6.8124,6.877,6.8702,6.8905,6.9207,6.9274,6.9474,6.9903,7.02,7.0334,7.0367,7.0596,7.0465,6.9936,7.02,7.0364,7.0397,7.0691,7.0886,7.0824,7.0919,7.0919,7.0919,7.0919,7.0919,7.0919,7.0919,7.0919,7.0919,7.0919,7.0919,7.0919,7.0951,7.0951,7.0986,7.1302,7.1464,7.1558,7.1873,7.1875,7.15,7.15,7.1419,7.1188,7.1257,7.1322,7.1077,7.1076,7.0952,7.1105,7.1567,7.206,7.2214,7.2552,7.2891,7.2952,7.2983,7.2983,7.3045,7.3107,7.32,7.3355,7.354,7.3509,7.3539,7.357,7.3662,7.3997,7.4178,7.4509,7.4717,7.4954,7.5041,7.5452,7.5771,7.6146,7.6349,7.6573,7.6803,7.7106,7.7417,7.7665,6.201,6.201,6.201,6.201,6.201,6.201,6.201,6.201,6.201,6.201,6.201,6.201,6.2123,6.2374,6.2411,6.2608,6.2953,6.3101,6.3101,6.299,6.2953,6.3185,6.348,6.3553,6.3928,6.4654,6.522,6.6003,6.6882,6.7333,6.7959,6.8702,6.9073,6.9337,6.9537,6.957,6.9737,7.0005,7.0068,7.0236,7.0531,7.0691,7.0756,7.0789,7.0824,7.0789,7.0596,7.0691,7.0756,7.0756,7.0824,7.0919,7.0919,7.0919,7.0919,7.0919,7.0919,7.0919,7.0919,7.0919,7.0919,7.0889,7.0889,7.0919,7.0951,7.1145,7.1242,7.1335,7.1956,7.2484,7.2607,7.3036,7.2918,7.1939,7.201,7.2168,7.2143,7.2333,7.2428,7.2367,7.2337,7.2337,7.2337,7.2614,7.2614,7.2645,7.286,7.2983,7.3014,7.3045,7.3107,7.3262,7.3324,7.3478,7.3784,7.4088,7.4299,7.4329,7.4299,7.4329,7.4599,7.4925,7.522,7.5603,7.5835,7.6185,7.6556,7.6993,7.7455,7.7635,7.7834,7.8042,7.8269,7.8616,7.8949,6.2664,6.2638,6.2638,6.2714,6.2865,6.2865,6.2941,6.3054,6.3054,6.3092,6.3065,6.2854,6.2888,6.3059,6.3022,6.3212,6.359,6.4074,6.4256,6.4138,6.4001,6.4183,6.4545,6.4717,6.5264,6.6117,6.6532,6.7195,6.8261,6.8504,6.9006,6.9641,6.9939,7.0134,7.0265,7.0298,7.0397,7.0531,7.0593,7.0724,7.0854,7.0919,7.0919,7.0919,7.0919,7.0919,7.0919,7.0919,7.0919,7.0919,7.0919,7.0919,7.0919,7.0919,7.0919,7.0919,7.0919,7.0919,7.0919,7.0919,7.0919,7.0889,7.0986,7.1113,7.1178,7.1403,7.1656,7.2083,7.2705,7.3295,7.3569,7.4003,7.3913,7.3242,7.3214,7.3312,7.3407,7.3596,7.3568,7.3476,7.3322,7.3261,7.3045,7.2983,7.2983,7.2983,7.2983,7.3076,7.3107,7.32,7.3386,7.3601,7.3753,7.3997,7.4238,7.4627,7.5075,7.5163,7.5193,7.5252,7.5425,7.5742,7.6088,7.6791,7.7166,7.7879,7.8305,7.8799,7.9238,7.9224,7.9227,7.9681,8.0068,8.0155,8.0454,6.3787,6.3749,6.3749,6.3913,6.4219,6.4257,6.4383,6.4767,6.4778,6.4752,6.4683,6.4257,6.4119,6.4134,6.422,6.4372,6.4546,6.5402,6.5811,6.5925,6.5834,6.5905,6.6074,6.6426,6.7021,6.7644,6.7782,6.8363,6.9245,6.9341,6.9707,7.0331,7.04,7.0531,7.0756,7.0856,7.0854,7.0854,7.0856,7.0856,7.0919,7.0919,7.0919,7.0919,7.0919,7.0919,7.0919,7.0919,7.0919,7.0919,7.0919,7.0919,7.0919,7.0919,7.0919,7.0919,7.0919,7.0919,7.0919,7.0984,7.0984,7.1016,7.1275,7.1435,7.15,7.1907,7.2373,7.2861,7.3454,7.3984,7.4505,7.4973,7.5103,7.5074,7.4604,7.4512,7.4889,7.4892,7.4553,7.4153,7.3999,7.3814,7.326,7.3137,7.3106,7.3014,7.3045,7.32,7.3355,7.3509,7.3693,7.3966,7.4329,7.4687,7.5043,7.5684,7.612,7.6235,7.6292,7.6496,7.6592,7.6904,7.7451,7.808,7.8738,7.9498,7.9974,8.0327,8.0695,8.0789,8.1023,8.1524,8.1597,8.1461,8.1507,6.4592,6.4592,6.4592,6.463,6.4744,6.4744,6.4847,6.4923,6.4988,6.5317,6.5324,6.5163,6.5494,6.5988,6.623,6.6322,6.6469,6.7277,6.7522,6.7425,6.8027,6.7788,6.7506,6.7919,6.8431,6.8866,6.8958,6.9278,7.0071,7.019,7.0423,7.0726,7.0846,7.0881,7.0919,7.0949,7.0919,7.0919,7.0919,7.0919,7.0919,7.0919,7.0919,7.0919,7.0919,7.0919,7.0919,7.0919,7.0919,7.0919,7.0919,7.0919,7.0919,7.0919,7.0919,7.0919,7.0889,7.0889,7.0954,7.1145,7.1275,7.1307,7.1688,7.185,7.188,7.2624,7.312,7.3581,7.4449,7.5378,7.5655,7.6089,7.6367,7.6337,7.5532,7.4979,7.5075,7.4984,7.4922,7.4769,7.4738,7.4399,7.3937,7.366,7.3538,7.323,7.3231,7.3416,7.3662,7.4089,7.4359,7.4719,7.5073,7.5484,7.5977,7.669,7.7167,7.7329,7.7587,7.7927,7.8124,7.8404,7.9092,7.9775,8.0374,8.107,8.121,8.1431,8.1751,8.222,8.2258,8.2412,8.2255,8.2184,8.2225,6.5757,6.591,6.591,6.6102,6.6444,6.6569,6.6785,6.6947,6.7097,6.7285,6.7418,6.7246,6.7395,6.781,6.8108,6.8189,6.8209,6.9232,6.9517,6.9464,7.0185,6.983,6.9104,6.934,6.9881,7.0212,7.0481,7.0929,7.1391,7.146,7.1559,7.1721,7.1757,7.1757,7.1787,7.1427,7.1308,7.1278,7.1068,7.0919,7.0919,7.0919,7.0919,7.0919,7.0919,7.0919,7.0919,7.0919,7.0919,7.0919,7.0919,7.0919,7.0919,7.0919,7.0919,7.0919,7.1018,7.1083,7.1178,7.1435,7.1628,7.1782,7.2221,7.2593,7.2811,7.3554,7.4144,7.4666,7.5503,7.6029,7.6431,7.6767,7.6952,7.6829,7.6308,7.5846,7.5846,7.5907,7.5692,7.5538,7.5384,7.5169,7.4522,7.4214,7.3939,7.3694,7.3664,7.3877,7.4118,7.4629,7.5134,7.5513,7.6066,7.6613,7.7231,7.791,7.8574,7.8731,7.936,7.9648,7.9622,7.9921,8.0482,8.1195,8.1898,8.2407,8.2434,8.2629,8.3173,8.3414,8.3302,8.3261,8.3193,8.3016,8.3058,6.7264,6.7623,6.7623,6.8007,6.8638,6.9043,6.9205,6.9765,6.9904,7.0127,7.019,6.9841,6.9652,6.9733,7.0021,7.0012,6.9933,7.0946,7.1307,7.1498,7.1816,7.1503,7.0496,7.0821,7.1199,7.1522,7.2187,7.241,7.2551,7.2741,7.2801,7.2714,7.2774,7.2864,7.2595,7.2235,7.2026,7.1876,7.1398,7.1158,7.1068,7.1009,7.0919,7.0919,7.0919,7.0919,7.0919,7.0919,7.0919,7.0919,7.0919,7.0919,7.0919,7.0919,7.0984,7.1078,7.1397,7.1648,7.1713,7.2121,7.2375,7.256,7.3211,7.3647,7.3833,7.4516,7.5228,7.5627,7.5998,7.6398,7.6767,7.6983,7.6983,7.6952,7.689,7.6952,7.6983,7.6983,7.6769,7.6246,7.6123,7.5784,7.5199,7.4617,7.428,7.4284,7.4311,7.4481,7.4954,7.56,7.6034,7.6378,7.7064,7.7828,7.8508,7.9212,7.9801,8.0328,8.1223,8.1569,8.1255,8.1483,8.1876,8.2405,8.2963,8.3286,8.3467,8.3884,8.4249,8.4316,8.4005,8.4208,8.4411,8.4072,8.3971,6.9297,6.9672,6.9672,6.9746,6.9933,7.0007,7.0276,7.0617,7.0662,7.1166,7.1501,7.1495,7.1618,7.1841,7.2102,7.2146,7.175,7.2454,7.276,7.2589,7.269,7.2667,7.2272,7.2447,7.2481,7.2641,7.27,7.2887,7.2954,7.3073,7.2924,7.2984,7.3103,7.2954,7.2954,7.2864,7.2684,7.2595,7.2026,7.1697,7.1577,7.1248,7.1009,7.0979,7.0919,7.0919,7.0919,7.0919,7.0919,7.0919,7.0981,7.1044,7.1016,7.1208,7.1367,7.1584,7.2172,7.267,7.2795,7.3386,7.3915,7.3886,7.4296,7.4704,7.4734,7.5351,7.5815,7.6123,7.6461,7.6767,7.6952,7.6983,7.6983,7.6983,7.6983,7.6983,7.6983,7.6983,7.689,7.6798,7.6706,7.6523,7.5878,7.5519,7.5152,7.4935,7.5015,7.5197,7.5864,7.6674,7.7101,7.7534,7.8563,7.936,7.9754,8.0502,8.123,8.1771,8.2607,8.3069,8.2754,8.2686,8.2975,8.3366,8.385,8.4072,8.4133,8.4242,8.4485,8.4546,8.458,8.458,8.458,8.458,8.458,7.0433,7.0829,7.1012,7.1195,7.1377,7.1595,7.1776,7.1964,7.2143,7.243,7.278,7.2851,7.2957,7.3199,7.3521,7.3461,7.3423,7.3783,7.3947,7.3877,7.3851,7.3851,7.3851,7.3791,7.3732,7.3492,7.3732,7.3821,7.3821,7.3791,7.3911,7.3851,7.3791,7.3911,7.3732,7.3522,7.3373,7.3253,7.2714,7.2355,7.2265,7.2056,7.1607,7.1338,7.1098,7.0919,7.0919,7.1081,7.1326,7.1571,7.1788,7.1608,7.1363,7.1769,7.2113,7.2329,7.3134,7.363,7.3942,7.432,7.4697,7.4758,7.5165,7.5414,7.563,7.6092,7.6429,7.6521,7.6767,7.6983,7.6983,7.6983,7.6983,7.6983,7.6983,7.6983,7.6983,7.6983,7.6983,7.6983,7.6952,7.6929,7.666,7.6363,7.6651,7.6677,7.6327,7.6525,7.7358,7.8098,7.8475,7.911,8.0174,8.0909,8.1156,8.1771,8.2708,8.3211,8.367,8.3918,8.3824,8.385,8.3971,8.4174,8.4309,8.4411,8.4444,8.458,8.458,8.458,8.458,8.458,8.458,8.458,8.458,7.1393,7.1783,7.2107,7.2495,7.2809,7.3099,7.324,7.3381,7.3726,7.3761,7.397,7.397,7.3935,7.4035,7.4214,7.4387,7.4426,7.4598,7.4659,7.4659,7.4629,7.4693,7.4723,7.4629,7.448,7.4151,7.448,7.4753,7.4783,7.4903,7.4629,7.4809,7.4809,7.4659,7.4659,7.436,7.4031,7.3971,7.3402,7.3043,7.2984,7.2894,7.2475,7.2056,7.1765,7.1528,7.1593,7.1851,7.2103,7.2681,7.3033,7.27,7.2391,7.2607,7.3227,7.3258,7.4159,7.4657,7.4813,7.513,7.5414,7.5323,7.5815,7.6123,7.6308,7.6552,7.6798,7.6921,7.6983,7.6983,7.6983,7.6983,7.6983,7.6983,7.6983,7.6983,7.6983,7.6983,7.6983,7.7016,7.7114,7.7185,7.7326,7.7306,7.7872,7.8295,7.7957,7.8002,7.8827,7.9491,7.9926,8.0448,8.1403,8.2314,8.2629,8.2723,8.3655,8.3945,8.4411,8.4444,8.4478,8.4411,8.4309,8.4444,8.4546,8.458,8.458,8.458,8.458,8.458,8.458,8.458,8.458,8.458,8.458,7.3028,7.341,7.348,7.3551,7.3586,7.3691,7.3866,7.411,7.4179,7.4421,7.4663,7.4697,7.4663,7.4697,7.4731,7.4766,7.4766,7.4869,7.4903,7.4903,7.4903,7.4903,7.4903,7.4869,7.4779,7.4779,7.4873,7.4903,7.4903,7.4903,7.4903,7.4903,7.4903,7.4903,7.4873,7.4783,7.4629,7.451,7.4031,7.3732,7.3642,7.3286,7.2987,7.2814,7.2742,7.2784,7.2973,7.3295,7.3644,7.3768,7.4091,7.4096,7.4034,7.422,7.4283,7.4439,7.5123,7.5684,7.5747,7.6242,7.6552,7.6675,7.6675,7.6767,7.6798,7.689,7.6983,7.6983,7.6983,7.6983,7.6983,7.6983,7.6983,7.6983,7.6983,7.6983,7.6983,7.7016,7.7048,7.7081,7.7277,7.7604,7.7868,7.8251,7.8837,7.9366,7.9509,7.9641,8.03,8.0934,8.1417,8.1951,8.2593,8.3433,8.4121,8.4094,8.4377,8.4309,8.4512,8.4512,8.4546,8.458,8.458,8.458,8.458,8.458,8.458,8.458,8.458,8.458,8.458,8.458,8.458,8.458,8.458,7.3901,7.4075,7.4248,7.4352,7.4352,7.4352,7.4456,7.4594,7.4628,7.4697,7.4834,7.4903,7.4903,7.4903,7.4903,7.4903,7.4903,7.4903,7.4903,7.4903,7.4903,7.4903,7.4903,7.4903,7.4903,7.4903,7.4903,7.4903,7.4903,7.4903,7.4903,7.4903,7.4903,7.4903,7.4903,7.4903,7.4903,7.4779,7.4569,7.4424,7.4364,7.393,7.3701,7.3711,7.3705,7.3688,7.3787,7.4081,7.4426,7.4768,7.5087,7.5433,7.5648,7.5709,7.5617,7.5496,7.6025,7.649,7.649,7.6892,7.6921,7.6952,7.6983,7.6983,7.6983,7.6983,7.6983,7.6983,7.6983,7.6983,7.6983,7.6983,7.6983,7.6983,7.6983,7.6983,7.7048,7.7179,7.7245,7.7279,7.7474,7.7926,7.8596,7.9096,7.9761,8.0301,8.0832,8.1309,8.1782,8.2214,8.2641,8.2949,8.3385,8.3884,8.4478,8.4546,8.458,8.458,8.458,8.458,8.458,8.458,8.458,8.458,8.458,8.458,8.458,8.458,8.458,8.458,8.458,8.458,8.458,8.458,8.458,7.4421,7.4456,7.4766,7.4903,7.4903,7.4869,7.4869,7.4903,7.4869,7.4869,7.4903,7.4903,7.4903,7.4903,7.4903,7.4903,7.4903,7.4903,7.4903,7.4903,7.4903,7.4903,7.4903,7.4903,7.4903,7.4903,7.4903,7.4903,7.4903,7.4903,7.4903,7.4903,7.4903,7.4903,7.4903,7.4903,7.4903,7.4903,7.4903,7.4903,7.489,7.4733,7.4667,7.4768,7.4585,7.457,7.4694,7.4986,7.5363,7.5736,7.6051,7.6429,7.686,7.6983,7.6737,7.64,7.6769,7.6921,7.6983,7.6985,7.6983,7.6983,7.6983,7.6983,7.6983,7.6983,7.6983,7.6983,7.6983,7.6983,7.6983,7.6983,7.6983,7.6983,7.6983,7.7048,7.7179,7.7375,7.7669,7.7733,7.7798,7.8343,7.9193,8.0146,8.0852,8.1581,8.2098,8.2538,8.2952,8.3195,8.3549,8.3756,8.4039,8.4309,8.458,8.4546,8.458,8.458,8.458,8.458,8.458,8.458,8.458,8.458,8.458,8.458,8.458,8.458,8.458,8.458,8.458,8.458,8.458,8.458,8.458,7.4834,7.4834,7.4869,7.4903,7.4903,7.4903,7.4903,7.4903,7.4903,7.4903,7.4903,7.4903,7.4903,7.4903,7.4903,7.4903,7.4903,7.4903,7.4903,7.4903,7.4903,7.4903,7.4903,7.4903,7.4903,7.4903,7.4903,7.4903,7.4903,7.4903,7.4903,7.4903,7.4903,7.4903,7.4903,7.4903,7.4903,7.4903,7.4903,7.504,7.5248,7.5294,7.55,7.5708,7.595,7.6027,7.5998,7.6229,7.6546,7.6671,7.6796,7.689,7.6983,7.6983,7.6983,7.689,7.6952,7.6983,7.6983,7.6983,7.6983,7.6983,7.6983,7.6983,7.6983,7.6983,7.6983,7.6983,7.6983,7.7048,7.7048,7.7016,7.7016,7.7081,7.7147,7.731,7.744,7.783,7.8119,7.8691,7.8911,7.9379,8.0056,8.102,8.1959,8.2704,8.3349,8.3689,8.3948,8.4062,8.4101,8.4249,8.4275,8.4512,8.458,8.458,8.458,8.458,8.458,8.458,8.458,8.458,8.458,8.458,8.458,8.4667,8.472,8.472,8.4606,8.4694,8.48,8.472,8.458,8.4606,8.4713,7.4903,7.4903,7.4903,7.4903,7.4903,7.4903,7.4903,7.4903,7.4903,7.4903,7.4903,7.4903,7.4903,7.4903,7.4903,7.4903,7.4903,7.4903,7.4903,7.4903,7.4903,7.4903,7.4903,7.4903,7.4903,7.4903,7.4903,7.4903,7.4903,7.4903,7.4903,7.4903,7.4903,7.4903,7.4903,7.4903,7.4903,7.4937,7.5074,7.5244,7.5448,7.5786,7.6121,7.6288,7.662,7.6752,7.6818,7.6884,7.6983,7.6983,7.6983,7.6983,7.6983,7.6983,7.6983,7.6983,7.6983,7.6983,7.6983,7.6983,7.6983,7.6983,7.6983,7.6983,7.6983,7.6983,7.6983,7.6983,7.6983,7.7081,7.7245,7.7277,7.744,7.7505,7.7538,7.7798,7.8055,7.8342,7.8754,7.9442,8.0056,8.0541,8.102,8.1756,8.2505,8.3042,8.3659,8.4035,8.4244,8.4372,8.4452,8.4512,8.4512,8.458,8.458,8.458,8.458,8.458,8.458,8.458,8.458,8.458,8.4633,8.4667,8.464,8.472,8.4826,8.4879,8.4879,8.4932,8.5011,8.4985,8.4985,8.509,8.5168,7.4903,7.4903,7.4903,7.4903,7.4903,7.4903,7.4903,7.4903,7.4903,7.4903,7.4903,7.4903,7.4903,7.4903,7.4903,7.4903,7.4903,7.4903,7.4903,7.4903,7.4903,7.4903,7.4903,7.4903,7.4903,7.4903,7.4903,7.4903,7.4903,7.4903,7.4903,7.4903,7.4903,7.4903,7.4903,7.4903,7.4903,7.5074,7.538,7.5583,7.5786,7.6221,7.6488,7.6686,7.6851,7.6983,7.6983,7.6983,7.6983,7.6983,7.6983,7.6983,7.6983,7.6983,7.6983,7.6983,7.6983,7.6983,7.6983,7.6983,7.6983,7.6983,7.6983,7.6983,7.6983,7.6983,7.7081,7.7147,7.7147,7.7343,7.757,7.7667,7.7829,7.8022,7.815,7.8469,7.8786,7.913,7.9688,8.0511,8.1139,8.1668,8.2133,8.259,8.3103,8.3493,8.3933,8.4346,8.4507,8.4587,8.4614,8.458,8.458,8.458,8.458,8.458,8.458,8.4633,8.4633,8.472,8.4773,8.48,8.4853,8.4826,8.4773,8.4932,8.5168,8.5142,8.5116,8.5168,8.5247,8.5385,8.5463,8.554,8.554,7.4903,7.4903,7.4903,7.4903,7.4903,7.4903,7.4903,7.4903,7.4903,7.4903,7.4903,7.4903,7.4903,7.4903,7.4903,7.4903,7.4903,7.4903,7.4903,7.4903,7.4903,7.4903,7.4903,7.4903,7.4903,7.4903,7.4903,7.4903,7.4903,7.4903,7.4903,7.4903,7.4903,7.4903,7.4971,7.504,7.5176,7.538,7.5718,7.6054,7.6255,7.6521,7.6653,7.6884,7.695,7.6983,7.6983,7.6983,7.6983,7.6983,7.6983,7.6983,7.6983,7.6983,7.6983,7.6983,7.6983,7.6983,7.6983,7.6983,7.6983,7.6983,7.6983,7.7016,7.7081,7.7016,7.7147,7.7409,7.7507,7.7701,7.7958,7.8086,7.8406,7.8723,7.9005,7.9348,7.9688,7.9965,8.0571,8.1522,8.2133,8.2534,8.2963,8.3354,8.3493,8.3851,8.4096,8.4533,8.4533,8.458,8.458,8.458,8.458,8.458,8.458,8.4606,8.4713,8.48,8.4826,8.4932,8.5037,8.5063,8.509,8.5168,8.5194,8.5325,8.5428,8.5403,8.5377,8.5428,8.5506,8.5695,8.572,8.5746,8.5695,7.4903,7.4903,7.4903,7.4903,7.4903,7.4903,7.4903,7.4903,7.4903,7.4903,7.4903,7.4903,7.4903,7.4903,7.4903,7.4903,7.4903,7.4903,7.4903,7.4903,7.4903,7.4903,7.4903,7.4903,7.4903,7.4903,7.4903,7.4903,7.4903,7.4903,7.504,7.5074,7.504,7.5074,7.5142,7.5414,7.5617,7.5786,7.6088,7.6388,7.6488,7.6719,7.6884,7.695,7.6983,7.6983,7.6983,7.6983,7.6983,7.6983,7.6983,7.6983,7.6983,7.6983,7.6983,7.6983,7.6983,7.6983,7.6983,7.6983,7.6983,7.6983,7.7016,7.7081,7.7214,7.7279,7.7505,7.7764,7.8055,7.8342,7.8659,7.9037,7.9441,7.9688,7.9965,8.0299,8.0691,8.0958,8.1463,8.2362,8.2789,8.3154,8.3604,8.3987,8.4102,8.4211,8.4392,8.458,8.458,8.458,8.458,8.4633,8.4633,8.4694,8.4694,8.4773,8.4906,8.4958,8.5011,8.5142,8.5307,8.5359,8.5385,8.5489,8.5592,8.5609,8.5635,8.5635,8.566,8.5712,8.584,8.6017,8.6026,8.595,8.5925,7.4903,7.4903,7.4903,7.4903,7.4903,7.4903,7.4903,7.4903,7.4903,7.4903,7.4903,7.4903,7.4903,7.4903,7.4903,7.4903,7.4903,7.4903,7.4903,7.4903,7.4903,7.4903,7.4903,7.4903,7.4903,7.4903,7.4903,7.4903,7.4903,7.4971,7.5176,7.5278,7.5312,7.5414,7.5583,7.592,7.6121,7.6221,7.6454,7.6653,7.6719,7.6851,7.6983,7.6983,7.6983,7.6983,7.6983,7.6983,7.6983,7.6983,7.6983,7.6983,7.6983,7.6983,7.6983,7.6983,7.6983,7.6983,7.6983,7.6983,7.6983,7.6983,7.7147,7.7277,7.7442,7.7669,7.8023,7.8405,7.8723,7.9099,7.9504,7.9903,8.0421,8.0691,8.0901,8.1228,8.1814,8.219,8.2619,8.3215,8.3493,8.3741,8.3987,8.4312,8.4312,8.4366,8.4446,8.458,8.458,8.458,8.458,8.4633,8.4747,8.4747,8.4773,8.4985,8.5194,8.5194,8.5273,8.5428,8.5532,8.5618,8.572,8.5874,8.589,8.5865,8.589,8.5941,8.5967,8.6017,8.6118,8.6194,8.6194,8.6153,8.6203,7.4903,7.4903,7.4903,7.4903,7.4903,7.4903,7.4903,7.4903,7.4903,7.4903,7.4903,7.4903,7.4903,7.4903,7.4903,7.4903,7.4903,7.4903,7.4903,7.4903,7.4903,7.4903,7.4903,7.4903,7.4903,7.4903,7.4903,7.4903,7.4937,7.5176,7.5346,7.5617,7.5819,7.5954,7.5957,7.6321,7.6488,7.6554,7.6818,7.6917,7.695,7.6983,7.6983,7.6983,7.6983,7.6983,7.6983,7.6983,7.6983,7.6983,7.6983,7.6983,7.6983,7.6983,7.7016,7.7048,7.7048,7.7048,7.7079,7.7016,7.7147,7.7212,7.7473,7.7669,7.7733,7.8088,7.8691,7.9162,7.9658,8.0117,8.0451,8.0841,8.1375,8.1727,8.193,8.219,8.2732,8.3098,8.3465,8.3686,8.3993,8.4265,8.4419,8.4553,8.4526,8.4553,8.458,8.458,8.4606,8.472,8.4747,8.4826,8.4906,8.5011,8.509,8.5325,8.5489,8.5514,8.5592,8.5737,8.584,8.5865,8.5992,8.6169,8.6144,8.6068,8.6169,8.6269,8.6219,8.6169,8.6219,8.6269,8.6294,8.6294,8.6294,7.4903,7.4903,7.4903,7.4903,7.4903,7.4903,7.4903,7.4903,7.4903,7.4903,7.4903,7.4903,7.4903,7.4903,7.4903,7.4903,7.4903,7.4903,7.4903,7.4903,7.4903,7.4903,7.4903,7.4903,7.4903,7.4903,7.4903,7.504,7.5274,7.5414,7.5786,7.6088,7.6355,7.6488,7.6454,7.6653,7.6818,7.6851,7.695,7.6983,7.6983,7.6983,7.6983,7.6983,7.6983,7.6983,7.6983,7.6983,7.6983,7.6983,7.6983,7.7016,7.7016,7.7016,7.7114,7.7277,7.7343,7.7473,7.77,7.7861,7.7925,7.7894,7.8023,7.831,7.8565,7.913,7.9596,8.0117,8.0781,8.1198,8.1463,8.2161,8.2647,8.2789,8.2986,8.3187,8.3548,8.3741,8.4021,8.4069,8.4285,8.4392,8.4553,8.458,8.458,8.4667,8.4667,8.4633,8.4633,8.4879,8.4985,8.5063,8.5142,8.5273,8.5428,8.5609,8.5737,8.5763,8.589,8.6093,8.6144,8.6118,8.6169,8.6244,8.6269,8.6294,8.6294,8.6294,8.6294,8.6294,8.6294,8.6294,8.6294,8.6294,8.6294,7.4903,7.4903,7.4903,7.4903,7.4903,7.4903,7.4903,7.4903,7.4903,7.4903,7.4903,7.4903,7.4903,7.4903,7.4903,7.4903,7.4903,7.4903,7.4903,7.4903,7.4903,7.4903,7.4903,7.4903,7.4903,7.4903,7.504,7.521,7.538,7.5651,7.6088,7.6587,7.6884,7.6818,7.6785,7.6884,7.695,7.695,7.6983,7.6983,7.6983,7.6983,7.6983,7.6983,7.6983,7.6983,7.6983,7.6983,7.6983,7.6983,7.7016,7.7081,7.7114,7.7212,7.7375,7.7603,7.783,7.8087,7.8501,7.888,7.8974,7.9068,7.9005,7.913,7.9534,8.0178,8.0599,8.1198,8.1872,8.2219,8.2505,8.3243,8.3465,8.3576,8.3714,8.3911,8.4075,8.4265,8.4285,8.4366,8.4419,8.4526,8.458,8.458,8.458,8.4667,8.472,8.4747,8.48,8.4985,8.5228,8.5299,8.5428,8.5558,8.5712,8.589,8.5992,8.6017,8.6144,8.6294,8.6269,8.6219,8.6269,8.6294,8.6294,8.6294,8.6294,8.6294,8.6294,8.6294,8.6294,8.6294,8.6294,8.6294,8.6294,7.4903,7.4903,7.4903,7.4903,7.4903,7.4903,7.4903,7.4903,7.4903,7.4903,7.4903,7.4903,7.4903,7.4903,7.4903,7.4903,7.4903,7.4903,7.4903,7.4903,7.4903,7.4903,7.4937,7.4971,7.5074,7.5108,7.5244,7.5482,7.5516,7.6088,7.662,7.6884,7.695,7.695,7.695,7.695,7.6983,7.6983,7.6983,7.6983,7.6983,7.6983,7.6983,7.6983,7.6983,7.6983,7.6983,7.6983,7.7016,7.7048,7.7048,7.7245,7.7408,7.7507,7.7797,7.815,7.8438,7.8974,7.9472,7.9873,8.0178,8.0299,8.036,8.0208,8.0421,8.1139,8.1668,8.2133,8.2704,8.3014,8.341,8.3659,8.3905,8.4014,8.4156,8.4319,8.4446,8.4526,8.4526,8.4553,8.4553,8.458,8.458,8.458,8.4633,8.48,8.4906,8.509,8.5142,8.5221,8.5403,8.5532,8.5686,8.5865,8.6017,8.6093,8.6144,8.6144,8.6194,8.6294,8.6294,8.6294,8.6294,8.6294,8.6294,8.6294,8.6294,8.6294,8.6294,8.6294,8.6294,8.6294,8.6294,8.6294,8.6294,7.4903,7.4903,7.4903,7.4903,7.4903,7.4903,7.4903,7.4903,7.4903,7.4903,7.4903,7.4903,7.4903,7.4903,7.4903,7.4903,7.4903,7.4903,7.4903,7.4903,7.4937,7.5074,7.5176,7.5244,7.5414,7.5583,7.5752,7.5887,7.6188,7.6686,7.6851,7.6983,7.6983,7.6983,7.6983,7.6983,7.6983,7.6983,7.6983,7.6983,7.6983,7.6983,7.6983,7.6983,7.6983,7.6983,7.7048,7.7048,7.7114,7.7343,7.7375,7.7538,7.7893,7.8119,7.8501,7.9379,7.975,8.0148,8.0571,8.105,8.1405,8.1639,8.1901,8.1872,8.1872,8.2075,8.268,8.3047,8.3377,8.3741,8.3878,8.4096,8.4231,8.4346,8.4426,8.448,8.458,8.458,8.458,8.458,8.458,8.4633,8.4633,8.4633,8.4747,8.4906,8.509,8.5299,8.5454,8.5506,8.5635,8.5763,8.589,8.6068,8.6144,8.6219,8.6244,8.6269,8.6294,8.6294,8.6294,8.6294,8.6294,8.6294,8.6294,8.6294,8.6294,8.6294,8.6294,8.6294,8.6294,8.6294,8.6294,8.6294,8.6294,7.4903,7.4903,7.4903,7.4903,7.4903,7.4903,7.4903,7.4903,7.4903,7.4903,7.4903,7.4903,7.4903,7.4903,7.4903,7.4903,7.4903,7.4903,7.4903,7.4903,7.5006,7.5176,7.5376,7.555,7.5749,7.5954,7.6121,7.6224,7.6523,7.6818,7.6983,7.6983,7.6983,7.6983,7.6983,7.6983,7.6983,7.6983,7.6983,7.6983,7.6983,7.6983,7.6983,7.6983,7.6983,7.7048,7.7179,7.7179,7.7408,7.7732,7.7765,7.8087,7.8564,7.8974,7.9718,8.0571,8.0901,8.1287,8.1698,8.2161,8.2362,8.259,8.3103,8.3098,8.3098,8.3215,8.3438,8.3686,8.4041,8.4372,8.4392,8.4473,8.4526,8.458,8.458,8.458,8.458,8.458,8.458,8.458,8.4633,8.4686,8.4713,8.4773,8.4906,8.5168,8.5377,8.5583,8.5712,8.5737,8.5865,8.6017,8.6118,8.6244,8.6294,8.6294,8.6294,8.6294,8.6294,8.6294,8.6294,8.6294,8.6294,8.6294,8.6294,8.6294,8.6294,8.6294,8.6294,8.6294,8.6294,8.6294,8.6294,8.6294,8.6294,7.4903,7.4903,7.4903,7.4903,7.4903,7.4903,7.4903,7.4903,7.4903,7.4903,7.4903,7.4903,7.4903,7.4903,7.4903,7.4903,7.4903,7.4903,7.4903,7.4937,7.5176,7.541,7.5614,7.5819,7.6088,7.6188,7.6355,7.6556,7.6653,7.6851,7.6983,7.6983,7.6983,7.6983,7.6983,7.6983,7.6983,7.6983,7.6983,7.6983,7.6983,7.6983,7.6983,7.7016,7.7081,7.7179,7.744,7.7635,7.7764,7.8118,7.8501,7.8849,7.9565,8.0087,8.102,8.1639,8.1959,8.2276,8.2647,8.3103,8.3243,8.3443,8.3665,8.3851,8.3905,8.3823,8.3905,8.4102,8.4399,8.4507,8.4526,8.4526,8.4553,8.458,8.458,8.458,8.458,8.4606,8.4667,8.4694,8.48,8.4879,8.5037,8.509,8.5194,8.548,8.5635,8.5814,8.5976,8.6001,8.6137,8.6288,8.6278,8.6294,8.6294,8.6294,8.6294,8.6294,8.6294,8.6294,8.6294,8.6294,8.6294,8.6294,8.6294,8.6294,8.6294,8.6294,8.6294,8.6294,8.6294,8.6294,8.6294,8.6294,8.6294,7.4903,7.4903,7.4903,7.4903,7.4903,7.4903,7.4903,7.4903,7.4903,7.4903,7.4903,7.4903,7.4903,7.4903,7.4903,7.4903,7.4903,7.4903,7.4903,7.504,7.5278,7.5617,7.5853,7.6188,7.6488,7.6719,7.6851,7.6851,7.6851,7.695,7.6983,7.6983,7.6983,7.6983,7.7048,7.7048,7.7048,7.7114,7.7114,7.7114,7.7114,7.7016,7.6983,7.7081,7.7181,7.7409,7.7733,7.8087,7.8406,7.8849,7.9379,8.0148,8.1198,8.1434,8.2046,8.2732,8.293,8.3154,8.3465,8.3768,8.3878,8.4048,8.4211,8.4372,8.4426,8.4292,8.4292,8.4453,8.456,8.4587,8.458,8.458,8.458,8.458,8.458,8.458,8.4606,8.4694,8.4747,8.4853,8.4958,8.5116,8.5299,8.5454,8.5558,8.5686,8.5788,8.5976,8.6231,8.6375,8.6419,8.6485,8.6304,8.6294,8.6294,8.6294,8.6294,8.6294,8.6294,8.6294,8.6294,8.6294,8.6294,8.6294,8.6294,8.6294,8.6294,8.6294,8.6294,8.6294,8.6294,8.6294,8.6294,8.6294,8.6294,7.4903,7.4903,7.4903,7.4903,7.4903,7.4903,7.4903,7.4903,7.4903,7.4903,7.4903,7.4903,7.4903,7.4903,7.4903,7.4903,7.4903,7.4903,7.5006,7.5176,7.5482,7.5853,7.6221,7.6554,7.6752,7.6983,7.6983,7.6983,7.7016,7.6983,7.6983,7.7016,7.7016,7.7081,7.7179,7.7245,7.731,7.7473,7.7473,7.7473,7.7408,7.7245,7.7147,7.7245,7.7507,7.7798,7.8406,7.8817,7.9286,7.9874,8.0451,8.1343,8.2161,8.2477,8.2902,8.3438,8.3714,8.3823,8.4102,8.4265,8.4339,8.4426,8.448,8.456,8.456,8.4453,8.4453,8.4587,8.4587,8.458,8.458,8.458,8.458,8.458,8.464,8.4667,8.4773,8.4906,8.5037,8.5194,8.5307,8.5377,8.5558,8.5686,8.5814,8.6129,8.6171,8.6549,8.6736,8.6915,8.6915,8.6846,8.6742,8.6432,8.6294,8.6294,8.6294,8.6294,8.6294,8.6294,8.6294,8.6294,8.6294,8.6294,8.6294,8.6294,8.6294,8.6294,8.6294,8.6294,8.6294,8.6294,8.6294,8.6294,8.6294,7.4903,7.4903,7.4903,7.4903,7.4903,7.4903,7.4903,7.4903,7.4903,7.4903,7.4903,7.4903,7.4903,7.4903,7.4903,7.4937,7.4971,7.504,7.5176,7.5516,7.5823,7.6091,7.6454,7.6785,7.6917,7.7016,7.7081,7.7114,7.7147,7.7212,7.7277,7.7147,7.7212,7.7277,7.7505,7.7635,7.7732,7.7958,7.8054,7.8118,7.7893,7.7538,7.7538,7.7669,7.8023,7.8533,7.9193,7.9842,8.033,8.0901,8.1522,8.2419,8.3014,8.3354,8.3659,8.4041,8.415,8.4319,8.448,8.45,8.4553,8.458,8.458,8.458,8.4614,8.4614,8.4614,8.4614,8.458,8.458,8.458,8.458,8.458,8.4633,8.4694,8.4773,8.4932,8.5116,8.5333,8.5514,8.5618,8.572,8.5823,8.595,8.6215,8.6495,8.6846,8.726,8.757,8.7708,8.7777,8.7605,8.7398,8.7053,8.6501,8.6432,8.6467,8.6294,8.6294,8.6294,8.6294,8.6294,8.6294,8.6294,8.6294,8.6294,8.6294,8.6294,8.6294,8.6294,8.6294,8.6294,8.6294,8.6294,8.6294,7.4903,7.4903,7.4903,7.4903,7.4903,7.4903,7.4903,7.4903,7.4903,7.4903,7.4937,7.4903,7.4903,7.4903,7.4903,7.4971,7.521,7.5278,7.555,7.5887,7.6188,7.6388,7.6587,7.6851,7.695,7.7081,7.7245,7.7377,7.7473,7.77,7.7892,7.7829,7.7861,7.7925,7.7958,7.8086,7.8279,7.8533,7.8691,7.8723,7.8723,7.8438,7.8151,7.8438,7.8911,7.9379,7.9995,8.0928,8.1405,8.1872,8.2477,8.3238,8.3714,8.396,8.4177,8.4312,8.4446,8.45,8.458,8.458,8.458,8.458,8.458,8.458,8.458,8.458,8.458,8.458,8.458,8.458,8.458,8.458,8.4606,8.4747,8.48,8.4958,8.5116,8.5325,8.5566,8.5755,8.5942,8.607,8.6265,8.6479,8.6754,8.7087,8.7432,8.7812,8.8329,8.8501,8.8639,8.8364,8.8122,8.7294,8.6605,8.6674,8.6674,8.6467,8.6363,8.6432,8.6432,8.6329,8.6294,8.6294,8.6294,8.6294,8.6294,8.6294,8.6294,8.6294,8.6294,8.6294,8.6294,8.6294,8.6294]}]]